<?xml version="1.0" encoding="UTF-8" standalone="no" ?>
<gpx xmlns="http://www.topografix.com/GPX/1/1" xmlns:xsi="http://www.w3.org/2001/XMLSchema-instance" xsi:schemaLocation="http://www.topografix.com/GPX/1/1 http://www.topografix.com/GPX/1/1/gpx.xsd" version="1.1" creator="VisuGPX - https://www.visugpx.com">
  <metadata>
    <name>mv24107</name>
    <desc><![CDATA[Super rando exigeante un passage privé à contourner ]]></desc>
  </metadata>
  <wpt lat="44.68182" lon="1.2658">
    <ele>156.9</ele>
    <name><![CDATA[Ravitaillement]]></name>
    <desc><![CDATA[]]></desc>
  </wpt>
  <wpt lat="44.60724" lon="1.15884">
    <ele>243.8</ele>
    <name><![CDATA[Ravitaillement]]></name>
    <desc><![CDATA[]]></desc>
  </wpt>
  <wpt lat="44.57898" lon="1.29742">
    <ele>284.2</ele>
    <name><![CDATA[Ravitaillement]]></name>
    <desc><![CDATA[]]></desc>
  </wpt>
  <wpt lat="44.54286" lon="1.15722">
    <ele>237.6</ele>
    <name><![CDATA[Ravitaillement]]></name>
    <desc><![CDATA[]]></desc>
  </wpt>
  <trk>
    <name><![CDATA[M.V. Vendredi 107.6 Km 07/04/23-18498108]]></name>
    <trkseg>
      <trkpt lat="44.50281" lon="1.1344">
        <ele>82</ele>
        <time>2024-03-10T15:49:55Z</time>
      </trkpt>
      <trkpt lat="44.50287" lon="1.13491">
        <ele>81</ele>
        <time>2024-03-10T15:50:04Z</time>
      </trkpt>
      <trkpt lat="44.50219" lon="1.13527">
        <ele>81</ele>
        <time>2024-03-10T15:50:21Z</time>
      </trkpt>
      <trkpt lat="44.50198" lon="1.13552">
        <ele>82</ele>
        <time>2024-03-10T15:50:27Z</time>
      </trkpt>
      <trkpt lat="44.5015" lon="1.13579">
        <ele>81</ele>
        <time>2024-03-10T15:50:39Z</time>
      </trkpt>
      <trkpt lat="44.5014" lon="1.13553">
        <ele>82</ele>
        <time>2024-03-10T15:50:44Z</time>
      </trkpt>
      <trkpt lat="44.50145" lon="1.13539">
        <ele>82</ele>
        <time>2024-03-10T15:50:47Z</time>
      </trkpt>
      <trkpt lat="44.50166" lon="1.13544">
        <ele>82</ele>
        <time>2024-03-10T15:50:52Z</time>
      </trkpt>
      <trkpt lat="44.50241" lon="1.13928">
        <ele>95</ele>
        <time>2024-03-10T15:51:58Z</time>
      </trkpt>
      <trkpt lat="44.50256" lon="1.13952">
        <ele>94</ele>
        <time>2024-03-10T15:52:03Z</time>
      </trkpt>
      <trkpt lat="44.5026" lon="1.13967">
        <ele>94</ele>
        <time>2024-03-10T15:52:06Z</time>
      </trkpt>
      <trkpt lat="44.50253" lon="1.13994">
        <ele>93</ele>
        <time>2024-03-10T15:52:11Z</time>
      </trkpt>
      <trkpt lat="44.50241" lon="1.14063">
        <ele>94</ele>
        <time>2024-03-10T15:52:23Z</time>
      </trkpt>
      <trkpt lat="44.50234" lon="1.14084">
        <ele>95</ele>
        <time>2024-03-10T15:52:26Z</time>
      </trkpt>
      <trkpt lat="44.50102" lon="1.14294">
        <ele>97</ele>
        <time>2024-03-10T15:53:13Z</time>
      </trkpt>
      <trkpt lat="44.50076" lon="1.14345">
        <ele>98</ele>
        <time>2024-03-10T15:53:23Z</time>
      </trkpt>
      <trkpt lat="44.50063" lon="1.1438">
        <ele>102</ele>
        <time>2024-03-10T15:53:30Z</time>
      </trkpt>
      <trkpt lat="44.50052" lon="1.14424">
        <ele>105</ele>
        <time>2024-03-10T15:53:38Z</time>
      </trkpt>
      <trkpt lat="44.50052" lon="1.14445">
        <ele>105</ele>
        <time>2024-03-10T15:53:41Z</time>
      </trkpt>
      <trkpt lat="44.5006" lon="1.14477">
        <ele>106</ele>
        <time>2024-03-10T15:53:47Z</time>
      </trkpt>
      <trkpt lat="44.50067" lon="1.14493">
        <ele>106</ele>
        <time>2024-03-10T15:53:50Z</time>
      </trkpt>
      <trkpt lat="44.50091" lon="1.14529">
        <ele>106</ele>
        <time>2024-03-10T15:53:58Z</time>
      </trkpt>
      <trkpt lat="44.50105" lon="1.14543">
        <ele>107</ele>
        <time>2024-03-10T15:54:02Z</time>
      </trkpt>
      <trkpt lat="44.50114" lon="1.14531">
        <ele>109</ele>
        <time>2024-03-10T15:54:05Z</time>
      </trkpt>
      <trkpt lat="44.50165" lon="1.14549">
        <ele>111</ele>
        <time>2024-03-10T15:54:17Z</time>
      </trkpt>
      <trkpt lat="44.50178" lon="1.14567">
        <ele>107</ele>
        <time>2024-03-10T15:54:22Z</time>
      </trkpt>
      <trkpt lat="44.50194" lon="1.14612">
        <ele>100</ele>
        <time>2024-03-10T15:54:30Z</time>
      </trkpt>
      <trkpt lat="44.50216" lon="1.14601">
        <ele>102</ele>
        <time>2024-03-10T15:54:36Z</time>
      </trkpt>
      <trkpt lat="44.50239" lon="1.14652">
        <ele>98</ele>
        <time>2024-03-10T15:54:46Z</time>
      </trkpt>
      <trkpt lat="44.50274" lon="1.14675">
        <ele>98</ele>
        <time>2024-03-10T15:54:55Z</time>
      </trkpt>
      <trkpt lat="44.503" lon="1.14677">
        <ele>100</ele>
        <time>2024-03-10T15:55:01Z</time>
      </trkpt>
      <trkpt lat="44.50312" lon="1.14696">
        <ele>100</ele>
        <time>2024-03-10T15:55:05Z</time>
      </trkpt>
      <trkpt lat="44.50349" lon="1.14671">
        <ele>104</ele>
        <time>2024-03-10T15:55:15Z</time>
      </trkpt>
      <trkpt lat="44.50526" lon="1.14611">
        <ele>111</ele>
        <time>2024-03-10T15:55:57Z</time>
      </trkpt>
      <trkpt lat="44.50582" lon="1.1461">
        <ele>112</ele>
        <time>2024-03-10T15:56:10Z</time>
      </trkpt>
      <trkpt lat="44.50645" lon="1.14601">
        <ele>113</ele>
        <time>2024-03-10T15:56:25Z</time>
      </trkpt>
      <trkpt lat="44.50698" lon="1.1456">
        <ele>110</ele>
        <time>2024-03-10T15:56:39Z</time>
      </trkpt>
      <trkpt lat="44.50732" lon="1.14566">
        <ele>112</ele>
        <time>2024-03-10T15:56:47Z</time>
      </trkpt>
      <trkpt lat="44.50758" lon="1.14549">
        <ele>113</ele>
        <time>2024-03-10T15:56:54Z</time>
      </trkpt>
      <trkpt lat="44.50815" lon="1.14467">
        <ele>113</ele>
        <time>2024-03-10T15:57:13Z</time>
      </trkpt>
      <trkpt lat="44.50851" lon="1.1444">
        <ele>113</ele>
        <time>2024-03-10T15:57:22Z</time>
      </trkpt>
      <trkpt lat="44.50947" lon="1.14398">
        <ele>112</ele>
        <time>2024-03-10T15:57:46Z</time>
      </trkpt>
      <trkpt lat="44.5098" lon="1.14422">
        <ele>112</ele>
        <time>2024-03-10T15:57:55Z</time>
      </trkpt>
      <trkpt lat="44.51039" lon="1.14498">
        <ele>119</ele>
        <time>2024-03-10T15:58:13Z</time>
      </trkpt>
      <trkpt lat="44.51114" lon="1.1476">
        <ele>123</ele>
        <time>2024-03-10T15:59:00Z</time>
      </trkpt>
      <trkpt lat="44.51144" lon="1.14818">
        <ele>122</ele>
        <time>2024-03-10T15:59:12Z</time>
      </trkpt>
      <trkpt lat="44.51163" lon="1.14894">
        <ele>122</ele>
        <time>2024-03-10T15:59:26Z</time>
      </trkpt>
      <trkpt lat="44.51158" lon="1.15007">
        <ele>132</ele>
        <time>2024-03-10T15:59:44Z</time>
      </trkpt>
      <trkpt lat="44.5116" lon="1.15176">
        <ele>142</ele>
        <time>2024-03-10T16:00:13Z</time>
      </trkpt>
      <trkpt lat="44.51131" lon="1.15222">
        <ele>149</ele>
        <time>2024-03-10T16:00:23Z</time>
      </trkpt>
      <trkpt lat="44.51122" lon="1.1526">
        <ele>154</ele>
        <time>2024-03-10T16:00:29Z</time>
      </trkpt>
      <trkpt lat="44.511" lon="1.15332">
        <ele>161</ele>
        <time>2024-03-10T16:00:43Z</time>
      </trkpt>
      <trkpt lat="44.51087" lon="1.15341">
        <ele>164</ele>
        <time>2024-03-10T16:00:46Z</time>
      </trkpt>
      <trkpt lat="44.5108" lon="1.15327">
        <ele>165</ele>
        <time>2024-03-10T16:00:49Z</time>
      </trkpt>
      <trkpt lat="44.51062" lon="1.15267">
        <ele>165</ele>
        <time>2024-03-10T16:01:00Z</time>
      </trkpt>
      <trkpt lat="44.51052" lon="1.15266">
        <ele>166</ele>
        <time>2024-03-10T16:01:02Z</time>
      </trkpt>
      <trkpt lat="44.50998" lon="1.15278">
        <ele>175</ele>
        <time>2024-03-10T16:01:15Z</time>
      </trkpt>
      <trkpt lat="44.50907" lon="1.15309">
        <ele>186</ele>
        <time>2024-03-10T16:01:37Z</time>
      </trkpt>
      <trkpt lat="44.50902" lon="1.15317">
        <ele>187</ele>
        <time>2024-03-10T16:01:38Z</time>
      </trkpt>
      <trkpt lat="44.509" lon="1.15345">
        <ele>187</ele>
        <time>2024-03-10T16:01:43Z</time>
      </trkpt>
      <trkpt lat="44.50904" lon="1.15427">
        <ele>188</ele>
        <time>2024-03-10T16:01:57Z</time>
      </trkpt>
      <trkpt lat="44.50911" lon="1.15471">
        <ele>189</ele>
        <time>2024-03-10T16:02:04Z</time>
      </trkpt>
      <trkpt lat="44.50948" lon="1.15581">
        <ele>183</ele>
        <time>2024-03-10T16:02:24Z</time>
      </trkpt>
      <trkpt lat="44.51013" lon="1.15733">
        <ele>192</ele>
        <time>2024-03-10T16:02:54Z</time>
      </trkpt>
      <trkpt lat="44.51009" lon="1.1578">
        <ele>195</ele>
        <time>2024-03-10T16:03:02Z</time>
      </trkpt>
      <trkpt lat="44.50964" lon="1.15857">
        <ele>182</ele>
        <time>2024-03-10T16:03:18Z</time>
      </trkpt>
      <trkpt lat="44.50951" lon="1.15958">
        <ele>166</ele>
        <time>2024-03-10T16:03:36Z</time>
      </trkpt>
      <trkpt lat="44.50988" lon="1.16107">
        <ele>161</ele>
        <time>2024-03-10T16:04:02Z</time>
      </trkpt>
      <trkpt lat="44.51017" lon="1.16169">
        <ele>165</ele>
        <time>2024-03-10T16:04:14Z</time>
      </trkpt>
      <trkpt lat="44.51015" lon="1.16206">
        <ele>159</ele>
        <time>2024-03-10T16:04:20Z</time>
      </trkpt>
      <trkpt lat="44.51072" lon="1.16365">
        <ele>163</ele>
        <time>2024-03-10T16:04:50Z</time>
      </trkpt>
      <trkpt lat="44.5111" lon="1.16379">
        <ele>174</ele>
        <time>2024-03-10T16:04:59Z</time>
      </trkpt>
      <trkpt lat="44.51137" lon="1.16438">
        <ele>176</ele>
        <time>2024-03-10T16:05:11Z</time>
      </trkpt>
      <trkpt lat="44.51166" lon="1.16468">
        <ele>183</ele>
        <time>2024-03-10T16:05:19Z</time>
      </trkpt>
      <trkpt lat="44.51249" lon="1.16629">
        <ele>191</ele>
        <time>2024-03-10T16:05:52Z</time>
      </trkpt>
      <trkpt lat="44.5124" lon="1.16701">
        <ele>191</ele>
        <time>2024-03-10T16:06:05Z</time>
      </trkpt>
      <trkpt lat="44.51226" lon="1.16784">
        <ele>197</ele>
        <time>2024-03-10T16:06:19Z</time>
      </trkpt>
      <trkpt lat="44.51211" lon="1.16811">
        <ele>198</ele>
        <time>2024-03-10T16:06:24Z</time>
      </trkpt>
      <trkpt lat="44.51157" lon="1.16865">
        <ele>199</ele>
        <time>2024-03-10T16:06:40Z</time>
      </trkpt>
      <trkpt lat="44.51124" lon="1.16929">
        <ele>200</ele>
        <time>2024-03-10T16:06:53Z</time>
      </trkpt>
      <trkpt lat="44.51044" lon="1.16897">
        <ele>180</ele>
        <time>2024-03-10T16:07:13Z</time>
      </trkpt>
      <trkpt lat="44.5102" lon="1.16912">
        <ele>174</ele>
        <time>2024-03-10T16:07:19Z</time>
      </trkpt>
      <trkpt lat="44.50992" lon="1.16953">
        <ele>164</ele>
        <time>2024-03-10T16:07:28Z</time>
      </trkpt>
      <trkpt lat="44.5098" lon="1.16987">
        <ele>159</ele>
        <time>2024-03-10T16:07:34Z</time>
      </trkpt>
      <trkpt lat="44.50974" lon="1.17156">
        <ele>140</ele>
        <time>2024-03-10T16:08:03Z</time>
      </trkpt>
      <trkpt lat="44.50873" lon="1.17846">
        <ele>99</ele>
        <time>2024-03-10T16:10:00Z</time>
      </trkpt>
      <trkpt lat="44.50896" lon="1.18026">
        <ele>102</ele>
        <time>2024-03-10T16:10:30Z</time>
      </trkpt>
      <trkpt lat="44.50893" lon="1.18075">
        <ele>104</ele>
        <time>2024-03-10T16:10:39Z</time>
      </trkpt>
      <trkpt lat="44.50859" lon="1.18241">
        <ele>113</ele>
        <time>2024-03-10T16:11:07Z</time>
      </trkpt>
      <trkpt lat="44.50833" lon="1.18342">
        <ele>116</ele>
        <time>2024-03-10T16:11:25Z</time>
      </trkpt>
      <trkpt lat="44.50862" lon="1.18391">
        <ele>117</ele>
        <time>2024-03-10T16:11:36Z</time>
      </trkpt>
      <trkpt lat="44.50761" lon="1.18514">
        <ele>120</ele>
        <time>2024-03-10T16:12:07Z</time>
      </trkpt>
      <trkpt lat="44.50698" lon="1.18556">
        <ele>117</ele>
        <time>2024-03-10T16:12:23Z</time>
      </trkpt>
      <trkpt lat="44.50624" lon="1.1864">
        <ele>113</ele>
        <time>2024-03-10T16:12:46Z</time>
      </trkpt>
      <trkpt lat="44.50634" lon="1.18658">
        <ele>113</ele>
        <time>2024-03-10T16:12:49Z</time>
      </trkpt>
      <trkpt lat="44.50599" lon="1.18724">
        <ele>112</ele>
        <time>2024-03-10T16:13:03Z</time>
      </trkpt>
      <trkpt lat="44.50561" lon="1.18843">
        <ele>112</ele>
        <time>2024-03-10T16:13:25Z</time>
      </trkpt>
      <trkpt lat="44.50648" lon="1.18883">
        <ele>111</ele>
        <time>2024-03-10T16:13:46Z</time>
      </trkpt>
      <trkpt lat="44.50738" lon="1.18911">
        <ele>111</ele>
        <time>2024-03-10T16:14:08Z</time>
      </trkpt>
      <trkpt lat="44.50747" lon="1.18939">
        <ele>111</ele>
        <time>2024-03-10T16:14:13Z</time>
      </trkpt>
      <trkpt lat="44.50784" lon="1.19005">
        <ele>111</ele>
        <time>2024-03-10T16:14:27Z</time>
      </trkpt>
      <trkpt lat="44.5082" lon="1.19122">
        <ele>112</ele>
        <time>2024-03-10T16:14:48Z</time>
      </trkpt>
      <trkpt lat="44.50858" lon="1.19257">
        <ele>116</ele>
        <time>2024-03-10T16:15:12Z</time>
      </trkpt>
      <trkpt lat="44.50879" lon="1.19371">
        <ele>117</ele>
        <time>2024-03-10T16:15:32Z</time>
      </trkpt>
      <trkpt lat="44.50886" lon="1.19424">
        <ele>117</ele>
        <time>2024-03-10T16:15:41Z</time>
      </trkpt>
      <trkpt lat="44.50899" lon="1.19468">
        <ele>119</ele>
        <time>2024-03-10T16:15:49Z</time>
      </trkpt>
      <trkpt lat="44.50907" lon="1.19485">
        <ele>120</ele>
        <time>2024-03-10T16:15:52Z</time>
      </trkpt>
      <trkpt lat="44.50918" lon="1.19499">
        <ele>121</ele>
        <time>2024-03-10T16:15:56Z</time>
      </trkpt>
      <trkpt lat="44.51094" lon="1.19652">
        <ele>125</ele>
        <time>2024-03-10T16:16:44Z</time>
      </trkpt>
      <trkpt lat="44.5112" lon="1.19678">
        <ele>126</ele>
        <time>2024-03-10T16:16:51Z</time>
      </trkpt>
      <trkpt lat="44.51132" lon="1.19698">
        <ele>126</ele>
        <time>2024-03-10T16:16:56Z</time>
      </trkpt>
      <trkpt lat="44.51175" lon="1.19804">
        <ele>132</ele>
        <time>2024-03-10T16:17:16Z</time>
      </trkpt>
      <trkpt lat="44.51206" lon="1.19848">
        <ele>134</ele>
        <time>2024-03-10T16:17:26Z</time>
      </trkpt>
      <trkpt lat="44.51218" lon="1.19855">
        <ele>134</ele>
        <time>2024-03-10T16:17:29Z</time>
      </trkpt>
      <trkpt lat="44.51225" lon="1.19866">
        <ele>134</ele>
        <time>2024-03-10T16:17:32Z</time>
      </trkpt>
      <trkpt lat="44.51235" lon="1.19918">
        <ele>137</ele>
        <time>2024-03-10T16:17:41Z</time>
      </trkpt>
      <trkpt lat="44.51242" lon="1.19934">
        <ele>137</ele>
        <time>2024-03-10T16:17:44Z</time>
      </trkpt>
      <trkpt lat="44.51249" lon="1.19943">
        <ele>136</ele>
        <time>2024-03-10T16:17:46Z</time>
      </trkpt>
      <trkpt lat="44.51285" lon="1.19956">
        <ele>139</ele>
        <time>2024-03-10T16:17:55Z</time>
      </trkpt>
      <trkpt lat="44.51279" lon="1.19969">
        <ele>139</ele>
        <time>2024-03-10T16:17:57Z</time>
      </trkpt>
      <trkpt lat="44.51272" lon="1.19995">
        <ele>139</ele>
        <time>2024-03-10T16:18:02Z</time>
      </trkpt>
      <trkpt lat="44.51195" lon="1.20126">
        <ele>144</ele>
        <time>2024-03-10T16:18:30Z</time>
      </trkpt>
      <trkpt lat="44.51154" lon="1.2019">
        <ele>144</ele>
        <time>2024-03-10T16:18:45Z</time>
      </trkpt>
      <trkpt lat="44.51144" lon="1.20211">
        <ele>146</ele>
        <time>2024-03-10T16:18:49Z</time>
      </trkpt>
      <trkpt lat="44.51135" lon="1.20238">
        <ele>147</ele>
        <time>2024-03-10T16:18:54Z</time>
      </trkpt>
      <trkpt lat="44.51132" lon="1.20301">
        <ele>151</ele>
        <time>2024-03-10T16:19:04Z</time>
      </trkpt>
      <trkpt lat="44.51145" lon="1.20463">
        <ele>157</ele>
        <time>2024-03-10T16:19:31Z</time>
      </trkpt>
      <trkpt lat="44.51151" lon="1.20499">
        <ele>157</ele>
        <time>2024-03-10T16:19:38Z</time>
      </trkpt>
      <trkpt lat="44.51185" lon="1.20583">
        <ele>159</ele>
        <time>2024-03-10T16:19:54Z</time>
      </trkpt>
      <trkpt lat="44.51205" lon="1.20619">
        <ele>163</ele>
        <time>2024-03-10T16:20:01Z</time>
      </trkpt>
      <trkpt lat="44.51216" lon="1.20647">
        <ele>164</ele>
        <time>2024-03-10T16:20:07Z</time>
      </trkpt>
      <trkpt lat="44.51234" lon="1.20719">
        <ele>167</ele>
        <time>2024-03-10T16:20:19Z</time>
      </trkpt>
      <trkpt lat="44.51241" lon="1.20769">
        <ele>170</ele>
        <time>2024-03-10T16:20:28Z</time>
      </trkpt>
      <trkpt lat="44.51241" lon="1.20815">
        <ele>174</ele>
        <time>2024-03-10T16:20:35Z</time>
      </trkpt>
      <trkpt lat="44.51236" lon="1.20864">
        <ele>179</ele>
        <time>2024-03-10T16:20:44Z</time>
      </trkpt>
      <trkpt lat="44.51216" lon="1.2094">
        <ele>185</ele>
        <time>2024-03-10T16:20:57Z</time>
      </trkpt>
      <trkpt lat="44.51213" lon="1.20969">
        <ele>186</ele>
        <time>2024-03-10T16:21:02Z</time>
      </trkpt>
      <trkpt lat="44.5121" lon="1.21008">
        <ele>188</ele>
        <time>2024-03-10T16:21:09Z</time>
      </trkpt>
      <trkpt lat="44.5121" lon="1.21079">
        <ele>193</ele>
        <time>2024-03-10T16:21:20Z</time>
      </trkpt>
      <trkpt lat="44.51205" lon="1.2118">
        <ele>199</ele>
        <time>2024-03-10T16:21:37Z</time>
      </trkpt>
      <trkpt lat="44.51181" lon="1.21225">
        <ele>199</ele>
        <time>2024-03-10T16:21:47Z</time>
      </trkpt>
      <trkpt lat="44.51171" lon="1.21257">
        <ele>199</ele>
        <time>2024-03-10T16:21:52Z</time>
      </trkpt>
      <trkpt lat="44.51166" lon="1.21326">
        <ele>203</ele>
        <time>2024-03-10T16:22:04Z</time>
      </trkpt>
      <trkpt lat="44.51157" lon="1.21388">
        <ele>207</ele>
        <time>2024-03-10T16:22:15Z</time>
      </trkpt>
      <trkpt lat="44.51132" lon="1.21449">
        <ele>212</ele>
        <time>2024-03-10T16:22:26Z</time>
      </trkpt>
      <trkpt lat="44.5112" lon="1.21469">
        <ele>214</ele>
        <time>2024-03-10T16:22:31Z</time>
      </trkpt>
      <trkpt lat="44.51109" lon="1.21497">
        <ele>215</ele>
        <time>2024-03-10T16:22:36Z</time>
      </trkpt>
      <trkpt lat="44.51108" lon="1.21522">
        <ele>219</ele>
        <time>2024-03-10T16:22:40Z</time>
      </trkpt>
      <trkpt lat="44.51097" lon="1.21548">
        <ele>222</ele>
        <time>2024-03-10T16:22:45Z</time>
      </trkpt>
      <trkpt lat="44.51089" lon="1.21535">
        <ele>219</ele>
        <time>2024-03-10T16:22:48Z</time>
      </trkpt>
      <trkpt lat="44.51077" lon="1.21533">
        <ele>220</ele>
        <time>2024-03-10T16:22:51Z</time>
      </trkpt>
      <trkpt lat="44.51063" lon="1.21524">
        <ele>221</ele>
        <time>2024-03-10T16:22:54Z</time>
      </trkpt>
      <trkpt lat="44.5106" lon="1.21468">
        <ele>218</ele>
        <time>2024-03-10T16:23:04Z</time>
      </trkpt>
      <trkpt lat="44.51067" lon="1.21403">
        <ele>213</ele>
        <time>2024-03-10T16:23:15Z</time>
      </trkpt>
      <trkpt lat="44.51052" lon="1.21331">
        <ele>215</ele>
        <time>2024-03-10T16:23:27Z</time>
      </trkpt>
      <trkpt lat="44.51058" lon="1.21246">
        <ele>214</ele>
        <time>2024-03-10T16:23:41Z</time>
      </trkpt>
      <trkpt lat="44.51018" lon="1.21186">
        <ele>220</ele>
        <time>2024-03-10T16:23:55Z</time>
      </trkpt>
      <trkpt lat="44.51009" lon="1.21158">
        <ele>222</ele>
        <time>2024-03-10T16:24:00Z</time>
      </trkpt>
      <trkpt lat="44.50992" lon="1.21154">
        <ele>224</ele>
        <time>2024-03-10T16:24:04Z</time>
      </trkpt>
      <trkpt lat="44.50948" lon="1.21189">
        <ele>227</ele>
        <time>2024-03-10T16:24:16Z</time>
      </trkpt>
      <trkpt lat="44.50919" lon="1.21218">
        <ele>229</ele>
        <time>2024-03-10T16:24:24Z</time>
      </trkpt>
      <trkpt lat="44.50909" lon="1.2128">
        <ele>230</ele>
        <time>2024-03-10T16:24:35Z</time>
      </trkpt>
      <trkpt lat="44.50841" lon="1.21423">
        <ele>243</ele>
        <time>2024-03-10T16:25:04Z</time>
      </trkpt>
      <trkpt lat="44.5083" lon="1.21431">
        <ele>244</ele>
        <time>2024-03-10T16:25:07Z</time>
      </trkpt>
      <trkpt lat="44.50807" lon="1.21522">
        <ele>251</ele>
        <time>2024-03-10T16:25:23Z</time>
      </trkpt>
      <trkpt lat="44.50823" lon="1.21581">
        <ele>253</ele>
        <time>2024-03-10T16:25:33Z</time>
      </trkpt>
      <trkpt lat="44.50802" lon="1.21656">
        <ele>257</ele>
        <time>2024-03-10T16:25:47Z</time>
      </trkpt>
      <trkpt lat="44.50769" lon="1.21742">
        <ele>258</ele>
        <time>2024-03-10T16:26:03Z</time>
      </trkpt>
      <trkpt lat="44.5077" lon="1.21782">
        <ele>259</ele>
        <time>2024-03-10T16:26:09Z</time>
      </trkpt>
      <trkpt lat="44.50782" lon="1.21802">
        <ele>260</ele>
        <time>2024-03-10T16:26:14Z</time>
      </trkpt>
      <trkpt lat="44.50812" lon="1.21819">
        <ele>263</ele>
        <time>2024-03-10T16:26:21Z</time>
      </trkpt>
      <trkpt lat="44.50848" lon="1.21809">
        <ele>265</ele>
        <time>2024-03-10T16:26:30Z</time>
      </trkpt>
      <trkpt lat="44.50874" lon="1.21844">
        <ele>266</ele>
        <time>2024-03-10T16:26:38Z</time>
      </trkpt>
      <trkpt lat="44.50911" lon="1.21852">
        <ele>267</ele>
        <time>2024-03-10T16:26:47Z</time>
      </trkpt>
      <trkpt lat="44.50932" lon="1.21892">
        <ele>265</ele>
        <time>2024-03-10T16:26:55Z</time>
      </trkpt>
      <trkpt lat="44.50949" lon="1.21888">
        <ele>263</ele>
        <time>2024-03-10T16:26:59Z</time>
      </trkpt>
      <trkpt lat="44.50971" lon="1.21893">
        <ele>261</ele>
        <time>2024-03-10T16:27:05Z</time>
      </trkpt>
      <trkpt lat="44.51002" lon="1.21843">
        <ele>261</ele>
        <time>2024-03-10T16:27:16Z</time>
      </trkpt>
      <trkpt lat="44.51046" lon="1.2182">
        <ele>259</ele>
        <time>2024-03-10T16:27:27Z</time>
      </trkpt>
      <trkpt lat="44.51208" lon="1.21824">
        <ele>263</ele>
        <time>2024-03-10T16:28:04Z</time>
      </trkpt>
      <trkpt lat="44.51286" lon="1.21839">
        <ele>267</ele>
        <time>2024-03-10T16:28:23Z</time>
      </trkpt>
      <trkpt lat="44.51318" lon="1.21861">
        <ele>268</ele>
        <time>2024-03-10T16:28:31Z</time>
      </trkpt>
      <trkpt lat="44.51303" lon="1.2193">
        <ele>266</ele>
        <time>2024-03-10T16:28:43Z</time>
      </trkpt>
      <trkpt lat="44.51267" lon="1.21989">
        <ele>262</ele>
        <time>2024-03-10T16:28:56Z</time>
      </trkpt>
      <trkpt lat="44.51251" lon="1.22027">
        <ele>256</ele>
        <time>2024-03-10T16:29:03Z</time>
      </trkpt>
      <trkpt lat="44.51248" lon="1.22064">
        <ele>250</ele>
        <time>2024-03-10T16:29:10Z</time>
      </trkpt>
      <trkpt lat="44.51326" lon="1.22108">
        <ele>247</ele>
        <time>2024-03-10T16:29:29Z</time>
      </trkpt>
      <trkpt lat="44.51385" lon="1.22128">
        <ele>246</ele>
        <time>2024-03-10T16:29:43Z</time>
      </trkpt>
      <trkpt lat="44.51385" lon="1.22149">
        <ele>242</ele>
        <time>2024-03-10T16:29:47Z</time>
      </trkpt>
      <trkpt lat="44.51408" lon="1.22148">
        <ele>245</ele>
        <time>2024-03-10T16:29:52Z</time>
      </trkpt>
      <trkpt lat="44.51445" lon="1.22166">
        <ele>245</ele>
        <time>2024-03-10T16:30:01Z</time>
      </trkpt>
      <trkpt lat="44.51458" lon="1.22166">
        <ele>246</ele>
        <time>2024-03-10T16:30:04Z</time>
      </trkpt>
      <trkpt lat="44.51458" lon="1.22121">
        <ele>249</ele>
        <time>2024-03-10T16:30:12Z</time>
      </trkpt>
      <trkpt lat="44.51473" lon="1.22117">
        <ele>249</ele>
        <time>2024-03-10T16:30:16Z</time>
      </trkpt>
      <trkpt lat="44.51487" lon="1.22092">
        <ele>249</ele>
        <time>2024-03-10T16:30:21Z</time>
      </trkpt>
      <trkpt lat="44.51486" lon="1.22059">
        <ele>251</ele>
        <time>2024-03-10T16:30:26Z</time>
      </trkpt>
      <trkpt lat="44.5146" lon="1.21978">
        <ele>258</ele>
        <time>2024-03-10T16:30:41Z</time>
      </trkpt>
      <trkpt lat="44.51467" lon="1.21957">
        <ele>259</ele>
        <time>2024-03-10T16:30:45Z</time>
      </trkpt>
      <trkpt lat="44.51453" lon="1.21911">
        <ele>264</ele>
        <time>2024-03-10T16:30:53Z</time>
      </trkpt>
      <trkpt lat="44.51486" lon="1.21907">
        <ele>263</ele>
        <time>2024-03-10T16:31:01Z</time>
      </trkpt>
      <trkpt lat="44.51555" lon="1.21927">
        <ele>258</ele>
        <time>2024-03-10T16:31:18Z</time>
      </trkpt>
      <trkpt lat="44.51596" lon="1.21943">
        <ele>255</ele>
        <time>2024-03-10T16:31:27Z</time>
      </trkpt>
      <trkpt lat="44.51636" lon="1.2196">
        <ele>256</ele>
        <time>2024-03-10T16:31:37Z</time>
      </trkpt>
      <trkpt lat="44.51667" lon="1.21978">
        <ele>257</ele>
        <time>2024-03-10T16:31:45Z</time>
      </trkpt>
      <trkpt lat="44.5169" lon="1.22006">
        <ele>261</ele>
        <time>2024-03-10T16:31:52Z</time>
      </trkpt>
      <trkpt lat="44.51722" lon="1.22007">
        <ele>265</ele>
        <time>2024-03-10T16:32:00Z</time>
      </trkpt>
      <trkpt lat="44.51736" lon="1.21999">
        <ele>266</ele>
        <time>2024-03-10T16:32:03Z</time>
      </trkpt>
      <trkpt lat="44.5175" lon="1.21999">
        <ele>268</ele>
        <time>2024-03-10T16:32:06Z</time>
      </trkpt>
      <trkpt lat="44.51768" lon="1.21979">
        <ele>268</ele>
        <time>2024-03-10T16:32:12Z</time>
      </trkpt>
      <trkpt lat="44.51808" lon="1.21954">
        <ele>269</ele>
        <time>2024-03-10T16:32:22Z</time>
      </trkpt>
      <trkpt lat="44.51833" lon="1.21963">
        <ele>272</ele>
        <time>2024-03-10T16:32:28Z</time>
      </trkpt>
      <trkpt lat="44.51856" lon="1.21955">
        <ele>271</ele>
        <time>2024-03-10T16:32:34Z</time>
      </trkpt>
      <trkpt lat="44.5186" lon="1.21966">
        <ele>272</ele>
        <time>2024-03-10T16:32:36Z</time>
      </trkpt>
      <trkpt lat="44.51844" lon="1.21988">
        <ele>274</ele>
        <time>2024-03-10T16:32:41Z</time>
      </trkpt>
      <trkpt lat="44.51828" lon="1.22025">
        <ele>275</ele>
        <time>2024-03-10T16:32:48Z</time>
      </trkpt>
      <trkpt lat="44.51817" lon="1.22067">
        <ele>274</ele>
        <time>2024-03-10T16:32:56Z</time>
      </trkpt>
      <trkpt lat="44.51818" lon="1.22105">
        <ele>273</ele>
        <time>2024-03-10T16:33:02Z</time>
      </trkpt>
      <trkpt lat="44.51825" lon="1.2212">
        <ele>273</ele>
        <time>2024-03-10T16:33:05Z</time>
      </trkpt>
      <trkpt lat="44.51846" lon="1.22118">
        <ele>274</ele>
        <time>2024-03-10T16:33:10Z</time>
      </trkpt>
      <trkpt lat="44.51867" lon="1.2214">
        <ele>272</ele>
        <time>2024-03-10T16:33:16Z</time>
      </trkpt>
      <trkpt lat="44.51901" lon="1.22141">
        <ele>271</ele>
        <time>2024-03-10T16:33:24Z</time>
      </trkpt>
      <trkpt lat="44.51914" lon="1.2213">
        <ele>272</ele>
        <time>2024-03-10T16:33:27Z</time>
      </trkpt>
      <trkpt lat="44.51948" lon="1.22135">
        <ele>272</ele>
        <time>2024-03-10T16:33:35Z</time>
      </trkpt>
      <trkpt lat="44.51994" lon="1.22183">
        <ele>270</ele>
        <time>2024-03-10T16:33:49Z</time>
      </trkpt>
      <trkpt lat="44.52034" lon="1.22204">
        <ele>269</ele>
        <time>2024-03-10T16:33:59Z</time>
      </trkpt>
      <trkpt lat="44.52052" lon="1.22216">
        <ele>269</ele>
        <time>2024-03-10T16:34:03Z</time>
      </trkpt>
      <trkpt lat="44.52073" lon="1.22225">
        <ele>270</ele>
        <time>2024-03-10T16:34:09Z</time>
      </trkpt>
      <trkpt lat="44.52091" lon="1.22259">
        <ele>268</ele>
        <time>2024-03-10T16:34:16Z</time>
      </trkpt>
      <trkpt lat="44.52115" lon="1.22277">
        <ele>268</ele>
        <time>2024-03-10T16:34:22Z</time>
      </trkpt>
      <trkpt lat="44.52126" lon="1.22297">
        <ele>266</ele>
        <time>2024-03-10T16:34:26Z</time>
      </trkpt>
      <trkpt lat="44.52158" lon="1.2231">
        <ele>268</ele>
        <time>2024-03-10T16:34:34Z</time>
      </trkpt>
      <trkpt lat="44.52169" lon="1.22286">
        <ele>272</ele>
        <time>2024-03-10T16:34:39Z</time>
      </trkpt>
      <trkpt lat="44.52185" lon="1.22221">
        <ele>279</ele>
        <time>2024-03-10T16:34:50Z</time>
      </trkpt>
      <trkpt lat="44.52201" lon="1.22197">
        <ele>281</ele>
        <time>2024-03-10T16:34:56Z</time>
      </trkpt>
      <trkpt lat="44.52212" lon="1.2219">
        <ele>282</ele>
        <time>2024-03-10T16:34:58Z</time>
      </trkpt>
      <trkpt lat="44.52224" lon="1.22244">
        <ele>279</ele>
        <time>2024-03-10T16:35:08Z</time>
      </trkpt>
      <trkpt lat="44.52226" lon="1.22299">
        <ele>272</ele>
        <time>2024-03-10T16:35:17Z</time>
      </trkpt>
      <trkpt lat="44.52214" lon="1.22359">
        <ele>262</ele>
        <time>2024-03-10T16:35:27Z</time>
      </trkpt>
      <trkpt lat="44.52222" lon="1.22434">
        <ele>250</ele>
        <time>2024-03-10T16:35:40Z</time>
      </trkpt>
      <trkpt lat="44.52216" lon="1.22449">
        <ele>247</ele>
        <time>2024-03-10T16:35:43Z</time>
      </trkpt>
      <trkpt lat="44.52218" lon="1.22489">
        <ele>242</ele>
        <time>2024-03-10T16:35:50Z</time>
      </trkpt>
      <trkpt lat="44.52225" lon="1.22538">
        <ele>238</ele>
        <time>2024-03-10T16:35:58Z</time>
      </trkpt>
      <trkpt lat="44.52224" lon="1.22575">
        <ele>235</ele>
        <time>2024-03-10T16:36:04Z</time>
      </trkpt>
      <trkpt lat="44.5225" lon="1.22638">
        <ele>235</ele>
        <time>2024-03-10T16:36:16Z</time>
      </trkpt>
      <trkpt lat="44.52256" lon="1.22667">
        <ele>233</ele>
        <time>2024-03-10T16:36:21Z</time>
      </trkpt>
      <trkpt lat="44.52322" lon="1.22676">
        <ele>232</ele>
        <time>2024-03-10T16:36:37Z</time>
      </trkpt>
      <trkpt lat="44.52386" lon="1.22688">
        <ele>225</ele>
        <time>2024-03-10T16:36:52Z</time>
      </trkpt>
      <trkpt lat="44.52429" lon="1.22704">
        <ele>218</ele>
        <time>2024-03-10T16:37:02Z</time>
      </trkpt>
      <trkpt lat="44.52462" lon="1.22729">
        <ele>211</ele>
        <time>2024-03-10T16:37:11Z</time>
      </trkpt>
      <trkpt lat="44.52491" lon="1.22768">
        <ele>204</ele>
        <time>2024-03-10T16:37:20Z</time>
      </trkpt>
      <trkpt lat="44.52496" lon="1.22788">
        <ele>200</ele>
        <time>2024-03-10T16:37:24Z</time>
      </trkpt>
      <trkpt lat="44.52523" lon="1.22833">
        <ele>190</ele>
        <time>2024-03-10T16:37:34Z</time>
      </trkpt>
      <trkpt lat="44.52538" lon="1.22841">
        <ele>187</ele>
        <time>2024-03-10T16:37:37Z</time>
      </trkpt>
      <trkpt lat="44.52549" lon="1.2284">
        <ele>187</ele>
        <time>2024-03-10T16:37:40Z</time>
      </trkpt>
      <trkpt lat="44.52557" lon="1.22791">
        <ele>193</ele>
        <time>2024-03-10T16:37:48Z</time>
      </trkpt>
      <trkpt lat="44.52558" lon="1.22772">
        <ele>195</ele>
        <time>2024-03-10T16:37:51Z</time>
      </trkpt>
      <trkpt lat="44.52551" lon="1.22734">
        <ele>201</ele>
        <time>2024-03-10T16:37:58Z</time>
      </trkpt>
      <trkpt lat="44.52548" lon="1.22685">
        <ele>206</ele>
        <time>2024-03-10T16:38:06Z</time>
      </trkpt>
      <trkpt lat="44.52554" lon="1.2265">
        <ele>208</ele>
        <time>2024-03-10T16:38:12Z</time>
      </trkpt>
      <trkpt lat="44.5257" lon="1.22617">
        <ele>208</ele>
        <time>2024-03-10T16:38:19Z</time>
      </trkpt>
      <trkpt lat="44.5258" lon="1.22605">
        <ele>209</ele>
        <time>2024-03-10T16:38:22Z</time>
      </trkpt>
      <trkpt lat="44.526" lon="1.22593">
        <ele>210</ele>
        <time>2024-03-10T16:38:27Z</time>
      </trkpt>
      <trkpt lat="44.52611" lon="1.22599">
        <ele>210</ele>
        <time>2024-03-10T16:38:30Z</time>
      </trkpt>
      <trkpt lat="44.52622" lon="1.22612">
        <ele>209</ele>
        <time>2024-03-10T16:38:33Z</time>
      </trkpt>
      <trkpt lat="44.52633" lon="1.22618">
        <ele>209</ele>
        <time>2024-03-10T16:38:36Z</time>
      </trkpt>
      <trkpt lat="44.52655" lon="1.22621">
        <ele>209</ele>
        <time>2024-03-10T16:38:41Z</time>
      </trkpt>
      <trkpt lat="44.52673" lon="1.22619">
        <ele>209</ele>
        <time>2024-03-10T16:38:45Z</time>
      </trkpt>
      <trkpt lat="44.52703" lon="1.2261">
        <ele>210</ele>
        <time>2024-03-10T16:38:52Z</time>
      </trkpt>
      <trkpt lat="44.5275" lon="1.22601">
        <ele>210</ele>
        <time>2024-03-10T16:39:03Z</time>
      </trkpt>
      <trkpt lat="44.52801" lon="1.22588">
        <ele>207</ele>
        <time>2024-03-10T16:39:16Z</time>
      </trkpt>
      <trkpt lat="44.52816" lon="1.22594">
        <ele>206</ele>
        <time>2024-03-10T16:39:19Z</time>
      </trkpt>
      <trkpt lat="44.52841" lon="1.22616">
        <ele>204</ele>
        <time>2024-03-10T16:39:26Z</time>
      </trkpt>
      <trkpt lat="44.52871" lon="1.22647">
        <ele>205</ele>
        <time>2024-03-10T16:39:35Z</time>
      </trkpt>
      <trkpt lat="44.52907" lon="1.22653">
        <ele>208</ele>
        <time>2024-03-10T16:39:43Z</time>
      </trkpt>
      <trkpt lat="44.52964" lon="1.22649">
        <ele>216</ele>
        <time>2024-03-10T16:39:57Z</time>
      </trkpt>
      <trkpt lat="44.52976" lon="1.22654">
        <ele>218</ele>
        <time>2024-03-10T16:40:00Z</time>
      </trkpt>
      <trkpt lat="44.5299" lon="1.22679">
        <ele>218</ele>
        <time>2024-03-10T16:40:05Z</time>
      </trkpt>
      <trkpt lat="44.52988" lon="1.22712">
        <ele>216</ele>
        <time>2024-03-10T16:40:10Z</time>
      </trkpt>
      <trkpt lat="44.53014" lon="1.22725">
        <ele>217</ele>
        <time>2024-03-10T16:40:17Z</time>
      </trkpt>
      <trkpt lat="44.5305" lon="1.22739">
        <ele>216</ele>
        <time>2024-03-10T16:40:25Z</time>
      </trkpt>
      <trkpt lat="44.53074" lon="1.22759">
        <ele>215</ele>
        <time>2024-03-10T16:40:32Z</time>
      </trkpt>
      <trkpt lat="44.53088" lon="1.22764">
        <ele>215</ele>
        <time>2024-03-10T16:40:35Z</time>
      </trkpt>
      <trkpt lat="44.53102" lon="1.2276">
        <ele>214</ele>
        <time>2024-03-10T16:40:39Z</time>
      </trkpt>
      <trkpt lat="44.5316" lon="1.22755">
        <ele>211</ele>
        <time>2024-03-10T16:40:52Z</time>
      </trkpt>
      <trkpt lat="44.53192" lon="1.22796">
        <ele>209</ele>
        <time>2024-03-10T16:41:02Z</time>
      </trkpt>
      <trkpt lat="44.53213" lon="1.22803">
        <ele>207</ele>
        <time>2024-03-10T16:41:07Z</time>
      </trkpt>
      <trkpt lat="44.53233" lon="1.22801">
        <ele>206</ele>
        <time>2024-03-10T16:41:12Z</time>
      </trkpt>
      <trkpt lat="44.53243" lon="1.22783">
        <ele>206</ele>
        <time>2024-03-10T16:41:16Z</time>
      </trkpt>
      <trkpt lat="44.53255" lon="1.22779">
        <ele>206</ele>
        <time>2024-03-10T16:41:19Z</time>
      </trkpt>
      <trkpt lat="44.53268" lon="1.22799">
        <ele>206</ele>
        <time>2024-03-10T16:41:23Z</time>
      </trkpt>
      <trkpt lat="44.53273" lon="1.22818">
        <ele>206</ele>
        <time>2024-03-10T16:41:27Z</time>
      </trkpt>
      <trkpt lat="44.53271" lon="1.22861">
        <ele>204</ele>
        <time>2024-03-10T16:41:34Z</time>
      </trkpt>
      <trkpt lat="44.53276" lon="1.22876">
        <ele>203</ele>
        <time>2024-03-10T16:41:37Z</time>
      </trkpt>
      <trkpt lat="44.53299" lon="1.22905">
        <ele>204</ele>
        <time>2024-03-10T16:41:44Z</time>
      </trkpt>
      <trkpt lat="44.53308" lon="1.22934">
        <ele>202</ele>
        <time>2024-03-10T16:41:49Z</time>
      </trkpt>
      <trkpt lat="44.53311" lon="1.22954">
        <ele>201</ele>
        <time>2024-03-10T16:41:53Z</time>
      </trkpt>
      <trkpt lat="44.53299" lon="1.23055">
        <ele>190</ele>
        <time>2024-03-10T16:42:10Z</time>
      </trkpt>
      <trkpt lat="44.53303" lon="1.2309">
        <ele>186</ele>
        <time>2024-03-10T16:42:15Z</time>
      </trkpt>
      <trkpt lat="44.53301" lon="1.23109">
        <ele>183</ele>
        <time>2024-03-10T16:42:19Z</time>
      </trkpt>
      <trkpt lat="44.53294" lon="1.23134">
        <ele>180</ele>
        <time>2024-03-10T16:42:23Z</time>
      </trkpt>
      <trkpt lat="44.53297" lon="1.23155">
        <ele>176</ele>
        <time>2024-03-10T16:42:27Z</time>
      </trkpt>
      <trkpt lat="44.53337" lon="1.23302">
        <ele>148</ele>
        <time>2024-03-10T16:42:53Z</time>
      </trkpt>
      <trkpt lat="44.53354" lon="1.23343">
        <ele>142</ele>
        <time>2024-03-10T16:43:01Z</time>
      </trkpt>
      <trkpt lat="44.53351" lon="1.23362">
        <ele>139</ele>
        <time>2024-03-10T16:43:04Z</time>
      </trkpt>
      <trkpt lat="44.53359" lon="1.23416">
        <ele>132</ele>
        <time>2024-03-10T16:43:13Z</time>
      </trkpt>
      <trkpt lat="44.53348" lon="1.23499">
        <ele>120</ele>
        <time>2024-03-10T16:43:27Z</time>
      </trkpt>
      <trkpt lat="44.53367" lon="1.23509">
        <ele>118</ele>
        <time>2024-03-10T16:43:32Z</time>
      </trkpt>
      <trkpt lat="44.53394" lon="1.23513">
        <ele>117</ele>
        <time>2024-03-10T16:43:38Z</time>
      </trkpt>
      <trkpt lat="44.53405" lon="1.23509">
        <ele>117</ele>
        <time>2024-03-10T16:43:41Z</time>
      </trkpt>
      <trkpt lat="44.53414" lon="1.235">
        <ele>117</ele>
        <time>2024-03-10T16:43:44Z</time>
      </trkpt>
      <trkpt lat="44.53465" lon="1.23432">
        <ele>120</ele>
        <time>2024-03-10T16:44:00Z</time>
      </trkpt>
      <trkpt lat="44.535" lon="1.2349">
        <ele>115</ele>
        <time>2024-03-10T16:44:13Z</time>
      </trkpt>
      <trkpt lat="44.53519" lon="1.23494">
        <ele>115</ele>
        <time>2024-03-10T16:44:17Z</time>
      </trkpt>
      <trkpt lat="44.53548" lon="1.23598">
        <ele>117</ele>
        <time>2024-03-10T16:44:36Z</time>
      </trkpt>
      <trkpt lat="44.53559" lon="1.23667">
        <ele>120</ele>
        <time>2024-03-10T16:44:47Z</time>
      </trkpt>
      <trkpt lat="44.53711" lon="1.2362">
        <ele>125</ele>
        <time>2024-03-10T16:45:24Z</time>
      </trkpt>
      <trkpt lat="44.53726" lon="1.23612">
        <ele>125</ele>
        <time>2024-03-10T16:45:28Z</time>
      </trkpt>
      <trkpt lat="44.53735" lon="1.23666">
        <ele>131</ele>
        <time>2024-03-10T16:45:37Z</time>
      </trkpt>
      <trkpt lat="44.53745" lon="1.23685">
        <ele>135</ele>
        <time>2024-03-10T16:45:41Z</time>
      </trkpt>
      <trkpt lat="44.53742" lon="1.23704">
        <ele>138</ele>
        <time>2024-03-10T16:45:44Z</time>
      </trkpt>
      <trkpt lat="44.53744" lon="1.2375">
        <ele>145</ele>
        <time>2024-03-10T16:45:52Z</time>
      </trkpt>
      <trkpt lat="44.5374" lon="1.23771">
        <ele>148</ele>
        <time>2024-03-10T16:45:55Z</time>
      </trkpt>
      <trkpt lat="44.53728" lon="1.23815">
        <ele>155</ele>
        <time>2024-03-10T16:46:03Z</time>
      </trkpt>
      <trkpt lat="44.53705" lon="1.23842">
        <ele>158</ele>
        <time>2024-03-10T16:46:10Z</time>
      </trkpt>
      <trkpt lat="44.53647" lon="1.23941">
        <ele>173</ele>
        <time>2024-03-10T16:46:31Z</time>
      </trkpt>
      <trkpt lat="44.53679" lon="1.23956">
        <ele>173</ele>
        <time>2024-03-10T16:46:39Z</time>
      </trkpt>
      <trkpt lat="44.53691" lon="1.23981">
        <ele>175</ele>
        <time>2024-03-10T16:46:44Z</time>
      </trkpt>
      <trkpt lat="44.53695" lon="1.24002">
        <ele>176</ele>
        <time>2024-03-10T16:46:48Z</time>
      </trkpt>
      <trkpt lat="44.53704" lon="1.24009">
        <ele>176</ele>
        <time>2024-03-10T16:46:50Z</time>
      </trkpt>
      <trkpt lat="44.53723" lon="1.24058">
        <ele>173</ele>
        <time>2024-03-10T16:47:00Z</time>
      </trkpt>
      <trkpt lat="44.53743" lon="1.24089">
        <ele>171</ele>
        <time>2024-03-10T16:47:07Z</time>
      </trkpt>
      <trkpt lat="44.53764" lon="1.24098">
        <ele>171</ele>
        <time>2024-03-10T16:47:12Z</time>
      </trkpt>
      <trkpt lat="44.53791" lon="1.24151">
        <ele>169</ele>
        <time>2024-03-10T16:47:23Z</time>
      </trkpt>
      <trkpt lat="44.53821" lon="1.24197">
        <ele>171</ele>
        <time>2024-03-10T16:47:33Z</time>
      </trkpt>
      <trkpt lat="44.53893" lon="1.24263">
        <ele>179</ele>
        <time>2024-03-10T16:47:53Z</time>
      </trkpt>
      <trkpt lat="44.53951" lon="1.24343">
        <ele>180</ele>
        <time>2024-03-10T16:48:12Z</time>
      </trkpt>
      <trkpt lat="44.54016" lon="1.24465">
        <ele>185</ele>
        <time>2024-03-10T16:48:37Z</time>
      </trkpt>
      <trkpt lat="44.54036" lon="1.24489">
        <ele>185</ele>
        <time>2024-03-10T16:48:44Z</time>
      </trkpt>
      <trkpt lat="44.54058" lon="1.24507">
        <ele>186</ele>
        <time>2024-03-10T16:48:49Z</time>
      </trkpt>
      <trkpt lat="44.54056" lon="1.24529">
        <ele>186</ele>
        <time>2024-03-10T16:48:53Z</time>
      </trkpt>
      <trkpt lat="44.54081" lon="1.24561">
        <ele>190</ele>
        <time>2024-03-10T16:49:01Z</time>
      </trkpt>
      <trkpt lat="44.54105" lon="1.24597">
        <ele>194</ele>
        <time>2024-03-10T16:49:09Z</time>
      </trkpt>
      <trkpt lat="44.54134" lon="1.24617">
        <ele>199</ele>
        <time>2024-03-10T16:49:17Z</time>
      </trkpt>
      <trkpt lat="44.54152" lon="1.24642">
        <ele>205</ele>
        <time>2024-03-10T16:49:23Z</time>
      </trkpt>
      <trkpt lat="44.54174" lon="1.24683">
        <ele>212</ele>
        <time>2024-03-10T16:49:31Z</time>
      </trkpt>
      <trkpt lat="44.5419" lon="1.24705">
        <ele>214</ele>
        <time>2024-03-10T16:49:37Z</time>
      </trkpt>
      <trkpt lat="44.54187" lon="1.24765">
        <ele>219</ele>
        <time>2024-03-10T16:49:47Z</time>
      </trkpt>
      <trkpt lat="44.54201" lon="1.24826">
        <ele>223</ele>
        <time>2024-03-10T16:49:57Z</time>
      </trkpt>
      <trkpt lat="44.54208" lon="1.24894">
        <ele>229</ele>
        <time>2024-03-10T16:50:09Z</time>
      </trkpt>
      <trkpt lat="44.54202" lon="1.24947">
        <ele>234</ele>
        <time>2024-03-10T16:50:18Z</time>
      </trkpt>
      <trkpt lat="44.54182" lon="1.25038">
        <ele>242</ele>
        <time>2024-03-10T16:50:33Z</time>
      </trkpt>
      <trkpt lat="44.54158" lon="1.25079">
        <ele>245</ele>
        <time>2024-03-10T16:50:42Z</time>
      </trkpt>
      <trkpt lat="44.5414" lon="1.25127">
        <ele>246</ele>
        <time>2024-03-10T16:50:51Z</time>
      </trkpt>
      <trkpt lat="44.54132" lon="1.252">
        <ele>245</ele>
        <time>2024-03-10T16:51:04Z</time>
      </trkpt>
      <trkpt lat="44.54136" lon="1.25238">
        <ele>244</ele>
        <time>2024-03-10T16:51:10Z</time>
      </trkpt>
      <trkpt lat="44.54148" lon="1.25285">
        <ele>242</ele>
        <time>2024-03-10T16:51:18Z</time>
      </trkpt>
      <trkpt lat="44.54178" lon="1.2533">
        <ele>241</ele>
        <time>2024-03-10T16:51:29Z</time>
      </trkpt>
      <trkpt lat="44.54224" lon="1.25442">
        <ele>238</ele>
        <time>2024-03-10T16:51:50Z</time>
      </trkpt>
      <trkpt lat="44.54274" lon="1.25588">
        <ele>243</ele>
        <time>2024-03-10T16:52:17Z</time>
      </trkpt>
      <trkpt lat="44.54278" lon="1.25612">
        <ele>244</ele>
        <time>2024-03-10T16:52:21Z</time>
      </trkpt>
      <trkpt lat="44.54277" lon="1.25643">
        <ele>245</ele>
        <time>2024-03-10T16:52:26Z</time>
      </trkpt>
      <trkpt lat="44.54271" lon="1.2568">
        <ele>247</ele>
        <time>2024-03-10T16:52:33Z</time>
      </trkpt>
      <trkpt lat="44.54282" lon="1.25687">
        <ele>246</ele>
        <time>2024-03-10T16:52:35Z</time>
      </trkpt>
      <trkpt lat="44.54294" lon="1.25729">
        <ele>248</ele>
        <time>2024-03-10T16:52:43Z</time>
      </trkpt>
      <trkpt lat="44.54314" lon="1.2577">
        <ele>249</ele>
        <time>2024-03-10T16:52:51Z</time>
      </trkpt>
      <trkpt lat="44.54323" lon="1.25777">
        <ele>249</ele>
        <time>2024-03-10T16:52:54Z</time>
      </trkpt>
      <trkpt lat="44.54324" lon="1.25812">
        <ele>250</ele>
        <time>2024-03-10T16:52:59Z</time>
      </trkpt>
      <trkpt lat="44.54317" lon="1.2583">
        <ele>251</ele>
        <time>2024-03-10T16:53:03Z</time>
      </trkpt>
      <trkpt lat="44.54251" lon="1.25884">
        <ele>252</ele>
        <time>2024-03-10T16:53:21Z</time>
      </trkpt>
      <trkpt lat="44.54245" lon="1.25901">
        <ele>251</ele>
        <time>2024-03-10T16:53:24Z</time>
      </trkpt>
      <trkpt lat="44.54244" lon="1.25932">
        <ele>249</ele>
        <time>2024-03-10T16:53:29Z</time>
      </trkpt>
      <trkpt lat="44.54251" lon="1.25984">
        <ele>247</ele>
        <time>2024-03-10T16:53:38Z</time>
      </trkpt>
      <trkpt lat="44.54249" lon="1.26023">
        <ele>244</ele>
        <time>2024-03-10T16:53:44Z</time>
      </trkpt>
      <trkpt lat="44.54227" lon="1.26139">
        <ele>234</ele>
        <time>2024-03-10T16:54:04Z</time>
      </trkpt>
      <trkpt lat="44.54203" lon="1.26354">
        <ele>231</ele>
        <time>2024-03-10T16:54:41Z</time>
      </trkpt>
      <trkpt lat="44.54194" lon="1.26372">
        <ele>229</ele>
        <time>2024-03-10T16:54:44Z</time>
      </trkpt>
      <trkpt lat="44.54178" lon="1.26391">
        <ele>227</ele>
        <time>2024-03-10T16:54:49Z</time>
      </trkpt>
      <trkpt lat="44.54176" lon="1.26425">
        <ele>225</ele>
        <time>2024-03-10T16:54:55Z</time>
      </trkpt>
      <trkpt lat="44.54188" lon="1.26494">
        <ele>225</ele>
        <time>2024-03-10T16:55:07Z</time>
      </trkpt>
      <trkpt lat="44.54201" lon="1.26535">
        <ele>229</ele>
        <time>2024-03-10T16:55:14Z</time>
      </trkpt>
      <trkpt lat="44.54223" lon="1.26579">
        <ele>234</ele>
        <time>2024-03-10T16:55:23Z</time>
      </trkpt>
      <trkpt lat="44.54229" lon="1.26621">
        <ele>239</ele>
        <time>2024-03-10T16:55:30Z</time>
      </trkpt>
      <trkpt lat="44.54239" lon="1.26734">
        <ele>254</ele>
        <time>2024-03-10T16:55:49Z</time>
      </trkpt>
      <trkpt lat="44.54251" lon="1.2676">
        <ele>257</ele>
        <time>2024-03-10T16:55:54Z</time>
      </trkpt>
      <trkpt lat="44.54264" lon="1.26805">
        <ele>262</ele>
        <time>2024-03-10T16:56:02Z</time>
      </trkpt>
      <trkpt lat="44.54273" lon="1.2685">
        <ele>268</ele>
        <time>2024-03-10T16:56:10Z</time>
      </trkpt>
      <trkpt lat="44.54275" lon="1.2693">
        <ele>275</ele>
        <time>2024-03-10T16:56:23Z</time>
      </trkpt>
      <trkpt lat="44.543" lon="1.27032">
        <ele>273</ele>
        <time>2024-03-10T16:56:41Z</time>
      </trkpt>
      <trkpt lat="44.54318" lon="1.2704">
        <ele>274</ele>
        <time>2024-03-10T16:56:46Z</time>
      </trkpt>
      <trkpt lat="44.54351" lon="1.27043">
        <ele>276</ele>
        <time>2024-03-10T16:56:54Z</time>
      </trkpt>
      <trkpt lat="44.54377" lon="1.27024">
        <ele>279</ele>
        <time>2024-03-10T16:57:00Z</time>
      </trkpt>
      <trkpt lat="44.54429" lon="1.2701">
        <ele>283</ele>
        <time>2024-03-10T16:57:13Z</time>
      </trkpt>
      <trkpt lat="44.54452" lon="1.27011">
        <ele>284</ele>
        <time>2024-03-10T16:57:18Z</time>
      </trkpt>
      <trkpt lat="44.54469" lon="1.27015">
        <ele>285</ele>
        <time>2024-03-10T16:57:22Z</time>
      </trkpt>
      <trkpt lat="44.5451" lon="1.27032">
        <ele>288</ele>
        <time>2024-03-10T16:57:32Z</time>
      </trkpt>
      <trkpt lat="44.54528" lon="1.27023">
        <ele>289</ele>
        <time>2024-03-10T16:57:37Z</time>
      </trkpt>
      <trkpt lat="44.54551" lon="1.27022">
        <ele>290</ele>
        <time>2024-03-10T16:57:42Z</time>
      </trkpt>
      <trkpt lat="44.54587" lon="1.27065">
        <ele>295</ele>
        <time>2024-03-10T16:57:53Z</time>
      </trkpt>
      <trkpt lat="44.54609" lon="1.27064">
        <ele>296</ele>
        <time>2024-03-10T16:57:58Z</time>
      </trkpt>
      <trkpt lat="44.54645" lon="1.27122">
        <ele>299</ele>
        <time>2024-03-10T16:58:11Z</time>
      </trkpt>
      <trkpt lat="44.54694" lon="1.27212">
        <ele>303</ele>
        <time>2024-03-10T16:58:30Z</time>
      </trkpt>
      <trkpt lat="44.54697" lon="1.27221">
        <ele>304</ele>
        <time>2024-03-10T16:58:31Z</time>
      </trkpt>
      <trkpt lat="44.54697" lon="1.2724">
        <ele>304</ele>
        <time>2024-03-10T16:58:35Z</time>
      </trkpt>
      <trkpt lat="44.54718" lon="1.27296">
        <ele>305</ele>
        <time>2024-03-10T16:58:45Z</time>
      </trkpt>
      <trkpt lat="44.54736" lon="1.27333">
        <ele>307</ele>
        <time>2024-03-10T16:58:53Z</time>
      </trkpt>
      <trkpt lat="44.54834" lon="1.27264">
        <ele>301</ele>
        <time>2024-03-10T16:59:18Z</time>
      </trkpt>
      <trkpt lat="44.54878" lon="1.27243">
        <ele>301</ele>
        <time>2024-03-10T16:59:29Z</time>
      </trkpt>
      <trkpt lat="44.54895" lon="1.27243">
        <ele>301</ele>
        <time>2024-03-10T16:59:33Z</time>
      </trkpt>
      <trkpt lat="44.54939" lon="1.27254">
        <ele>301</ele>
        <time>2024-03-10T16:59:43Z</time>
      </trkpt>
      <trkpt lat="44.54955" lon="1.27279">
        <ele>300</ele>
        <time>2024-03-10T16:59:49Z</time>
      </trkpt>
      <trkpt lat="44.54965" lon="1.2731">
        <ele>298</ele>
        <time>2024-03-10T16:59:55Z</time>
      </trkpt>
      <trkpt lat="44.5498" lon="1.27324">
        <ele>297</ele>
        <time>2024-03-10T16:59:59Z</time>
      </trkpt>
      <trkpt lat="44.55011" lon="1.27344">
        <ele>293</ele>
        <time>2024-03-10T17:00:07Z</time>
      </trkpt>
      <trkpt lat="44.55033" lon="1.27347">
        <ele>292</ele>
        <time>2024-03-10T17:00:12Z</time>
      </trkpt>
      <trkpt lat="44.55054" lon="1.27338">
        <ele>292</ele>
        <time>2024-03-10T17:00:17Z</time>
      </trkpt>
      <trkpt lat="44.55066" lon="1.27341">
        <ele>291</ele>
        <time>2024-03-10T17:00:20Z</time>
      </trkpt>
      <trkpt lat="44.55081" lon="1.27352">
        <ele>289</ele>
        <time>2024-03-10T17:00:24Z</time>
      </trkpt>
      <trkpt lat="44.55094" lon="1.27368">
        <ele>287</ele>
        <time>2024-03-10T17:00:28Z</time>
      </trkpt>
      <trkpt lat="44.55117" lon="1.27337">
        <ele>289</ele>
        <time>2024-03-10T17:00:35Z</time>
      </trkpt>
      <trkpt lat="44.55213" lon="1.2732">
        <ele>288</ele>
        <time>2024-03-10T17:00:58Z</time>
      </trkpt>
      <trkpt lat="44.55255" lon="1.27328">
        <ele>289</ele>
        <time>2024-03-10T17:01:08Z</time>
      </trkpt>
      <trkpt lat="44.55269" lon="1.27337">
        <ele>290</ele>
        <time>2024-03-10T17:01:12Z</time>
      </trkpt>
      <trkpt lat="44.55286" lon="1.27341">
        <ele>290</ele>
        <time>2024-03-10T17:01:16Z</time>
      </trkpt>
      <trkpt lat="44.55299" lon="1.2735">
        <ele>290</ele>
        <time>2024-03-10T17:01:19Z</time>
      </trkpt>
      <trkpt lat="44.55319" lon="1.27374">
        <ele>290</ele>
        <time>2024-03-10T17:01:25Z</time>
      </trkpt>
      <trkpt lat="44.55361" lon="1.27438">
        <ele>288</ele>
        <time>2024-03-10T17:01:40Z</time>
      </trkpt>
      <trkpt lat="44.55469" lon="1.2752">
        <ele>281</ele>
        <time>2024-03-10T17:02:08Z</time>
      </trkpt>
      <trkpt lat="44.55472" lon="1.27602">
        <ele>276</ele>
        <time>2024-03-10T17:02:22Z</time>
      </trkpt>
      <trkpt lat="44.55471" lon="1.27684">
        <ele>274</ele>
        <time>2024-03-10T17:02:36Z</time>
      </trkpt>
      <trkpt lat="44.55458" lon="1.27788">
        <ele>273</ele>
        <time>2024-03-10T17:02:53Z</time>
      </trkpt>
      <trkpt lat="44.55448" lon="1.27835">
        <ele>273</ele>
        <time>2024-03-10T17:03:01Z</time>
      </trkpt>
      <trkpt lat="44.55458" lon="1.27901">
        <ele>274</ele>
        <time>2024-03-10T17:03:13Z</time>
      </trkpt>
      <trkpt lat="44.555" lon="1.28047">
        <ele>279</ele>
        <time>2024-03-10T17:03:39Z</time>
      </trkpt>
      <trkpt lat="44.55502" lon="1.28207">
        <ele>276</ele>
        <time>2024-03-10T17:04:05Z</time>
      </trkpt>
      <trkpt lat="44.55506" lon="1.28258">
        <ele>275</ele>
        <time>2024-03-10T17:04:14Z</time>
      </trkpt>
      <trkpt lat="44.55535" lon="1.28343">
        <ele>272</ele>
        <time>2024-03-10T17:04:30Z</time>
      </trkpt>
      <trkpt lat="44.55539" lon="1.28376">
        <ele>271</ele>
        <time>2024-03-10T17:04:35Z</time>
      </trkpt>
      <trkpt lat="44.55565" lon="1.28379">
        <ele>269</ele>
        <time>2024-03-10T17:04:41Z</time>
      </trkpt>
      <trkpt lat="44.55629" lon="1.28397">
        <ele>262</ele>
        <time>2024-03-10T17:04:56Z</time>
      </trkpt>
      <trkpt lat="44.55695" lon="1.28408">
        <ele>252</ele>
        <time>2024-03-10T17:05:12Z</time>
      </trkpt>
      <trkpt lat="44.55769" lon="1.28397">
        <ele>242</ele>
        <time>2024-03-10T17:05:29Z</time>
      </trkpt>
      <trkpt lat="44.55794" lon="1.28404">
        <ele>241</ele>
        <time>2024-03-10T17:05:35Z</time>
      </trkpt>
      <trkpt lat="44.55809" lon="1.28419">
        <ele>240</ele>
        <time>2024-03-10T17:05:40Z</time>
      </trkpt>
      <trkpt lat="44.5582" lon="1.28454">
        <ele>237</ele>
        <time>2024-03-10T17:05:46Z</time>
      </trkpt>
      <trkpt lat="44.55835" lon="1.28463">
        <ele>236</ele>
        <time>2024-03-10T17:05:50Z</time>
      </trkpt>
      <trkpt lat="44.55846" lon="1.28487">
        <ele>236</ele>
        <time>2024-03-10T17:05:55Z</time>
      </trkpt>
      <trkpt lat="44.55859" lon="1.28501">
        <ele>235</ele>
        <time>2024-03-10T17:05:58Z</time>
      </trkpt>
      <trkpt lat="44.55869" lon="1.28508">
        <ele>235</ele>
        <time>2024-03-10T17:06:01Z</time>
      </trkpt>
      <trkpt lat="44.55883" lon="1.28531">
        <ele>234</ele>
        <time>2024-03-10T17:06:06Z</time>
      </trkpt>
      <trkpt lat="44.55891" lon="1.28552">
        <ele>233</ele>
        <time>2024-03-10T17:06:10Z</time>
      </trkpt>
      <trkpt lat="44.55908" lon="1.28614">
        <ele>231</ele>
        <time>2024-03-10T17:06:21Z</time>
      </trkpt>
      <trkpt lat="44.55922" lon="1.28698">
        <ele>230</ele>
        <time>2024-03-10T17:06:35Z</time>
      </trkpt>
      <trkpt lat="44.55997" lon="1.28743">
        <ele>226</ele>
        <time>2024-03-10T17:06:54Z</time>
      </trkpt>
      <trkpt lat="44.5602" lon="1.28785">
        <ele>220</ele>
        <time>2024-03-10T17:07:03Z</time>
      </trkpt>
      <trkpt lat="44.56038" lon="1.28833">
        <ele>215</ele>
        <time>2024-03-10T17:07:12Z</time>
      </trkpt>
      <trkpt lat="44.56081" lon="1.28874">
        <ele>206</ele>
        <time>2024-03-10T17:07:24Z</time>
      </trkpt>
      <trkpt lat="44.56098" lon="1.28874">
        <ele>203</ele>
        <time>2024-03-10T17:07:28Z</time>
      </trkpt>
      <trkpt lat="44.56139" lon="1.28829">
        <ele>199</ele>
        <time>2024-03-10T17:07:41Z</time>
      </trkpt>
      <trkpt lat="44.56143" lon="1.28882">
        <ele>194</ele>
        <time>2024-03-10T17:07:49Z</time>
      </trkpt>
      <trkpt lat="44.56135" lon="1.28921">
        <ele>192</ele>
        <time>2024-03-10T17:07:56Z</time>
      </trkpt>
      <trkpt lat="44.56142" lon="1.28963">
        <ele>189</ele>
        <time>2024-03-10T17:08:03Z</time>
      </trkpt>
      <trkpt lat="44.56145" lon="1.28996">
        <ele>187</ele>
        <time>2024-03-10T17:08:09Z</time>
      </trkpt>
      <trkpt lat="44.56144" lon="1.29008">
        <ele>187</ele>
        <time>2024-03-10T17:08:11Z</time>
      </trkpt>
      <trkpt lat="44.56116" lon="1.2906">
        <ele>186</ele>
        <time>2024-03-10T17:08:22Z</time>
      </trkpt>
      <trkpt lat="44.56104" lon="1.29089">
        <ele>185</ele>
        <time>2024-03-10T17:08:27Z</time>
      </trkpt>
      <trkpt lat="44.561" lon="1.29114">
        <ele>187</ele>
        <time>2024-03-10T17:08:32Z</time>
      </trkpt>
      <trkpt lat="44.56114" lon="1.29152">
        <ele>189</ele>
        <time>2024-03-10T17:08:39Z</time>
      </trkpt>
      <trkpt lat="44.56096" lon="1.29167">
        <ele>190</ele>
        <time>2024-03-10T17:08:44Z</time>
      </trkpt>
      <trkpt lat="44.56098" lon="1.29194">
        <ele>193</ele>
        <time>2024-03-10T17:08:48Z</time>
      </trkpt>
      <trkpt lat="44.56085" lon="1.29235">
        <ele>199</ele>
        <time>2024-03-10T17:08:56Z</time>
      </trkpt>
      <trkpt lat="44.56078" lon="1.29285">
        <ele>207</ele>
        <time>2024-03-10T17:09:04Z</time>
      </trkpt>
      <trkpt lat="44.56078" lon="1.29299">
        <ele>209</ele>
        <time>2024-03-10T17:09:06Z</time>
      </trkpt>
      <trkpt lat="44.5609" lon="1.29322">
        <ele>210</ele>
        <time>2024-03-10T17:09:11Z</time>
      </trkpt>
      <trkpt lat="44.56097" lon="1.29369">
        <ele>214</ele>
        <time>2024-03-10T17:09:19Z</time>
      </trkpt>
      <trkpt lat="44.561" lon="1.29425">
        <ele>220</ele>
        <time>2024-03-10T17:09:28Z</time>
      </trkpt>
      <trkpt lat="44.56117" lon="1.29487">
        <ele>222</ele>
        <time>2024-03-10T17:09:40Z</time>
      </trkpt>
      <trkpt lat="44.56117" lon="1.29554">
        <ele>225</ele>
        <time>2024-03-10T17:09:51Z</time>
      </trkpt>
      <trkpt lat="44.56127" lon="1.29612">
        <ele>228</ele>
        <time>2024-03-10T17:10:01Z</time>
      </trkpt>
      <trkpt lat="44.56138" lon="1.29629">
        <ele>228</ele>
        <time>2024-03-10T17:10:04Z</time>
      </trkpt>
      <trkpt lat="44.56155" lon="1.29647">
        <ele>228</ele>
        <time>2024-03-10T17:10:09Z</time>
      </trkpt>
      <trkpt lat="44.5617" lon="1.29659">
        <ele>228</ele>
        <time>2024-03-10T17:10:13Z</time>
      </trkpt>
      <trkpt lat="44.56183" lon="1.29699">
        <ele>228</ele>
        <time>2024-03-10T17:10:21Z</time>
      </trkpt>
      <trkpt lat="44.56203" lon="1.2969">
        <ele>227</ele>
        <time>2024-03-10T17:10:26Z</time>
      </trkpt>
      <trkpt lat="44.56219" lon="1.29697">
        <ele>226</ele>
        <time>2024-03-10T17:10:30Z</time>
      </trkpt>
      <trkpt lat="44.56235" lon="1.29699">
        <ele>225</ele>
        <time>2024-03-10T17:10:33Z</time>
      </trkpt>
      <trkpt lat="44.56253" lon="1.29706">
        <ele>224</ele>
        <time>2024-03-10T17:10:38Z</time>
      </trkpt>
      <trkpt lat="44.56291" lon="1.29701">
        <ele>218</ele>
        <time>2024-03-10T17:10:47Z</time>
      </trkpt>
      <trkpt lat="44.56318" lon="1.29717">
        <ele>215</ele>
        <time>2024-03-10T17:10:53Z</time>
      </trkpt>
      <trkpt lat="44.56396" lon="1.29724">
        <ele>206</ele>
        <time>2024-03-10T17:11:12Z</time>
      </trkpt>
      <trkpt lat="44.56437" lon="1.29721">
        <ele>204</ele>
        <time>2024-03-10T17:11:21Z</time>
      </trkpt>
      <trkpt lat="44.56475" lon="1.29705">
        <ele>206</ele>
        <time>2024-03-10T17:11:31Z</time>
      </trkpt>
      <trkpt lat="44.56528" lon="1.29689">
        <ele>211</ele>
        <time>2024-03-10T17:11:43Z</time>
      </trkpt>
      <trkpt lat="44.56556" lon="1.29672">
        <ele>214</ele>
        <time>2024-03-10T17:11:50Z</time>
      </trkpt>
      <trkpt lat="44.56575" lon="1.29664">
        <ele>217</ele>
        <time>2024-03-10T17:11:55Z</time>
      </trkpt>
      <trkpt lat="44.56617" lon="1.29665">
        <ele>220</ele>
        <time>2024-03-10T17:12:05Z</time>
      </trkpt>
      <trkpt lat="44.56654" lon="1.29663">
        <ele>222</ele>
        <time>2024-03-10T17:12:13Z</time>
      </trkpt>
      <trkpt lat="44.5669" lon="1.2965">
        <ele>224</ele>
        <time>2024-03-10T17:12:22Z</time>
      </trkpt>
      <trkpt lat="44.56687" lon="1.2967">
        <ele>225</ele>
        <time>2024-03-10T17:12:25Z</time>
      </trkpt>
      <trkpt lat="44.56689" lon="1.29699">
        <ele>223</ele>
        <time>2024-03-10T17:12:30Z</time>
      </trkpt>
      <trkpt lat="44.56703" lon="1.29792">
        <ele>223</ele>
        <time>2024-03-10T17:12:46Z</time>
      </trkpt>
      <trkpt lat="44.56724" lon="1.29829">
        <ele>225</ele>
        <time>2024-03-10T17:12:54Z</time>
      </trkpt>
      <trkpt lat="44.5674" lon="1.29875">
        <ele>228</ele>
        <time>2024-03-10T17:13:03Z</time>
      </trkpt>
      <trkpt lat="44.56811" lon="1.2994">
        <ele>235</ele>
        <time>2024-03-10T17:13:22Z</time>
      </trkpt>
      <trkpt lat="44.56852" lon="1.29993">
        <ele>239</ele>
        <time>2024-03-10T17:13:35Z</time>
      </trkpt>
      <trkpt lat="44.56873" lon="1.30047">
        <ele>241</ele>
        <time>2024-03-10T17:13:46Z</time>
      </trkpt>
      <trkpt lat="44.56875" lon="1.3008">
        <ele>242</ele>
        <time>2024-03-10T17:13:51Z</time>
      </trkpt>
      <trkpt lat="44.5688" lon="1.301">
        <ele>243</ele>
        <time>2024-03-10T17:13:55Z</time>
      </trkpt>
      <trkpt lat="44.56896" lon="1.30138">
        <ele>244</ele>
        <time>2024-03-10T17:14:02Z</time>
      </trkpt>
      <trkpt lat="44.56935" lon="1.30215">
        <ele>248</ele>
        <time>2024-03-10T17:14:18Z</time>
      </trkpt>
      <trkpt lat="44.56941" lon="1.30223">
        <ele>249</ele>
        <time>2024-03-10T17:14:20Z</time>
      </trkpt>
      <trkpt lat="44.56953" lon="1.3022">
        <ele>249</ele>
        <time>2024-03-10T17:14:22Z</time>
      </trkpt>
      <trkpt lat="44.57019" lon="1.30124">
        <ele>253</ele>
        <time>2024-03-10T17:14:45Z</time>
      </trkpt>
      <trkpt lat="44.57074" lon="1.3001">
        <ele>257</ele>
        <time>2024-03-10T17:15:08Z</time>
      </trkpt>
      <trkpt lat="44.57098" lon="1.29981">
        <ele>257</ele>
        <time>2024-03-10T17:15:15Z</time>
      </trkpt>
      <trkpt lat="44.57115" lon="1.29966">
        <ele>255</ele>
        <time>2024-03-10T17:15:20Z</time>
      </trkpt>
      <trkpt lat="44.57136" lon="1.29951">
        <ele>253</ele>
        <time>2024-03-10T17:15:25Z</time>
      </trkpt>
      <trkpt lat="44.57168" lon="1.29937">
        <ele>251</ele>
        <time>2024-03-10T17:15:33Z</time>
      </trkpt>
      <trkpt lat="44.572" lon="1.29929">
        <ele>249</ele>
        <time>2024-03-10T17:15:41Z</time>
      </trkpt>
      <trkpt lat="44.57225" lon="1.2993">
        <ele>249</ele>
        <time>2024-03-10T17:15:46Z</time>
      </trkpt>
      <trkpt lat="44.57259" lon="1.29941">
        <ele>250</ele>
        <time>2024-03-10T17:15:55Z</time>
      </trkpt>
      <trkpt lat="44.57277" lon="1.29939">
        <ele>250</ele>
        <time>2024-03-10T17:15:59Z</time>
      </trkpt>
      <trkpt lat="44.57283" lon="1.29933">
        <ele>250</ele>
        <time>2024-03-10T17:16:01Z</time>
      </trkpt>
      <trkpt lat="44.57289" lon="1.29922">
        <ele>250</ele>
        <time>2024-03-10T17:16:03Z</time>
      </trkpt>
      <trkpt lat="44.57299" lon="1.29851">
        <ele>251</ele>
        <time>2024-03-10T17:16:15Z</time>
      </trkpt>
      <trkpt lat="44.57308" lon="1.29826">
        <ele>252</ele>
        <time>2024-03-10T17:16:20Z</time>
      </trkpt>
      <trkpt lat="44.57366" lon="1.29749">
        <ele>256</ele>
        <time>2024-03-10T17:16:38Z</time>
      </trkpt>
      <trkpt lat="44.57389" lon="1.29729">
        <ele>256</ele>
        <time>2024-03-10T17:16:44Z</time>
      </trkpt>
      <trkpt lat="44.5741" lon="1.29717">
        <ele>257</ele>
        <time>2024-03-10T17:16:50Z</time>
      </trkpt>
      <trkpt lat="44.57471" lon="1.29705">
        <ele>261</ele>
        <time>2024-03-10T17:17:04Z</time>
      </trkpt>
      <trkpt lat="44.57517" lon="1.29686">
        <ele>263</ele>
        <time>2024-03-10T17:17:15Z</time>
      </trkpt>
      <trkpt lat="44.57655" lon="1.29557">
        <ele>263</ele>
        <time>2024-03-10T17:17:54Z</time>
      </trkpt>
      <trkpt lat="44.5774" lon="1.29482">
        <ele>268</ele>
        <time>2024-03-10T17:18:18Z</time>
      </trkpt>
      <trkpt lat="44.57794" lon="1.29447">
        <ele>271</ele>
        <time>2024-03-10T17:18:31Z</time>
      </trkpt>
      <trkpt lat="44.57806" lon="1.29477">
        <ele>274</ele>
        <time>2024-03-10T17:18:37Z</time>
      </trkpt>
      <trkpt lat="44.57821" lon="1.295">
        <ele>277</ele>
        <time>2024-03-10T17:18:42Z</time>
      </trkpt>
      <trkpt lat="44.57891" lon="1.29585">
        <ele>284</ele>
        <time>2024-03-10T17:19:04Z</time>
      </trkpt>
      <trkpt lat="44.57923" lon="1.29602">
        <ele>286</ele>
        <time>2024-03-10T17:19:12Z</time>
      </trkpt>
      <trkpt lat="44.57917" lon="1.2963">
        <ele>287</ele>
        <time>2024-03-10T17:19:17Z</time>
      </trkpt>
      <trkpt lat="44.57938" lon="1.29643">
        <ele>287</ele>
        <time>2024-03-10T17:19:22Z</time>
      </trkpt>
      <trkpt lat="44.57967" lon="1.29608">
        <ele>286</ele>
        <time>2024-03-10T17:19:31Z</time>
      </trkpt>
      <trkpt lat="44.57957" lon="1.29588">
        <ele>286</ele>
        <time>2024-03-10T17:19:35Z</time>
      </trkpt>
      <trkpt lat="44.57954" lon="1.29556">
        <ele>285</ele>
        <time>2024-03-10T17:19:41Z</time>
      </trkpt>
      <trkpt lat="44.5797" lon="1.29521">
        <ele>284</ele>
        <time>2024-03-10T17:19:47Z</time>
      </trkpt>
      <trkpt lat="44.57999" lon="1.29525">
        <ele>285</ele>
        <time>2024-03-10T17:19:54Z</time>
      </trkpt>
      <trkpt lat="44.5803" lon="1.29502">
        <ele>282</ele>
        <time>2024-03-10T17:20:02Z</time>
      </trkpt>
      <trkpt lat="44.58075" lon="1.29427">
        <ele>279</ele>
        <time>2024-03-10T17:20:19Z</time>
      </trkpt>
      <trkpt lat="44.58118" lon="1.29386">
        <ele>278</ele>
        <time>2024-03-10T17:20:31Z</time>
      </trkpt>
      <trkpt lat="44.58138" lon="1.29376">
        <ele>276</ele>
        <time>2024-03-10T17:20:36Z</time>
      </trkpt>
      <trkpt lat="44.58213" lon="1.2933">
        <ele>276</ele>
        <time>2024-03-10T17:20:55Z</time>
      </trkpt>
      <trkpt lat="44.58255" lon="1.29268">
        <ele>276</ele>
        <time>2024-03-10T17:21:09Z</time>
      </trkpt>
      <trkpt lat="44.58287" lon="1.29259">
        <ele>276</ele>
        <time>2024-03-10T17:21:17Z</time>
      </trkpt>
      <trkpt lat="44.58321" lon="1.29229">
        <ele>274</ele>
        <time>2024-03-10T17:21:26Z</time>
      </trkpt>
      <trkpt lat="44.58319" lon="1.29209">
        <ele>273</ele>
        <time>2024-03-10T17:21:30Z</time>
      </trkpt>
      <trkpt lat="44.58306" lon="1.29192">
        <ele>273</ele>
        <time>2024-03-10T17:21:34Z</time>
      </trkpt>
      <trkpt lat="44.58301" lon="1.29168">
        <ele>271</ele>
        <time>2024-03-10T17:21:38Z</time>
      </trkpt>
      <trkpt lat="44.58331" lon="1.29106">
        <ele>269</ele>
        <time>2024-03-10T17:21:50Z</time>
      </trkpt>
      <trkpt lat="44.58357" lon="1.29092">
        <ele>268</ele>
        <time>2024-03-10T17:21:57Z</time>
      </trkpt>
      <trkpt lat="44.58385" lon="1.29031">
        <ele>266</ele>
        <time>2024-03-10T17:22:09Z</time>
      </trkpt>
      <trkpt lat="44.58426" lon="1.28964">
        <ele>267</ele>
        <time>2024-03-10T17:22:24Z</time>
      </trkpt>
      <trkpt lat="44.58507" lon="1.28899">
        <ele>270</ele>
        <time>2024-03-10T17:22:45Z</time>
      </trkpt>
      <trkpt lat="44.58533" lon="1.28869">
        <ele>270</ele>
        <time>2024-03-10T17:22:53Z</time>
      </trkpt>
      <trkpt lat="44.5856" lon="1.28813">
        <ele>269</ele>
        <time>2024-03-10T17:23:04Z</time>
      </trkpt>
      <trkpt lat="44.5859" lon="1.28734">
        <ele>268</ele>
        <time>2024-03-10T17:23:19Z</time>
      </trkpt>
      <trkpt lat="44.58676" lon="1.28556">
        <ele>269</ele>
        <time>2024-03-10T17:23:55Z</time>
      </trkpt>
      <trkpt lat="44.58699" lon="1.28494">
        <ele>271</ele>
        <time>2024-03-10T17:24:07Z</time>
      </trkpt>
      <trkpt lat="44.5856" lon="1.28429">
        <ele>278</ele>
        <time>2024-03-10T17:24:41Z</time>
      </trkpt>
      <trkpt lat="44.58515" lon="1.2842">
        <ele>283</ele>
        <time>2024-03-10T17:24:52Z</time>
      </trkpt>
      <trkpt lat="44.58436" lon="1.28382">
        <ele>288</ele>
        <time>2024-03-10T17:25:11Z</time>
      </trkpt>
      <trkpt lat="44.58423" lon="1.28342">
        <ele>292</ele>
        <time>2024-03-10T17:25:18Z</time>
      </trkpt>
      <trkpt lat="44.58413" lon="1.28324">
        <ele>294</ele>
        <time>2024-03-10T17:25:22Z</time>
      </trkpt>
      <trkpt lat="44.5839" lon="1.283">
        <ele>296</ele>
        <time>2024-03-10T17:25:29Z</time>
      </trkpt>
      <trkpt lat="44.58405" lon="1.2827">
        <ele>295</ele>
        <time>2024-03-10T17:25:35Z</time>
      </trkpt>
      <trkpt lat="44.58409" lon="1.28192">
        <ele>297</ele>
        <time>2024-03-10T17:25:48Z</time>
      </trkpt>
      <trkpt lat="44.58423" lon="1.28141">
        <ele>297</ele>
        <time>2024-03-10T17:25:57Z</time>
      </trkpt>
      <trkpt lat="44.58426" lon="1.28119">
        <ele>297</ele>
        <time>2024-03-10T17:26:01Z</time>
      </trkpt>
      <trkpt lat="44.58424" lon="1.28104">
        <ele>297</ele>
        <time>2024-03-10T17:26:03Z</time>
      </trkpt>
      <trkpt lat="44.58414" lon="1.28088">
        <ele>298</ele>
        <time>2024-03-10T17:26:07Z</time>
      </trkpt>
      <trkpt lat="44.58344" lon="1.28048">
        <ele>299</ele>
        <time>2024-03-10T17:26:25Z</time>
      </trkpt>
      <trkpt lat="44.58376" lon="1.28017">
        <ele>299</ele>
        <time>2024-03-10T17:26:34Z</time>
      </trkpt>
      <trkpt lat="44.58413" lon="1.28">
        <ele>300</ele>
        <time>2024-03-10T17:26:43Z</time>
      </trkpt>
      <trkpt lat="44.58474" lon="1.27947">
        <ele>298</ele>
        <time>2024-03-10T17:26:59Z</time>
      </trkpt>
      <trkpt lat="44.5849" lon="1.2792">
        <ele>299</ele>
        <time>2024-03-10T17:27:05Z</time>
      </trkpt>
      <trkpt lat="44.58519" lon="1.27858">
        <ele>297</ele>
        <time>2024-03-10T17:27:18Z</time>
      </trkpt>
      <trkpt lat="44.58537" lon="1.278">
        <ele>297</ele>
        <time>2024-03-10T17:27:28Z</time>
      </trkpt>
      <trkpt lat="44.58543" lon="1.27763">
        <ele>298</ele>
        <time>2024-03-10T17:27:34Z</time>
      </trkpt>
      <trkpt lat="44.58611" lon="1.27697">
        <ele>303</ele>
        <time>2024-03-10T17:27:54Z</time>
      </trkpt>
      <trkpt lat="44.58643" lon="1.27653">
        <ele>305</ele>
        <time>2024-03-10T17:28:04Z</time>
      </trkpt>
      <trkpt lat="44.58671" lon="1.27628">
        <ele>305</ele>
        <time>2024-03-10T17:28:12Z</time>
      </trkpt>
      <trkpt lat="44.58695" lon="1.27609">
        <ele>303</ele>
        <time>2024-03-10T17:28:18Z</time>
      </trkpt>
      <trkpt lat="44.58723" lon="1.27602">
        <ele>301</ele>
        <time>2024-03-10T17:28:25Z</time>
      </trkpt>
      <trkpt lat="44.58757" lon="1.2759">
        <ele>299</ele>
        <time>2024-03-10T17:28:33Z</time>
      </trkpt>
      <trkpt lat="44.58799" lon="1.27545">
        <ele>299</ele>
        <time>2024-03-10T17:28:46Z</time>
      </trkpt>
      <trkpt lat="44.58823" lon="1.27508">
        <ele>300</ele>
        <time>2024-03-10T17:28:54Z</time>
      </trkpt>
      <trkpt lat="44.58902" lon="1.27426">
        <ele>303</ele>
        <time>2024-03-10T17:29:17Z</time>
      </trkpt>
      <trkpt lat="44.58928" lon="1.27394">
        <ele>303</ele>
        <time>2024-03-10T17:29:25Z</time>
      </trkpt>
      <trkpt lat="44.58943" lon="1.27352">
        <ele>300</ele>
        <time>2024-03-10T17:29:33Z</time>
      </trkpt>
      <trkpt lat="44.58968" lon="1.27263">
        <ele>296</ele>
        <time>2024-03-10T17:29:49Z</time>
      </trkpt>
      <trkpt lat="44.58948" lon="1.27253">
        <ele>295</ele>
        <time>2024-03-10T17:29:54Z</time>
      </trkpt>
      <trkpt lat="44.58912" lon="1.27218">
        <ele>293</ele>
        <time>2024-03-10T17:30:04Z</time>
      </trkpt>
      <trkpt lat="44.58903" lon="1.272">
        <ele>293</ele>
        <time>2024-03-10T17:30:07Z</time>
      </trkpt>
      <trkpt lat="44.58899" lon="1.27181">
        <ele>293</ele>
        <time>2024-03-10T17:30:11Z</time>
      </trkpt>
      <trkpt lat="44.58902" lon="1.27133">
        <ele>294</ele>
        <time>2024-03-10T17:30:19Z</time>
      </trkpt>
      <trkpt lat="44.58886" lon="1.27059">
        <ele>295</ele>
        <time>2024-03-10T17:30:32Z</time>
      </trkpt>
      <trkpt lat="44.58848" lon="1.26995">
        <ele>295</ele>
        <time>2024-03-10T17:30:46Z</time>
      </trkpt>
      <trkpt lat="44.58821" lon="1.26959">
        <ele>292</ele>
        <time>2024-03-10T17:30:54Z</time>
      </trkpt>
      <trkpt lat="44.58805" lon="1.26898">
        <ele>288</ele>
        <time>2024-03-10T17:31:05Z</time>
      </trkpt>
      <trkpt lat="44.58781" lon="1.26857">
        <ele>283</ele>
        <time>2024-03-10T17:31:14Z</time>
      </trkpt>
      <trkpt lat="44.58777" lon="1.26825">
        <ele>283</ele>
        <time>2024-03-10T17:31:19Z</time>
      </trkpt>
      <trkpt lat="44.58761" lon="1.26753">
        <ele>285</ele>
        <time>2024-03-10T17:31:32Z</time>
      </trkpt>
      <trkpt lat="44.58772" lon="1.26642">
        <ele>282</ele>
        <time>2024-03-10T17:31:50Z</time>
      </trkpt>
      <trkpt lat="44.58781" lon="1.26614">
        <ele>280</ele>
        <time>2024-03-10T17:31:56Z</time>
      </trkpt>
      <trkpt lat="44.58792" lon="1.26594">
        <ele>279</ele>
        <time>2024-03-10T17:32:00Z</time>
      </trkpt>
      <trkpt lat="44.58843" lon="1.26536">
        <ele>271</ele>
        <time>2024-03-10T17:32:15Z</time>
      </trkpt>
      <trkpt lat="44.58846" lon="1.26526">
        <ele>269</ele>
        <time>2024-03-10T17:32:17Z</time>
      </trkpt>
      <trkpt lat="44.58838" lon="1.26455">
        <ele>263</ele>
        <time>2024-03-10T17:32:29Z</time>
      </trkpt>
      <trkpt lat="44.58844" lon="1.26422">
        <ele>260</ele>
        <time>2024-03-10T17:32:34Z</time>
      </trkpt>
      <trkpt lat="44.58891" lon="1.26381">
        <ele>262</ele>
        <time>2024-03-10T17:32:47Z</time>
      </trkpt>
      <trkpt lat="44.58904" lon="1.26355">
        <ele>263</ele>
        <time>2024-03-10T17:32:53Z</time>
      </trkpt>
      <trkpt lat="44.58923" lon="1.26313">
        <ele>266</ele>
        <time>2024-03-10T17:33:01Z</time>
      </trkpt>
      <trkpt lat="44.58936" lon="1.26272">
        <ele>270</ele>
        <time>2024-03-10T17:33:08Z</time>
      </trkpt>
      <trkpt lat="44.58947" lon="1.26213">
        <ele>273</ele>
        <time>2024-03-10T17:33:19Z</time>
      </trkpt>
      <trkpt lat="44.58954" lon="1.26193">
        <ele>275</ele>
        <time>2024-03-10T17:33:22Z</time>
      </trkpt>
      <trkpt lat="44.58979" lon="1.26143">
        <ele>281</ele>
        <time>2024-03-10T17:33:32Z</time>
      </trkpt>
      <trkpt lat="44.58989" lon="1.26112">
        <ele>283</ele>
        <time>2024-03-10T17:33:38Z</time>
      </trkpt>
      <trkpt lat="44.59071" lon="1.25969">
        <ele>292</ele>
        <time>2024-03-10T17:34:09Z</time>
      </trkpt>
      <trkpt lat="44.59083" lon="1.25959">
        <ele>293</ele>
        <time>2024-03-10T17:34:12Z</time>
      </trkpt>
      <trkpt lat="44.59097" lon="1.25952">
        <ele>293</ele>
        <time>2024-03-10T17:34:15Z</time>
      </trkpt>
      <trkpt lat="44.59111" lon="1.25953">
        <ele>294</ele>
        <time>2024-03-10T17:34:19Z</time>
      </trkpt>
      <trkpt lat="44.59088" lon="1.258">
        <ele>290</ele>
        <time>2024-03-10T17:34:45Z</time>
      </trkpt>
      <trkpt lat="44.59067" lon="1.25741">
        <ele>290</ele>
        <time>2024-03-10T17:34:56Z</time>
      </trkpt>
      <trkpt lat="44.59066" lon="1.25731">
        <ele>290</ele>
        <time>2024-03-10T17:34:57Z</time>
      </trkpt>
      <trkpt lat="44.59075" lon="1.25707">
        <ele>291</ele>
        <time>2024-03-10T17:35:02Z</time>
      </trkpt>
      <trkpt lat="44.5908" lon="1.25683">
        <ele>291</ele>
        <time>2024-03-10T17:35:06Z</time>
      </trkpt>
      <trkpt lat="44.59085" lon="1.25671">
        <ele>292</ele>
        <time>2024-03-10T17:35:08Z</time>
      </trkpt>
      <trkpt lat="44.59119" lon="1.25649">
        <ele>287</ele>
        <time>2024-03-10T17:35:17Z</time>
      </trkpt>
      <trkpt lat="44.59131" lon="1.25605">
        <ele>286</ele>
        <time>2024-03-10T17:35:25Z</time>
      </trkpt>
      <trkpt lat="44.59163" lon="1.25533">
        <ele>284</ele>
        <time>2024-03-10T17:35:39Z</time>
      </trkpt>
      <trkpt lat="44.59211" lon="1.25455">
        <ele>276</ele>
        <time>2024-03-10T17:35:56Z</time>
      </trkpt>
      <trkpt lat="44.59239" lon="1.25403">
        <ele>270</ele>
        <time>2024-03-10T17:36:07Z</time>
      </trkpt>
      <trkpt lat="44.59287" lon="1.25335">
        <ele>257</ele>
        <time>2024-03-10T17:36:23Z</time>
      </trkpt>
      <trkpt lat="44.59316" lon="1.25273">
        <ele>248</ele>
        <time>2024-03-10T17:36:35Z</time>
      </trkpt>
      <trkpt lat="44.59356" lon="1.25171">
        <ele>237</ele>
        <time>2024-03-10T17:36:55Z</time>
      </trkpt>
      <trkpt lat="44.59363" lon="1.25123">
        <ele>234</ele>
        <time>2024-03-10T17:37:03Z</time>
      </trkpt>
      <trkpt lat="44.59386" lon="1.2505">
        <ele>230</ele>
        <time>2024-03-10T17:37:16Z</time>
      </trkpt>
      <trkpt lat="44.59409" lon="1.25029">
        <ele>229</ele>
        <time>2024-03-10T17:37:22Z</time>
      </trkpt>
      <trkpt lat="44.59433" lon="1.25016">
        <ele>226</ele>
        <time>2024-03-10T17:37:28Z</time>
      </trkpt>
      <trkpt lat="44.59454" lon="1.25014">
        <ele>222</ele>
        <time>2024-03-10T17:37:33Z</time>
      </trkpt>
      <trkpt lat="44.59478" lon="1.25006">
        <ele>218</ele>
        <time>2024-03-10T17:37:39Z</time>
      </trkpt>
      <trkpt lat="44.59529" lon="1.24972">
        <ele>208</ele>
        <time>2024-03-10T17:37:52Z</time>
      </trkpt>
      <trkpt lat="44.59563" lon="1.24911">
        <ele>200</ele>
        <time>2024-03-10T17:38:05Z</time>
      </trkpt>
      <trkpt lat="44.59585" lon="1.24858">
        <ele>191</ele>
        <time>2024-03-10T17:38:15Z</time>
      </trkpt>
      <trkpt lat="44.59598" lon="1.24869">
        <ele>190</ele>
        <time>2024-03-10T17:38:19Z</time>
      </trkpt>
      <trkpt lat="44.59609" lon="1.24869">
        <ele>188</ele>
        <time>2024-03-10T17:38:21Z</time>
      </trkpt>
      <trkpt lat="44.59618" lon="1.24864">
        <ele>186</ele>
        <time>2024-03-10T17:38:24Z</time>
      </trkpt>
      <trkpt lat="44.59642" lon="1.24814">
        <ele>181</ele>
        <time>2024-03-10T17:38:34Z</time>
      </trkpt>
      <trkpt lat="44.59652" lon="1.248">
        <ele>179</ele>
        <time>2024-03-10T17:38:37Z</time>
      </trkpt>
      <trkpt lat="44.59657" lon="1.24781">
        <ele>178</ele>
        <time>2024-03-10T17:38:40Z</time>
      </trkpt>
      <trkpt lat="44.59674" lon="1.24755">
        <ele>177</ele>
        <time>2024-03-10T17:38:46Z</time>
      </trkpt>
      <trkpt lat="44.59688" lon="1.2474">
        <ele>176</ele>
        <time>2024-03-10T17:38:50Z</time>
      </trkpt>
      <trkpt lat="44.59695" lon="1.24727">
        <ele>176</ele>
        <time>2024-03-10T17:38:53Z</time>
      </trkpt>
      <trkpt lat="44.59733" lon="1.24687">
        <ele>176</ele>
        <time>2024-03-10T17:39:04Z</time>
      </trkpt>
      <trkpt lat="44.59804" lon="1.24706">
        <ele>172</ele>
        <time>2024-03-10T17:39:21Z</time>
      </trkpt>
      <trkpt lat="44.59838" lon="1.24725">
        <ele>171</ele>
        <time>2024-03-10T17:39:30Z</time>
      </trkpt>
      <trkpt lat="44.59879" lon="1.24773">
        <ele>170</ele>
        <time>2024-03-10T17:39:42Z</time>
      </trkpt>
      <trkpt lat="44.59959" lon="1.24849">
        <ele>174</ele>
        <time>2024-03-10T17:40:05Z</time>
      </trkpt>
      <trkpt lat="44.59976" lon="1.24856">
        <ele>176</ele>
        <time>2024-03-10T17:40:09Z</time>
      </trkpt>
      <trkpt lat="44.59975" lon="1.24868">
        <ele>177</ele>
        <time>2024-03-10T17:40:11Z</time>
      </trkpt>
      <trkpt lat="44.59988" lon="1.24925">
        <ele>182</ele>
        <time>2024-03-10T17:40:21Z</time>
      </trkpt>
      <trkpt lat="44.59992" lon="1.24953">
        <ele>183</ele>
        <time>2024-03-10T17:40:26Z</time>
      </trkpt>
      <trkpt lat="44.5999" lon="1.25037">
        <ele>187</ele>
        <time>2024-03-10T17:40:39Z</time>
      </trkpt>
      <trkpt lat="44.59942" lon="1.25077">
        <ele>181</ele>
        <time>2024-03-10T17:40:53Z</time>
      </trkpt>
      <trkpt lat="44.5993" lon="1.25148">
        <ele>185</ele>
        <time>2024-03-10T17:41:05Z</time>
      </trkpt>
      <trkpt lat="44.59865" lon="1.25294">
        <ele>197</ele>
        <time>2024-03-10T17:41:33Z</time>
      </trkpt>
      <trkpt lat="44.59853" lon="1.25371">
        <ele>195</ele>
        <time>2024-03-10T17:41:46Z</time>
      </trkpt>
      <trkpt lat="44.59873" lon="1.25433">
        <ele>194</ele>
        <time>2024-03-10T17:41:58Z</time>
      </trkpt>
      <trkpt lat="44.59912" lon="1.2549">
        <ele>190</ele>
        <time>2024-03-10T17:42:11Z</time>
      </trkpt>
      <trkpt lat="44.59973" lon="1.2548">
        <ele>197</ele>
        <time>2024-03-10T17:42:25Z</time>
      </trkpt>
      <trkpt lat="44.60125" lon="1.25396">
        <ele>202</ele>
        <time>2024-03-10T17:43:03Z</time>
      </trkpt>
      <trkpt lat="44.60158" lon="1.25395">
        <ele>200</ele>
        <time>2024-03-10T17:43:11Z</time>
      </trkpt>
      <trkpt lat="44.60202" lon="1.25336">
        <ele>202</ele>
        <time>2024-03-10T17:43:25Z</time>
      </trkpt>
      <trkpt lat="44.60251" lon="1.2519">
        <ele>210</ele>
        <time>2024-03-10T17:43:52Z</time>
      </trkpt>
      <trkpt lat="44.60289" lon="1.25131">
        <ele>211</ele>
        <time>2024-03-10T17:44:05Z</time>
      </trkpt>
      <trkpt lat="44.60275" lon="1.25136">
        <ele>212</ele>
        <time>2024-03-10T17:44:09Z</time>
      </trkpt>
      <trkpt lat="44.60236" lon="1.25174">
        <ele>213</ele>
        <time>2024-03-10T17:44:20Z</time>
      </trkpt>
      <trkpt lat="44.60214" lon="1.25189">
        <ele>214</ele>
        <time>2024-03-10T17:44:25Z</time>
      </trkpt>
      <trkpt lat="44.60192" lon="1.252">
        <ele>215</ele>
        <time>2024-03-10T17:44:31Z</time>
      </trkpt>
      <trkpt lat="44.60174" lon="1.25204">
        <ele>216</ele>
        <time>2024-03-10T17:44:35Z</time>
      </trkpt>
      <trkpt lat="44.60168" lon="1.25176">
        <ele>221</ele>
        <time>2024-03-10T17:44:40Z</time>
      </trkpt>
      <trkpt lat="44.60159" lon="1.25153">
        <ele>222</ele>
        <time>2024-03-10T17:44:44Z</time>
      </trkpt>
      <trkpt lat="44.60179" lon="1.25136">
        <ele>222</ele>
        <time>2024-03-10T17:44:50Z</time>
      </trkpt>
      <trkpt lat="44.6019" lon="1.25088">
        <ele>224</ele>
        <time>2024-03-10T17:44:58Z</time>
      </trkpt>
      <trkpt lat="44.60201" lon="1.25058">
        <ele>221</ele>
        <time>2024-03-10T17:45:04Z</time>
      </trkpt>
      <trkpt lat="44.60213" lon="1.25049">
        <ele>220</ele>
        <time>2024-03-10T17:45:07Z</time>
      </trkpt>
      <trkpt lat="44.60238" lon="1.25052">
        <ele>218</ele>
        <time>2024-03-10T17:45:13Z</time>
      </trkpt>
      <trkpt lat="44.60276" lon="1.25062">
        <ele>215</ele>
        <time>2024-03-10T17:45:22Z</time>
      </trkpt>
      <trkpt lat="44.60325" lon="1.25069">
        <ele>210</ele>
        <time>2024-03-10T17:45:33Z</time>
      </trkpt>
      <trkpt lat="44.60357" lon="1.25079">
        <ele>208</ele>
        <time>2024-03-10T17:45:41Z</time>
      </trkpt>
      <trkpt lat="44.60389" lon="1.25084">
        <ele>208</ele>
        <time>2024-03-10T17:45:49Z</time>
      </trkpt>
      <trkpt lat="44.60422" lon="1.25072">
        <ele>206</ele>
        <time>2024-03-10T17:45:57Z</time>
      </trkpt>
      <trkpt lat="44.60442" lon="1.25075">
        <ele>205</ele>
        <time>2024-03-10T17:46:01Z</time>
      </trkpt>
      <trkpt lat="44.60466" lon="1.25098">
        <ele>205</ele>
        <time>2024-03-10T17:46:08Z</time>
      </trkpt>
      <trkpt lat="44.60501" lon="1.25146">
        <ele>205</ele>
        <time>2024-03-10T17:46:19Z</time>
      </trkpt>
      <trkpt lat="44.60513" lon="1.25156">
        <ele>206</ele>
        <time>2024-03-10T17:46:23Z</time>
      </trkpt>
      <trkpt lat="44.60547" lon="1.25165">
        <ele>208</ele>
        <time>2024-03-10T17:46:31Z</time>
      </trkpt>
      <trkpt lat="44.60557" lon="1.25177">
        <ele>210</ele>
        <time>2024-03-10T17:46:34Z</time>
      </trkpt>
      <trkpt lat="44.60563" lon="1.25216">
        <ele>213</ele>
        <time>2024-03-10T17:46:41Z</time>
      </trkpt>
      <trkpt lat="44.60563" lon="1.2526">
        <ele>217</ele>
        <time>2024-03-10T17:46:48Z</time>
      </trkpt>
      <trkpt lat="44.60572" lon="1.25313">
        <ele>220</ele>
        <time>2024-03-10T17:46:57Z</time>
      </trkpt>
      <trkpt lat="44.60569" lon="1.25387">
        <ele>222</ele>
        <time>2024-03-10T17:47:09Z</time>
      </trkpt>
      <trkpt lat="44.60574" lon="1.25419">
        <ele>222</ele>
        <time>2024-03-10T17:47:15Z</time>
      </trkpt>
      <trkpt lat="44.60581" lon="1.25444">
        <ele>222</ele>
        <time>2024-03-10T17:47:19Z</time>
      </trkpt>
      <trkpt lat="44.60645" lon="1.25509">
        <ele>227</ele>
        <time>2024-03-10T17:47:38Z</time>
      </trkpt>
      <trkpt lat="44.60694" lon="1.25523">
        <ele>231</ele>
        <time>2024-03-10T17:47:49Z</time>
      </trkpt>
      <trkpt lat="44.6071" lon="1.25533">
        <ele>232</ele>
        <time>2024-03-10T17:47:53Z</time>
      </trkpt>
      <trkpt lat="44.60818" lon="1.2568">
        <ele>237</ele>
        <time>2024-03-10T17:48:28Z</time>
      </trkpt>
      <trkpt lat="44.60826" lon="1.25696">
        <ele>236</ele>
        <time>2024-03-10T17:48:32Z</time>
      </trkpt>
      <trkpt lat="44.60839" lon="1.25712">
        <ele>237</ele>
        <time>2024-03-10T17:48:36Z</time>
      </trkpt>
      <trkpt lat="44.60863" lon="1.25726">
        <ele>239</ele>
        <time>2024-03-10T17:48:42Z</time>
      </trkpt>
      <trkpt lat="44.60922" lon="1.25738">
        <ele>242</ele>
        <time>2024-03-10T17:48:56Z</time>
      </trkpt>
      <trkpt lat="44.60944" lon="1.25745">
        <ele>243</ele>
        <time>2024-03-10T17:49:01Z</time>
      </trkpt>
      <trkpt lat="44.6097" lon="1.25766">
        <ele>246</ele>
        <time>2024-03-10T17:49:08Z</time>
      </trkpt>
      <trkpt lat="44.60997" lon="1.25792">
        <ele>250</ele>
        <time>2024-03-10T17:49:16Z</time>
      </trkpt>
      <trkpt lat="44.61052" lon="1.25828">
        <ele>253</ele>
        <time>2024-03-10T17:49:30Z</time>
      </trkpt>
      <trkpt lat="44.61074" lon="1.2583">
        <ele>253</ele>
        <time>2024-03-10T17:49:35Z</time>
      </trkpt>
      <trkpt lat="44.61097" lon="1.25847">
        <ele>256</ele>
        <time>2024-03-10T17:49:41Z</time>
      </trkpt>
      <trkpt lat="44.6117" lon="1.25914">
        <ele>255</ele>
        <time>2024-03-10T17:50:01Z</time>
      </trkpt>
      <trkpt lat="44.61184" lon="1.25918">
        <ele>256</ele>
        <time>2024-03-10T17:50:05Z</time>
      </trkpt>
      <trkpt lat="44.61231" lon="1.25914">
        <ele>258</ele>
        <time>2024-03-10T17:50:16Z</time>
      </trkpt>
      <trkpt lat="44.61337" lon="1.25964">
        <ele>263</ele>
        <time>2024-03-10T17:50:42Z</time>
      </trkpt>
      <trkpt lat="44.61357" lon="1.25976">
        <ele>265</ele>
        <time>2024-03-10T17:50:47Z</time>
      </trkpt>
      <trkpt lat="44.61377" lon="1.26014">
        <ele>268</ele>
        <time>2024-03-10T17:50:55Z</time>
      </trkpt>
      <trkpt lat="44.61446" lon="1.26238">
        <ele>289</ele>
        <time>2024-03-10T17:51:35Z</time>
      </trkpt>
      <trkpt lat="44.61464" lon="1.26287">
        <ele>293</ele>
        <time>2024-03-10T17:51:45Z</time>
      </trkpt>
      <trkpt lat="44.61481" lon="1.26318">
        <ele>296</ele>
        <time>2024-03-10T17:51:51Z</time>
      </trkpt>
      <trkpt lat="44.61516" lon="1.26395">
        <ele>303</ele>
        <time>2024-03-10T17:52:06Z</time>
      </trkpt>
      <trkpt lat="44.61533" lon="1.26424">
        <ele>305</ele>
        <time>2024-03-10T17:52:12Z</time>
      </trkpt>
      <trkpt lat="44.61555" lon="1.26439">
        <ele>306</ele>
        <time>2024-03-10T17:52:18Z</time>
      </trkpt>
      <trkpt lat="44.61623" lon="1.26529">
        <ele>305</ele>
        <time>2024-03-10T17:52:40Z</time>
      </trkpt>
      <trkpt lat="44.61643" lon="1.26562">
        <ele>304</ele>
        <time>2024-03-10T17:52:47Z</time>
      </trkpt>
      <trkpt lat="44.61717" lon="1.2672">
        <ele>311</ele>
        <time>2024-03-10T17:53:19Z</time>
      </trkpt>
      <trkpt lat="44.6172" lon="1.26739">
        <ele>312</ele>
        <time>2024-03-10T17:53:22Z</time>
      </trkpt>
      <trkpt lat="44.61725" lon="1.26933">
        <ele>317</ele>
        <time>2024-03-10T17:53:54Z</time>
      </trkpt>
      <trkpt lat="44.61742" lon="1.26972">
        <ele>317</ele>
        <time>2024-03-10T17:54:02Z</time>
      </trkpt>
      <trkpt lat="44.61761" lon="1.26996">
        <ele>318</ele>
        <time>2024-03-10T17:54:08Z</time>
      </trkpt>
      <trkpt lat="44.61812" lon="1.27036">
        <ele>319</ele>
        <time>2024-03-10T17:54:21Z</time>
      </trkpt>
      <trkpt lat="44.6183" lon="1.27046">
        <ele>319</ele>
        <time>2024-03-10T17:54:26Z</time>
      </trkpt>
      <trkpt lat="44.61856" lon="1.27053">
        <ele>320</ele>
        <time>2024-03-10T17:54:32Z</time>
      </trkpt>
      <trkpt lat="44.61878" lon="1.27068">
        <ele>320</ele>
        <time>2024-03-10T17:54:38Z</time>
      </trkpt>
      <trkpt lat="44.61892" lon="1.27091">
        <ele>320</ele>
        <time>2024-03-10T17:54:43Z</time>
      </trkpt>
      <trkpt lat="44.61923" lon="1.27168">
        <ele>323</ele>
        <time>2024-03-10T17:54:58Z</time>
      </trkpt>
      <trkpt lat="44.61951" lon="1.27225">
        <ele>322</ele>
        <time>2024-03-10T17:55:09Z</time>
      </trkpt>
      <trkpt lat="44.61965" lon="1.27272">
        <ele>322</ele>
        <time>2024-03-10T17:55:18Z</time>
      </trkpt>
      <trkpt lat="44.61973" lon="1.27166">
        <ele>322</ele>
        <time>2024-03-10T17:55:35Z</time>
      </trkpt>
      <trkpt lat="44.61978" lon="1.27147">
        <ele>322</ele>
        <time>2024-03-10T17:55:39Z</time>
      </trkpt>
      <trkpt lat="44.61994" lon="1.27106">
        <ele>321</ele>
        <time>2024-03-10T17:55:46Z</time>
      </trkpt>
      <trkpt lat="44.62019" lon="1.27012">
        <ele>320</ele>
        <time>2024-03-10T17:56:03Z</time>
      </trkpt>
      <trkpt lat="44.62043" lon="1.2695">
        <ele>320</ele>
        <time>2024-03-10T17:56:15Z</time>
      </trkpt>
      <trkpt lat="44.6206" lon="1.26823">
        <ele>321</ele>
        <time>2024-03-10T17:56:36Z</time>
      </trkpt>
      <trkpt lat="44.62091" lon="1.2672">
        <ele>321</ele>
        <time>2024-03-10T17:56:55Z</time>
      </trkpt>
      <trkpt lat="44.62095" lon="1.26747">
        <ele>318</ele>
        <time>2024-03-10T17:56:59Z</time>
      </trkpt>
      <trkpt lat="44.62101" lon="1.26757">
        <ele>318</ele>
        <time>2024-03-10T17:57:02Z</time>
      </trkpt>
      <trkpt lat="44.62108" lon="1.26728">
        <ele>318</ele>
        <time>2024-03-10T17:57:07Z</time>
      </trkpt>
      <trkpt lat="44.62119" lon="1.26712">
        <ele>318</ele>
        <time>2024-03-10T17:57:10Z</time>
      </trkpt>
      <trkpt lat="44.6214" lon="1.26704">
        <ele>316</ele>
        <time>2024-03-10T17:57:15Z</time>
      </trkpt>
      <trkpt lat="44.62176" lon="1.26703">
        <ele>314</ele>
        <time>2024-03-10T17:57:24Z</time>
      </trkpt>
      <trkpt lat="44.62185" lon="1.26706">
        <ele>313</ele>
        <time>2024-03-10T17:57:26Z</time>
      </trkpt>
      <trkpt lat="44.62209" lon="1.26726">
        <ele>310</ele>
        <time>2024-03-10T17:57:33Z</time>
      </trkpt>
      <trkpt lat="44.62225" lon="1.26734">
        <ele>309</ele>
        <time>2024-03-10T17:57:37Z</time>
      </trkpt>
      <trkpt lat="44.62245" lon="1.26752">
        <ele>305</ele>
        <time>2024-03-10T17:57:42Z</time>
      </trkpt>
      <trkpt lat="44.62265" lon="1.26763">
        <ele>305</ele>
        <time>2024-03-10T17:57:47Z</time>
      </trkpt>
      <trkpt lat="44.62314" lon="1.26797">
        <ele>304</ele>
        <time>2024-03-10T17:58:00Z</time>
      </trkpt>
      <trkpt lat="44.62365" lon="1.26908">
        <ele>289</ele>
        <time>2024-03-10T17:58:22Z</time>
      </trkpt>
      <trkpt lat="44.62384" lon="1.26931">
        <ele>287</ele>
        <time>2024-03-10T17:58:28Z</time>
      </trkpt>
      <trkpt lat="44.6238" lon="1.26939">
        <ele>286</ele>
        <time>2024-03-10T17:58:29Z</time>
      </trkpt>
      <trkpt lat="44.62369" lon="1.26941">
        <ele>285</ele>
        <time>2024-03-10T17:58:32Z</time>
      </trkpt>
      <trkpt lat="44.62373" lon="1.26962">
        <ele>283</ele>
        <time>2024-03-10T17:58:35Z</time>
      </trkpt>
      <trkpt lat="44.62386" lon="1.26993">
        <ele>279</ele>
        <time>2024-03-10T17:58:41Z</time>
      </trkpt>
      <trkpt lat="44.62402" lon="1.2701">
        <ele>279</ele>
        <time>2024-03-10T17:58:46Z</time>
      </trkpt>
      <trkpt lat="44.62415" lon="1.27006">
        <ele>278</ele>
        <time>2024-03-10T17:58:49Z</time>
      </trkpt>
      <trkpt lat="44.62459" lon="1.26982">
        <ele>281</ele>
        <time>2024-03-10T17:59:00Z</time>
      </trkpt>
      <trkpt lat="44.62491" lon="1.26957">
        <ele>281</ele>
        <time>2024-03-10T17:59:09Z</time>
      </trkpt>
      <trkpt lat="44.62566" lon="1.2694">
        <ele>277</ele>
        <time>2024-03-10T17:59:27Z</time>
      </trkpt>
      <trkpt lat="44.62602" lon="1.26942">
        <ele>275</ele>
        <time>2024-03-10T17:59:35Z</time>
      </trkpt>
      <trkpt lat="44.62622" lon="1.2695">
        <ele>273</ele>
        <time>2024-03-10T17:59:40Z</time>
      </trkpt>
      <trkpt lat="44.62682" lon="1.27003">
        <ele>263</ele>
        <time>2024-03-10T17:59:56Z</time>
      </trkpt>
      <trkpt lat="44.62731" lon="1.27081">
        <ele>257</ele>
        <time>2024-03-10T18:00:14Z</time>
      </trkpt>
      <trkpt lat="44.62748" lon="1.27119">
        <ele>255</ele>
        <time>2024-03-10T18:00:21Z</time>
      </trkpt>
      <trkpt lat="44.62777" lon="1.27137">
        <ele>253</ele>
        <time>2024-03-10T18:00:29Z</time>
      </trkpt>
      <trkpt lat="44.62865" lon="1.2716">
        <ele>250</ele>
        <time>2024-03-10T18:00:49Z</time>
      </trkpt>
      <trkpt lat="44.62885" lon="1.27169">
        <ele>249</ele>
        <time>2024-03-10T18:00:54Z</time>
      </trkpt>
      <trkpt lat="44.62909" lon="1.27186">
        <ele>248</ele>
        <time>2024-03-10T18:01:01Z</time>
      </trkpt>
      <trkpt lat="44.62998" lon="1.27297">
        <ele>240</ele>
        <time>2024-03-10T18:01:28Z</time>
      </trkpt>
      <trkpt lat="44.63119" lon="1.27423">
        <ele>225</ele>
        <time>2024-03-10T18:02:04Z</time>
      </trkpt>
      <trkpt lat="44.63143" lon="1.27467">
        <ele>223</ele>
        <time>2024-03-10T18:02:13Z</time>
      </trkpt>
      <trkpt lat="44.63151" lon="1.27473">
        <ele>222</ele>
        <time>2024-03-10T18:02:15Z</time>
      </trkpt>
      <trkpt lat="44.63246" lon="1.27479">
        <ele>215</ele>
        <time>2024-03-10T18:02:37Z</time>
      </trkpt>
      <trkpt lat="44.63318" lon="1.27473">
        <ele>212</ele>
        <time>2024-03-10T18:02:54Z</time>
      </trkpt>
      <trkpt lat="44.63353" lon="1.27482">
        <ele>212</ele>
        <time>2024-03-10T18:03:02Z</time>
      </trkpt>
      <trkpt lat="44.63368" lon="1.27491">
        <ele>212</ele>
        <time>2024-03-10T18:03:06Z</time>
      </trkpt>
      <trkpt lat="44.63398" lon="1.27503">
        <ele>213</ele>
        <time>2024-03-10T18:03:13Z</time>
      </trkpt>
      <trkpt lat="44.63434" lon="1.27513">
        <ele>214</ele>
        <time>2024-03-10T18:03:22Z</time>
      </trkpt>
      <trkpt lat="44.63458" lon="1.27523">
        <ele>214</ele>
        <time>2024-03-10T18:03:28Z</time>
      </trkpt>
      <trkpt lat="44.63555" lon="1.27595">
        <ele>211</ele>
        <time>2024-03-10T18:03:53Z</time>
      </trkpt>
      <trkpt lat="44.63576" lon="1.27605">
        <ele>209</ele>
        <time>2024-03-10T18:03:59Z</time>
      </trkpt>
      <trkpt lat="44.63596" lon="1.27592">
        <ele>207</ele>
        <time>2024-03-10T18:04:04Z</time>
      </trkpt>
      <trkpt lat="44.63613" lon="1.27592">
        <ele>206</ele>
        <time>2024-03-10T18:04:08Z</time>
      </trkpt>
      <trkpt lat="44.63623" lon="1.27588">
        <ele>205</ele>
        <time>2024-03-10T18:04:10Z</time>
      </trkpt>
      <trkpt lat="44.63626" lon="1.27578">
        <ele>205</ele>
        <time>2024-03-10T18:04:12Z</time>
      </trkpt>
      <trkpt lat="44.63624" lon="1.27567">
        <ele>204</ele>
        <time>2024-03-10T18:04:14Z</time>
      </trkpt>
      <trkpt lat="44.63604" lon="1.27531">
        <ele>204</ele>
        <time>2024-03-10T18:04:21Z</time>
      </trkpt>
      <trkpt lat="44.63607" lon="1.27517">
        <ele>203</ele>
        <time>2024-03-10T18:04:24Z</time>
      </trkpt>
      <trkpt lat="44.63616" lon="1.27512">
        <ele>202</ele>
        <time>2024-03-10T18:04:26Z</time>
      </trkpt>
      <trkpt lat="44.63635" lon="1.27518">
        <ele>200</ele>
        <time>2024-03-10T18:04:31Z</time>
      </trkpt>
      <trkpt lat="44.63656" lon="1.27518">
        <ele>198</ele>
        <time>2024-03-10T18:04:36Z</time>
      </trkpt>
      <trkpt lat="44.63733" lon="1.27493">
        <ele>190</ele>
        <time>2024-03-10T18:04:54Z</time>
      </trkpt>
      <trkpt lat="44.63764" lon="1.27491">
        <ele>187</ele>
        <time>2024-03-10T18:05:01Z</time>
      </trkpt>
      <trkpt lat="44.6378" lon="1.27483">
        <ele>186</ele>
        <time>2024-03-10T18:05:05Z</time>
      </trkpt>
      <trkpt lat="44.63788" lon="1.27492">
        <ele>186</ele>
        <time>2024-03-10T18:05:08Z</time>
      </trkpt>
      <trkpt lat="44.63801" lon="1.27492">
        <ele>185</ele>
        <time>2024-03-10T18:05:11Z</time>
      </trkpt>
      <trkpt lat="44.63818" lon="1.27488">
        <ele>184</ele>
        <time>2024-03-10T18:05:15Z</time>
      </trkpt>
      <trkpt lat="44.63832" lon="1.2748">
        <ele>184</ele>
        <time>2024-03-10T18:05:18Z</time>
      </trkpt>
      <trkpt lat="44.63846" lon="1.27454">
        <ele>184</ele>
        <time>2024-03-10T18:05:24Z</time>
      </trkpt>
      <trkpt lat="44.63856" lon="1.27455">
        <ele>185</ele>
        <time>2024-03-10T18:05:26Z</time>
      </trkpt>
      <trkpt lat="44.63867" lon="1.27462">
        <ele>185</ele>
        <time>2024-03-10T18:05:29Z</time>
      </trkpt>
      <trkpt lat="44.63873" lon="1.27474">
        <ele>185</ele>
        <time>2024-03-10T18:05:31Z</time>
      </trkpt>
      <trkpt lat="44.63882" lon="1.27526">
        <ele>186</ele>
        <time>2024-03-10T18:05:40Z</time>
      </trkpt>
      <trkpt lat="44.63877" lon="1.27583">
        <ele>189</ele>
        <time>2024-03-10T18:05:50Z</time>
      </trkpt>
      <trkpt lat="44.63866" lon="1.27664">
        <ele>191</ele>
        <time>2024-03-10T18:06:03Z</time>
      </trkpt>
      <trkpt lat="44.63896" lon="1.27626">
        <ele>192</ele>
        <time>2024-03-10T18:06:13Z</time>
      </trkpt>
      <trkpt lat="44.63903" lon="1.27609">
        <ele>192</ele>
        <time>2024-03-10T18:06:16Z</time>
      </trkpt>
      <trkpt lat="44.63922" lon="1.27586">
        <ele>191</ele>
        <time>2024-03-10T18:06:22Z</time>
      </trkpt>
      <trkpt lat="44.63947" lon="1.27545">
        <ele>188</ele>
        <time>2024-03-10T18:06:31Z</time>
      </trkpt>
      <trkpt lat="44.63956" lon="1.27542">
        <ele>188</ele>
        <time>2024-03-10T18:06:33Z</time>
      </trkpt>
      <trkpt lat="44.63966" lon="1.27551">
        <ele>187</ele>
        <time>2024-03-10T18:06:36Z</time>
      </trkpt>
      <trkpt lat="44.63983" lon="1.27594">
        <ele>188</ele>
        <time>2024-03-10T18:06:44Z</time>
      </trkpt>
      <trkpt lat="44.64001" lon="1.27628">
        <ele>189</ele>
        <time>2024-03-10T18:06:51Z</time>
      </trkpt>
      <trkpt lat="44.64021" lon="1.27651">
        <ele>189</ele>
        <time>2024-03-10T18:06:57Z</time>
      </trkpt>
      <trkpt lat="44.64051" lon="1.27679">
        <ele>189</ele>
        <time>2024-03-10T18:07:05Z</time>
      </trkpt>
      <trkpt lat="44.6413" lon="1.27727">
        <ele>190</ele>
        <time>2024-03-10T18:07:26Z</time>
      </trkpt>
      <trkpt lat="44.64164" lon="1.27731">
        <ele>190</ele>
        <time>2024-03-10T18:07:34Z</time>
      </trkpt>
      <trkpt lat="44.64185" lon="1.27728">
        <ele>191</ele>
        <time>2024-03-10T18:07:38Z</time>
      </trkpt>
      <trkpt lat="44.64221" lon="1.27713">
        <ele>191</ele>
        <time>2024-03-10T18:07:47Z</time>
      </trkpt>
      <trkpt lat="44.64258" lon="1.27691">
        <ele>190</ele>
        <time>2024-03-10T18:07:57Z</time>
      </trkpt>
      <trkpt lat="44.6428" lon="1.27671">
        <ele>190</ele>
        <time>2024-03-10T18:08:03Z</time>
      </trkpt>
      <trkpt lat="44.64307" lon="1.27636">
        <ele>189</ele>
        <time>2024-03-10T18:08:11Z</time>
      </trkpt>
      <trkpt lat="44.64365" lon="1.2754">
        <ele>183</ele>
        <time>2024-03-10T18:08:32Z</time>
      </trkpt>
      <trkpt lat="44.64377" lon="1.27526">
        <ele>183</ele>
        <time>2024-03-10T18:08:36Z</time>
      </trkpt>
      <trkpt lat="44.6439" lon="1.27519">
        <ele>183</ele>
        <time>2024-03-10T18:08:39Z</time>
      </trkpt>
      <trkpt lat="44.64398" lon="1.27519">
        <ele>183</ele>
        <time>2024-03-10T18:08:41Z</time>
      </trkpt>
      <trkpt lat="44.64409" lon="1.27523">
        <ele>183</ele>
        <time>2024-03-10T18:08:44Z</time>
      </trkpt>
      <trkpt lat="44.64501" lon="1.27567">
        <ele>182</ele>
        <time>2024-03-10T18:09:06Z</time>
      </trkpt>
      <trkpt lat="44.64545" lon="1.27637">
        <ele>183</ele>
        <time>2024-03-10T18:09:22Z</time>
      </trkpt>
      <trkpt lat="44.64604" lon="1.27704">
        <ele>184</ele>
        <time>2024-03-10T18:09:40Z</time>
      </trkpt>
      <trkpt lat="44.64645" lon="1.27729">
        <ele>184</ele>
        <time>2024-03-10T18:09:50Z</time>
      </trkpt>
      <trkpt lat="44.64667" lon="1.27748">
        <ele>184</ele>
        <time>2024-03-10T18:09:56Z</time>
      </trkpt>
      <trkpt lat="44.64708" lon="1.27741">
        <ele>184</ele>
        <time>2024-03-10T18:10:06Z</time>
      </trkpt>
      <trkpt lat="44.64739" lon="1.27721">
        <ele>183</ele>
        <time>2024-03-10T18:10:14Z</time>
      </trkpt>
      <trkpt lat="44.64844" lon="1.27679">
        <ele>187</ele>
        <time>2024-03-10T18:10:39Z</time>
      </trkpt>
      <trkpt lat="44.65014" lon="1.2753">
        <ele>182</ele>
        <time>2024-03-10T18:11:26Z</time>
      </trkpt>
      <trkpt lat="44.65069" lon="1.27505">
        <ele>182</ele>
        <time>2024-03-10T18:11:39Z</time>
      </trkpt>
      <trkpt lat="44.65094" lon="1.27508">
        <ele>185</ele>
        <time>2024-03-10T18:11:45Z</time>
      </trkpt>
      <trkpt lat="44.65116" lon="1.27495">
        <ele>186</ele>
        <time>2024-03-10T18:11:51Z</time>
      </trkpt>
      <trkpt lat="44.65129" lon="1.27479">
        <ele>186</ele>
        <time>2024-03-10T18:11:55Z</time>
      </trkpt>
      <trkpt lat="44.65205" lon="1.27426">
        <ele>187</ele>
        <time>2024-03-10T18:12:15Z</time>
      </trkpt>
      <trkpt lat="44.65228" lon="1.27406">
        <ele>188</ele>
        <time>2024-03-10T18:12:21Z</time>
      </trkpt>
      <trkpt lat="44.65275" lon="1.27347">
        <ele>188</ele>
        <time>2024-03-10T18:12:36Z</time>
      </trkpt>
      <trkpt lat="44.65333" lon="1.27234">
        <ele>186</ele>
        <time>2024-03-10T18:12:59Z</time>
      </trkpt>
      <trkpt lat="44.65384" lon="1.27102">
        <ele>177</ele>
        <time>2024-03-10T18:13:24Z</time>
      </trkpt>
      <trkpt lat="44.65393" lon="1.27094">
        <ele>176</ele>
        <time>2024-03-10T18:13:26Z</time>
      </trkpt>
      <trkpt lat="44.65454" lon="1.27063">
        <ele>175</ele>
        <time>2024-03-10T18:13:42Z</time>
      </trkpt>
      <trkpt lat="44.65463" lon="1.27063">
        <ele>175</ele>
        <time>2024-03-10T18:13:44Z</time>
      </trkpt>
      <trkpt lat="44.65471" lon="1.27051">
        <ele>175</ele>
        <time>2024-03-10T18:13:46Z</time>
      </trkpt>
      <trkpt lat="44.65488" lon="1.27047">
        <ele>175</ele>
        <time>2024-03-10T18:13:50Z</time>
      </trkpt>
      <trkpt lat="44.65494" lon="1.26922">
        <ele>175</ele>
        <time>2024-03-10T18:14:11Z</time>
      </trkpt>
      <trkpt lat="44.65474" lon="1.26878">
        <ele>180</ele>
        <time>2024-03-10T18:14:20Z</time>
      </trkpt>
      <trkpt lat="44.65495" lon="1.26891">
        <ele>179</ele>
        <time>2024-03-10T18:14:25Z</time>
      </trkpt>
      <trkpt lat="44.65515" lon="1.26823">
        <ele>190</ele>
        <time>2024-03-10T18:14:37Z</time>
      </trkpt>
      <trkpt lat="44.65632" lon="1.2671">
        <ele>208</ele>
        <time>2024-03-10T18:15:11Z</time>
      </trkpt>
      <trkpt lat="44.65633" lon="1.26664">
        <ele>216</ele>
        <time>2024-03-10T18:15:18Z</time>
      </trkpt>
      <trkpt lat="44.65628" lon="1.26613">
        <ele>222</ele>
        <time>2024-03-10T18:15:27Z</time>
      </trkpt>
      <trkpt lat="44.65645" lon="1.26578">
        <ele>225</ele>
        <time>2024-03-10T18:15:34Z</time>
      </trkpt>
      <trkpt lat="44.65713" lon="1.26512">
        <ele>233</ele>
        <time>2024-03-10T18:15:53Z</time>
      </trkpt>
      <trkpt lat="44.65696" lon="1.26504">
        <ele>233</ele>
        <time>2024-03-10T18:15:57Z</time>
      </trkpt>
      <trkpt lat="44.65696" lon="1.26482">
        <ele>234</ele>
        <time>2024-03-10T18:16:01Z</time>
      </trkpt>
      <trkpt lat="44.65803" lon="1.26456">
        <ele>242</ele>
        <time>2024-03-10T18:16:26Z</time>
      </trkpt>
      <trkpt lat="44.65866" lon="1.26512">
        <ele>243</ele>
        <time>2024-03-10T18:16:44Z</time>
      </trkpt>
      <trkpt lat="44.65902" lon="1.26525">
        <ele>246</ele>
        <time>2024-03-10T18:16:52Z</time>
      </trkpt>
      <trkpt lat="44.65953" lon="1.26517">
        <ele>250</ele>
        <time>2024-03-10T18:17:04Z</time>
      </trkpt>
      <trkpt lat="44.66023" lon="1.26486">
        <ele>252</ele>
        <time>2024-03-10T18:17:22Z</time>
      </trkpt>
      <trkpt lat="44.66127" lon="1.26336">
        <ele>242</ele>
        <time>2024-03-10T18:17:56Z</time>
      </trkpt>
      <trkpt lat="44.66299" lon="1.26295">
        <ele>216</ele>
        <time>2024-03-10T18:18:37Z</time>
      </trkpt>
      <trkpt lat="44.66335" lon="1.26272">
        <ele>218</ele>
        <time>2024-03-10T18:18:46Z</time>
      </trkpt>
      <trkpt lat="44.66385" lon="1.26245">
        <ele>225</ele>
        <time>2024-03-10T18:18:59Z</time>
      </trkpt>
      <trkpt lat="44.66427" lon="1.26217">
        <ele>233</ele>
        <time>2024-03-10T18:19:10Z</time>
      </trkpt>
      <trkpt lat="44.66508" lon="1.26153">
        <ele>247</ele>
        <time>2024-03-10T18:19:31Z</time>
      </trkpt>
      <trkpt lat="44.66557" lon="1.26148">
        <ele>255</ele>
        <time>2024-03-10T18:19:43Z</time>
      </trkpt>
      <trkpt lat="44.66636" lon="1.26102">
        <ele>262</ele>
        <time>2024-03-10T18:20:03Z</time>
      </trkpt>
      <trkpt lat="44.6669" lon="1.26024">
        <ele>265</ele>
        <time>2024-03-10T18:20:21Z</time>
      </trkpt>
      <trkpt lat="44.66743" lon="1.25996">
        <ele>260</ele>
        <time>2024-03-10T18:20:34Z</time>
      </trkpt>
      <trkpt lat="44.66868" lon="1.26055">
        <ele>245</ele>
        <time>2024-03-10T18:21:05Z</time>
      </trkpt>
      <trkpt lat="44.6693" lon="1.26064">
        <ele>245</ele>
        <time>2024-03-10T18:21:19Z</time>
      </trkpt>
      <trkpt lat="44.67015" lon="1.26099">
        <ele>238</ele>
        <time>2024-03-10T18:21:40Z</time>
      </trkpt>
      <trkpt lat="44.6709" lon="1.26093">
        <ele>233</ele>
        <time>2024-03-10T18:21:58Z</time>
      </trkpt>
      <trkpt lat="44.67131" lon="1.26103">
        <ele>232</ele>
        <time>2024-03-10T18:22:07Z</time>
      </trkpt>
      <trkpt lat="44.67258" lon="1.2615">
        <ele>224</ele>
        <time>2024-03-10T18:22:38Z</time>
      </trkpt>
      <trkpt lat="44.67301" lon="1.26155">
        <ele>221</ele>
        <time>2024-03-10T18:22:48Z</time>
      </trkpt>
      <trkpt lat="44.67449" lon="1.26153">
        <ele>211</ele>
        <time>2024-03-10T18:23:23Z</time>
      </trkpt>
      <trkpt lat="44.67623" lon="1.26191">
        <ele>205</ele>
        <time>2024-03-10T18:24:04Z</time>
      </trkpt>
      <trkpt lat="44.67692" lon="1.26244">
        <ele>204</ele>
        <time>2024-03-10T18:24:22Z</time>
      </trkpt>
      <trkpt lat="44.67714" lon="1.26255">
        <ele>202</ele>
        <time>2024-03-10T18:24:28Z</time>
      </trkpt>
      <trkpt lat="44.67742" lon="1.26257">
        <ele>200</ele>
        <time>2024-03-10T18:24:34Z</time>
      </trkpt>
      <trkpt lat="44.67792" lon="1.26245">
        <ele>194</ele>
        <time>2024-03-10T18:24:46Z</time>
      </trkpt>
      <trkpt lat="44.67845" lon="1.26284">
        <ele>187</ele>
        <time>2024-03-10T18:25:00Z</time>
      </trkpt>
      <trkpt lat="44.67867" lon="1.26312">
        <ele>185</ele>
        <time>2024-03-10T18:25:07Z</time>
      </trkpt>
      <trkpt lat="44.67926" lon="1.26366">
        <ele>179</ele>
        <time>2024-03-10T18:25:23Z</time>
      </trkpt>
      <trkpt lat="44.67991" lon="1.26406">
        <ele>174</ele>
        <time>2024-03-10T18:25:40Z</time>
      </trkpt>
      <trkpt lat="44.68027" lon="1.26444">
        <ele>171</ele>
        <time>2024-03-10T18:25:50Z</time>
      </trkpt>
      <trkpt lat="44.68053" lon="1.26456">
        <ele>169</ele>
        <time>2024-03-10T18:25:57Z</time>
      </trkpt>
      <trkpt lat="44.68075" lon="1.26551">
        <ele>166</ele>
        <time>2024-03-10T18:26:13Z</time>
      </trkpt>
      <trkpt lat="44.68089" lon="1.26577">
        <ele>165</ele>
        <time>2024-03-10T18:26:19Z</time>
      </trkpt>
      <trkpt lat="44.68111" lon="1.26597">
        <ele>163</ele>
        <time>2024-03-10T18:26:25Z</time>
      </trkpt>
      <trkpt lat="44.68123" lon="1.26596">
        <ele>162</ele>
        <time>2024-03-10T18:26:28Z</time>
      </trkpt>
      <trkpt lat="44.68138" lon="1.26556">
        <ele>162</ele>
        <time>2024-03-10T18:26:35Z</time>
      </trkpt>
      <trkpt lat="44.68163" lon="1.26558">
        <ele>160</ele>
        <time>2024-03-10T18:26:41Z</time>
      </trkpt>
      <trkpt lat="44.68199" lon="1.26568">
        <ele>158</ele>
        <time>2024-03-10T18:26:50Z</time>
      </trkpt>
      <trkpt lat="44.68229" lon="1.26622">
        <ele>158</ele>
        <time>2024-03-10T18:27:01Z</time>
      </trkpt>
      <trkpt lat="44.6825" lon="1.26672">
        <ele>157</ele>
        <time>2024-03-10T18:27:11Z</time>
      </trkpt>
      <trkpt lat="44.6826" lon="1.26679">
        <ele>157</ele>
        <time>2024-03-10T18:27:13Z</time>
      </trkpt>
      <trkpt lat="44.68262" lon="1.2669">
        <ele>157</ele>
        <time>2024-03-10T18:27:15Z</time>
      </trkpt>
      <trkpt lat="44.68225" lon="1.26806">
        <ele>156</ele>
        <time>2024-03-10T18:27:36Z</time>
      </trkpt>
      <trkpt lat="44.68372" lon="1.26952">
        <ele>158</ele>
        <time>2024-03-10T18:28:18Z</time>
      </trkpt>
      <trkpt lat="44.68368" lon="1.26965">
        <ele>157</ele>
        <time>2024-03-10T18:28:21Z</time>
      </trkpt>
      <trkpt lat="44.6837" lon="1.26978">
        <ele>156</ele>
        <time>2024-03-10T18:28:23Z</time>
      </trkpt>
      <trkpt lat="44.6838" lon="1.27002">
        <ele>155</ele>
        <time>2024-03-10T18:28:28Z</time>
      </trkpt>
      <trkpt lat="44.6838" lon="1.27027">
        <ele>154</ele>
        <time>2024-03-10T18:28:32Z</time>
      </trkpt>
      <trkpt lat="44.68369" lon="1.27035">
        <ele>154</ele>
        <time>2024-03-10T18:28:35Z</time>
      </trkpt>
      <trkpt lat="44.68255" lon="1.27043">
        <ele>154</ele>
        <time>2024-03-10T18:29:01Z</time>
      </trkpt>
      <trkpt lat="44.68238" lon="1.27065">
        <ele>155</ele>
        <time>2024-03-10T18:29:07Z</time>
      </trkpt>
      <trkpt lat="44.68221" lon="1.27108">
        <ele>157</ele>
        <time>2024-03-10T18:29:15Z</time>
      </trkpt>
      <trkpt lat="44.68204" lon="1.27114">
        <ele>158</ele>
        <time>2024-03-10T18:29:19Z</time>
      </trkpt>
      <trkpt lat="44.68251" lon="1.27331">
        <ele>155</ele>
        <time>2024-03-10T18:29:57Z</time>
      </trkpt>
      <trkpt lat="44.68223" lon="1.27354">
        <ele>158</ele>
        <time>2024-03-10T18:30:04Z</time>
      </trkpt>
      <trkpt lat="44.68206" lon="1.27383">
        <ele>160</ele>
        <time>2024-03-10T18:30:10Z</time>
      </trkpt>
      <trkpt lat="44.68193" lon="1.27428">
        <ele>163</ele>
        <time>2024-03-10T18:30:18Z</time>
      </trkpt>
      <trkpt lat="44.68181" lon="1.2744">
        <ele>164</ele>
        <time>2024-03-10T18:30:22Z</time>
      </trkpt>
      <trkpt lat="44.68142" lon="1.2747">
        <ele>168</ele>
        <time>2024-03-10T18:30:32Z</time>
      </trkpt>
      <trkpt lat="44.68123" lon="1.27472">
        <ele>171</ele>
        <time>2024-03-10T18:30:37Z</time>
      </trkpt>
      <trkpt lat="44.68083" lon="1.27465">
        <ele>175</ele>
        <time>2024-03-10T18:30:46Z</time>
      </trkpt>
      <trkpt lat="44.68069" lon="1.27467">
        <ele>176</ele>
        <time>2024-03-10T18:30:49Z</time>
      </trkpt>
      <trkpt lat="44.68031" lon="1.27487">
        <ele>179</ele>
        <time>2024-03-10T18:30:59Z</time>
      </trkpt>
      <trkpt lat="44.67996" lon="1.275">
        <ele>181</ele>
        <time>2024-03-10T18:31:07Z</time>
      </trkpt>
      <trkpt lat="44.67954" lon="1.27503">
        <ele>185</ele>
        <time>2024-03-10T18:31:17Z</time>
      </trkpt>
      <trkpt lat="44.67919" lon="1.27492">
        <ele>188</ele>
        <time>2024-03-10T18:31:26Z</time>
      </trkpt>
      <trkpt lat="44.67905" lon="1.27474">
        <ele>189</ele>
        <time>2024-03-10T18:31:30Z</time>
      </trkpt>
      <trkpt lat="44.67898" lon="1.27483">
        <ele>188</ele>
        <time>2024-03-10T18:31:32Z</time>
      </trkpt>
      <trkpt lat="44.67894" lon="1.27538">
        <ele>187</ele>
        <time>2024-03-10T18:31:41Z</time>
      </trkpt>
      <trkpt lat="44.67888" lon="1.27559">
        <ele>186</ele>
        <time>2024-03-10T18:31:45Z</time>
      </trkpt>
      <trkpt lat="44.67865" lon="1.27587">
        <ele>184</ele>
        <time>2024-03-10T18:31:52Z</time>
      </trkpt>
      <trkpt lat="44.67831" lon="1.27612">
        <ele>180</ele>
        <time>2024-03-10T18:32:01Z</time>
      </trkpt>
      <trkpt lat="44.67807" lon="1.27623">
        <ele>178</ele>
        <time>2024-03-10T18:32:07Z</time>
      </trkpt>
      <trkpt lat="44.67787" lon="1.2764">
        <ele>176</ele>
        <time>2024-03-10T18:32:13Z</time>
      </trkpt>
      <trkpt lat="44.67766" lon="1.2764">
        <ele>175</ele>
        <time>2024-03-10T18:32:17Z</time>
      </trkpt>
      <trkpt lat="44.67728" lon="1.27689">
        <ele>167</ele>
        <time>2024-03-10T18:32:29Z</time>
      </trkpt>
      <trkpt lat="44.67648" lon="1.2769">
        <ele>169</ele>
        <time>2024-03-10T18:32:48Z</time>
      </trkpt>
      <trkpt lat="44.6758" lon="1.27672">
        <ele>165</ele>
        <time>2024-03-10T18:33:04Z</time>
      </trkpt>
      <trkpt lat="44.67547" lon="1.27681">
        <ele>162</ele>
        <time>2024-03-10T18:33:12Z</time>
      </trkpt>
      <trkpt lat="44.67468" lon="1.27619">
        <ele>166</ele>
        <time>2024-03-10T18:33:33Z</time>
      </trkpt>
      <trkpt lat="44.67423" lon="1.27678">
        <ele>156</ele>
        <time>2024-03-10T18:33:48Z</time>
      </trkpt>
      <trkpt lat="44.67407" lon="1.27695">
        <ele>156</ele>
        <time>2024-03-10T18:33:52Z</time>
      </trkpt>
      <trkpt lat="44.67386" lon="1.27708">
        <ele>156</ele>
        <time>2024-03-10T18:33:58Z</time>
      </trkpt>
      <trkpt lat="44.67348" lon="1.27706">
        <ele>157</ele>
        <time>2024-03-10T18:34:07Z</time>
      </trkpt>
      <trkpt lat="44.67327" lon="1.27711">
        <ele>157</ele>
        <time>2024-03-10T18:34:12Z</time>
      </trkpt>
      <trkpt lat="44.67275" lon="1.27745">
        <ele>158</ele>
        <time>2024-03-10T18:34:25Z</time>
      </trkpt>
      <trkpt lat="44.67238" lon="1.27751">
        <ele>160</ele>
        <time>2024-03-10T18:34:34Z</time>
      </trkpt>
      <trkpt lat="44.67183" lon="1.27746">
        <ele>162</ele>
        <time>2024-03-10T18:34:47Z</time>
      </trkpt>
      <trkpt lat="44.67139" lon="1.27748">
        <ele>165</ele>
        <time>2024-03-10T18:34:57Z</time>
      </trkpt>
      <trkpt lat="44.67047" lon="1.27759">
        <ele>171</ele>
        <time>2024-03-10T18:35:18Z</time>
      </trkpt>
      <trkpt lat="44.67015" lon="1.27774">
        <ele>172</ele>
        <time>2024-03-10T18:35:26Z</time>
      </trkpt>
      <trkpt lat="44.66916" lon="1.27782">
        <ele>176</ele>
        <time>2024-03-10T18:35:49Z</time>
      </trkpt>
      <trkpt lat="44.66917" lon="1.27893">
        <ele>176</ele>
        <time>2024-03-10T18:36:08Z</time>
      </trkpt>
      <trkpt lat="44.66857" lon="1.27904">
        <ele>180</ele>
        <time>2024-03-10T18:36:22Z</time>
      </trkpt>
      <trkpt lat="44.66825" lon="1.27916">
        <ele>181</ele>
        <time>2024-03-10T18:36:30Z</time>
      </trkpt>
      <trkpt lat="44.66778" lon="1.27938">
        <ele>185</ele>
        <time>2024-03-10T18:36:41Z</time>
      </trkpt>
      <trkpt lat="44.66731" lon="1.27971">
        <ele>188</ele>
        <time>2024-03-10T18:36:54Z</time>
      </trkpt>
      <trkpt lat="44.66712" lon="1.27989">
        <ele>188</ele>
        <time>2024-03-10T18:36:59Z</time>
      </trkpt>
      <trkpt lat="44.66651" lon="1.28068">
        <ele>191</ele>
        <time>2024-03-10T18:37:18Z</time>
      </trkpt>
      <trkpt lat="44.66627" lon="1.28113">
        <ele>194</ele>
        <time>2024-03-10T18:37:28Z</time>
      </trkpt>
      <trkpt lat="44.66606" lon="1.28182">
        <ele>194</ele>
        <time>2024-03-10T18:37:40Z</time>
      </trkpt>
      <trkpt lat="44.66603" lon="1.28204">
        <ele>194</ele>
        <time>2024-03-10T18:37:44Z</time>
      </trkpt>
      <trkpt lat="44.66603" lon="1.28237">
        <ele>194</ele>
        <time>2024-03-10T18:37:49Z</time>
      </trkpt>
      <trkpt lat="44.6662" lon="1.28304">
        <ele>198</ele>
        <time>2024-03-10T18:38:01Z</time>
      </trkpt>
      <trkpt lat="44.66636" lon="1.28353">
        <ele>202</ele>
        <time>2024-03-10T18:38:10Z</time>
      </trkpt>
      <trkpt lat="44.6664" lon="1.28376">
        <ele>203</ele>
        <time>2024-03-10T18:38:14Z</time>
      </trkpt>
      <trkpt lat="44.66627" lon="1.28489">
        <ele>206</ele>
        <time>2024-03-10T18:38:33Z</time>
      </trkpt>
      <trkpt lat="44.66627" lon="1.28523">
        <ele>207</ele>
        <time>2024-03-10T18:38:39Z</time>
      </trkpt>
      <trkpt lat="44.66608" lon="1.28594">
        <ele>205</ele>
        <time>2024-03-10T18:38:51Z</time>
      </trkpt>
      <trkpt lat="44.66613" lon="1.28626">
        <ele>205</ele>
        <time>2024-03-10T18:38:57Z</time>
      </trkpt>
      <trkpt lat="44.6663" lon="1.28692">
        <ele>207</ele>
        <time>2024-03-10T18:39:08Z</time>
      </trkpt>
      <trkpt lat="44.66662" lon="1.2871">
        <ele>209</ele>
        <time>2024-03-10T18:39:16Z</time>
      </trkpt>
      <trkpt lat="44.66678" lon="1.28735">
        <ele>210</ele>
        <time>2024-03-10T18:39:22Z</time>
      </trkpt>
      <trkpt lat="44.66711" lon="1.28757">
        <ele>215</ele>
        <time>2024-03-10T18:39:30Z</time>
      </trkpt>
      <trkpt lat="44.66728" lon="1.28784">
        <ele>218</ele>
        <time>2024-03-10T18:39:36Z</time>
      </trkpt>
      <trkpt lat="44.6674" lon="1.28812">
        <ele>218</ele>
        <time>2024-03-10T18:39:42Z</time>
      </trkpt>
      <trkpt lat="44.66774" lon="1.28942">
        <ele>221</ele>
        <time>2024-03-10T18:40:05Z</time>
      </trkpt>
      <trkpt lat="44.66778" lon="1.2897">
        <ele>222</ele>
        <time>2024-03-10T18:40:10Z</time>
      </trkpt>
      <trkpt lat="44.66788" lon="1.29005">
        <ele>223</ele>
        <time>2024-03-10T18:40:16Z</time>
      </trkpt>
      <trkpt lat="44.66801" lon="1.2902">
        <ele>224</ele>
        <time>2024-03-10T18:40:20Z</time>
      </trkpt>
      <trkpt lat="44.66811" lon="1.29041">
        <ele>225</ele>
        <time>2024-03-10T18:40:24Z</time>
      </trkpt>
      <trkpt lat="44.66826" lon="1.29055">
        <ele>225</ele>
        <time>2024-03-10T18:40:28Z</time>
      </trkpt>
      <trkpt lat="44.6686" lon="1.2905">
        <ele>230</ele>
        <time>2024-03-10T18:40:36Z</time>
      </trkpt>
      <trkpt lat="44.66874" lon="1.29057">
        <ele>231</ele>
        <time>2024-03-10T18:40:40Z</time>
      </trkpt>
      <trkpt lat="44.66906" lon="1.29061">
        <ele>235</ele>
        <time>2024-03-10T18:40:47Z</time>
      </trkpt>
      <trkpt lat="44.66933" lon="1.29055">
        <ele>238</ele>
        <time>2024-03-10T18:40:54Z</time>
      </trkpt>
      <trkpt lat="44.66946" lon="1.29077">
        <ele>236</ele>
        <time>2024-03-10T18:40:58Z</time>
      </trkpt>
      <trkpt lat="44.66964" lon="1.29087">
        <ele>236</ele>
        <time>2024-03-10T18:41:03Z</time>
      </trkpt>
      <trkpt lat="44.66977" lon="1.29086">
        <ele>237</ele>
        <time>2024-03-10T18:41:06Z</time>
      </trkpt>
      <trkpt lat="44.66995" lon="1.29075">
        <ele>238</ele>
        <time>2024-03-10T18:41:10Z</time>
      </trkpt>
      <trkpt lat="44.67007" lon="1.2908">
        <ele>239</ele>
        <time>2024-03-10T18:41:13Z</time>
      </trkpt>
      <trkpt lat="44.67029" lon="1.291">
        <ele>239</ele>
        <time>2024-03-10T18:41:20Z</time>
      </trkpt>
      <trkpt lat="44.67064" lon="1.29151">
        <ele>240</ele>
        <time>2024-03-10T18:41:31Z</time>
      </trkpt>
      <trkpt lat="44.67072" lon="1.29157">
        <ele>241</ele>
        <time>2024-03-10T18:41:33Z</time>
      </trkpt>
      <trkpt lat="44.67096" lon="1.29163">
        <ele>243</ele>
        <time>2024-03-10T18:41:39Z</time>
      </trkpt>
      <trkpt lat="44.67104" lon="1.29176">
        <ele>243</ele>
        <time>2024-03-10T18:41:42Z</time>
      </trkpt>
      <trkpt lat="44.67096" lon="1.29189">
        <ele>242</ele>
        <time>2024-03-10T18:41:45Z</time>
      </trkpt>
      <trkpt lat="44.67093" lon="1.29216">
        <ele>241</ele>
        <time>2024-03-10T18:41:49Z</time>
      </trkpt>
      <trkpt lat="44.67101" lon="1.29266">
        <ele>240</ele>
        <time>2024-03-10T18:41:58Z</time>
      </trkpt>
      <trkpt lat="44.67103" lon="1.2932">
        <ele>238</ele>
        <time>2024-03-10T18:42:07Z</time>
      </trkpt>
      <trkpt lat="44.67096" lon="1.29397">
        <ele>238</ele>
        <time>2024-03-10T18:42:20Z</time>
      </trkpt>
      <trkpt lat="44.67006" lon="1.29476">
        <ele>243</ele>
        <time>2024-03-10T18:42:45Z</time>
      </trkpt>
      <trkpt lat="44.66988" lon="1.29501">
        <ele>244</ele>
        <time>2024-03-10T18:42:50Z</time>
      </trkpt>
      <trkpt lat="44.6707" lon="1.29604">
        <ele>237</ele>
        <time>2024-03-10T18:43:16Z</time>
      </trkpt>
      <trkpt lat="44.67113" lon="1.29635">
        <ele>234</ele>
        <time>2024-03-10T18:43:27Z</time>
      </trkpt>
      <trkpt lat="44.67095" lon="1.29684">
        <ele>236</ele>
        <time>2024-03-10T18:43:37Z</time>
      </trkpt>
      <trkpt lat="44.67077" lon="1.29716">
        <ele>236</ele>
        <time>2024-03-10T18:43:43Z</time>
      </trkpt>
      <trkpt lat="44.67052" lon="1.29742">
        <ele>235</ele>
        <time>2024-03-10T18:43:51Z</time>
      </trkpt>
      <trkpt lat="44.67039" lon="1.29766">
        <ele>234</ele>
        <time>2024-03-10T18:43:56Z</time>
      </trkpt>
      <trkpt lat="44.67038" lon="1.29798">
        <ele>232</ele>
        <time>2024-03-10T18:44:01Z</time>
      </trkpt>
      <trkpt lat="44.66984" lon="1.29787">
        <ele>231</ele>
        <time>2024-03-10T18:44:14Z</time>
      </trkpt>
      <trkpt lat="44.66977" lon="1.29792">
        <ele>230</ele>
        <time>2024-03-10T18:44:15Z</time>
      </trkpt>
      <trkpt lat="44.66972" lon="1.29824">
        <ele>228</ele>
        <time>2024-03-10T18:44:21Z</time>
      </trkpt>
      <trkpt lat="44.66961" lon="1.29859">
        <ele>226</ele>
        <time>2024-03-10T18:44:27Z</time>
      </trkpt>
      <trkpt lat="44.66943" lon="1.29895">
        <ele>223</ele>
        <time>2024-03-10T18:44:35Z</time>
      </trkpt>
      <trkpt lat="44.66921" lon="1.29914">
        <ele>219</ele>
        <time>2024-03-10T18:44:41Z</time>
      </trkpt>
      <trkpt lat="44.66919" lon="1.29942">
        <ele>217</ele>
        <time>2024-03-10T18:44:45Z</time>
      </trkpt>
      <trkpt lat="44.66914" lon="1.29954">
        <ele>216</ele>
        <time>2024-03-10T18:44:48Z</time>
      </trkpt>
      <trkpt lat="44.66901" lon="1.29971">
        <ele>215</ele>
        <time>2024-03-10T18:44:52Z</time>
      </trkpt>
      <trkpt lat="44.66892" lon="1.29995">
        <ele>214</ele>
        <time>2024-03-10T18:44:56Z</time>
      </trkpt>
      <trkpt lat="44.66888" lon="1.30031">
        <ele>215</ele>
        <time>2024-03-10T18:45:02Z</time>
      </trkpt>
      <trkpt lat="44.66871" lon="1.30086">
        <ele>217</ele>
        <time>2024-03-10T18:45:12Z</time>
      </trkpt>
      <trkpt lat="44.66853" lon="1.30113">
        <ele>219</ele>
        <time>2024-03-10T18:45:18Z</time>
      </trkpt>
      <trkpt lat="44.66835" lon="1.30121">
        <ele>221</ele>
        <time>2024-03-10T18:45:23Z</time>
      </trkpt>
      <trkpt lat="44.66835" lon="1.30139">
        <ele>221</ele>
        <time>2024-03-10T18:45:26Z</time>
      </trkpt>
      <trkpt lat="44.66794" lon="1.30222">
        <ele>221</ele>
        <time>2024-03-10T18:45:43Z</time>
      </trkpt>
      <trkpt lat="44.66775" lon="1.30246">
        <ele>222</ele>
        <time>2024-03-10T18:45:49Z</time>
      </trkpt>
      <trkpt lat="44.66806" lon="1.3025">
        <ele>218</ele>
        <time>2024-03-10T18:45:56Z</time>
      </trkpt>
      <trkpt lat="44.66822" lon="1.30274">
        <ele>213</ele>
        <time>2024-03-10T18:46:01Z</time>
      </trkpt>
      <trkpt lat="44.6685" lon="1.30327">
        <ele>202</ele>
        <time>2024-03-10T18:46:12Z</time>
      </trkpt>
      <trkpt lat="44.66809" lon="1.30315">
        <ele>208</ele>
        <time>2024-03-10T18:46:22Z</time>
      </trkpt>
      <trkpt lat="44.66803" lon="1.30323">
        <ele>208</ele>
        <time>2024-03-10T18:46:24Z</time>
      </trkpt>
      <trkpt lat="44.66799" lon="1.30334">
        <ele>207</ele>
        <time>2024-03-10T18:46:26Z</time>
      </trkpt>
      <trkpt lat="44.66852" lon="1.30426">
        <ele>194</ele>
        <time>2024-03-10T18:46:46Z</time>
      </trkpt>
      <trkpt lat="44.66862" lon="1.30482">
        <ele>191</ele>
        <time>2024-03-10T18:46:55Z</time>
      </trkpt>
      <trkpt lat="44.66881" lon="1.30498">
        <ele>187</ele>
        <time>2024-03-10T18:47:00Z</time>
      </trkpt>
      <trkpt lat="44.66908" lon="1.30549">
        <ele>180</ele>
        <time>2024-03-10T18:47:11Z</time>
      </trkpt>
      <trkpt lat="44.66883" lon="1.30614">
        <ele>183</ele>
        <time>2024-03-10T18:47:23Z</time>
      </trkpt>
      <trkpt lat="44.66844" lon="1.30685">
        <ele>187</ele>
        <time>2024-03-10T18:47:38Z</time>
      </trkpt>
      <trkpt lat="44.66857" lon="1.30713">
        <ele>182</ele>
        <time>2024-03-10T18:47:44Z</time>
      </trkpt>
      <trkpt lat="44.66869" lon="1.3071">
        <ele>181</ele>
        <time>2024-03-10T18:47:47Z</time>
      </trkpt>
      <trkpt lat="44.6695" lon="1.3077">
        <ele>179</ele>
        <time>2024-03-10T18:48:08Z</time>
      </trkpt>
      <trkpt lat="44.66951" lon="1.30803">
        <ele>182</ele>
        <time>2024-03-10T18:48:13Z</time>
      </trkpt>
      <trkpt lat="44.66932" lon="1.30861">
        <ele>184</ele>
        <time>2024-03-10T18:48:24Z</time>
      </trkpt>
      <trkpt lat="44.66911" lon="1.30915">
        <ele>184</ele>
        <time>2024-03-10T18:48:34Z</time>
      </trkpt>
      <trkpt lat="44.66896" lon="1.30979">
        <ele>183</ele>
        <time>2024-03-10T18:48:45Z</time>
      </trkpt>
      <trkpt lat="44.66897" lon="1.3102">
        <ele>183</ele>
        <time>2024-03-10T18:48:52Z</time>
      </trkpt>
      <trkpt lat="44.66917" lon="1.31073">
        <ele>186</ele>
        <time>2024-03-10T18:49:02Z</time>
      </trkpt>
      <trkpt lat="44.66997" lon="1.31224">
        <ele>190</ele>
        <time>2024-03-10T18:49:34Z</time>
      </trkpt>
      <trkpt lat="44.66987" lon="1.31234">
        <ele>190</ele>
        <time>2024-03-10T18:49:36Z</time>
      </trkpt>
      <trkpt lat="44.66976" lon="1.31239">
        <ele>191</ele>
        <time>2024-03-10T18:49:39Z</time>
      </trkpt>
      <trkpt lat="44.66979" lon="1.31297">
        <ele>191</ele>
        <time>2024-03-10T18:49:49Z</time>
      </trkpt>
      <trkpt lat="44.66998" lon="1.31371">
        <ele>194</ele>
        <time>2024-03-10T18:50:02Z</time>
      </trkpt>
      <trkpt lat="44.67014" lon="1.31404">
        <ele>198</ele>
        <time>2024-03-10T18:50:08Z</time>
      </trkpt>
      <trkpt lat="44.67049" lon="1.31452">
        <ele>201</ele>
        <time>2024-03-10T18:50:20Z</time>
      </trkpt>
      <trkpt lat="44.67064" lon="1.31543">
        <ele>203</ele>
        <time>2024-03-10T18:50:35Z</time>
      </trkpt>
      <trkpt lat="44.67072" lon="1.31576">
        <ele>201</ele>
        <time>2024-03-10T18:50:41Z</time>
      </trkpt>
      <trkpt lat="44.67139" lon="1.31766">
        <ele>206</ele>
        <time>2024-03-10T18:51:16Z</time>
      </trkpt>
      <trkpt lat="44.67153" lon="1.31828">
        <ele>209</ele>
        <time>2024-03-10T18:51:27Z</time>
      </trkpt>
      <trkpt lat="44.67176" lon="1.31823">
        <ele>208</ele>
        <time>2024-03-10T18:51:33Z</time>
      </trkpt>
      <trkpt lat="44.67188" lon="1.31833">
        <ele>210</ele>
        <time>2024-03-10T18:51:36Z</time>
      </trkpt>
      <trkpt lat="44.67226" lon="1.31883">
        <ele>214</ele>
        <time>2024-03-10T18:51:48Z</time>
      </trkpt>
      <trkpt lat="44.67277" lon="1.31912">
        <ele>219</ele>
        <time>2024-03-10T18:52:01Z</time>
      </trkpt>
      <trkpt lat="44.6731" lon="1.31849">
        <ele>220</ele>
        <time>2024-03-10T18:52:14Z</time>
      </trkpt>
      <trkpt lat="44.67328" lon="1.31791">
        <ele>220</ele>
        <time>2024-03-10T18:52:24Z</time>
      </trkpt>
      <trkpt lat="44.67337" lon="1.31753">
        <ele>219</ele>
        <time>2024-03-10T18:52:31Z</time>
      </trkpt>
      <trkpt lat="44.67356" lon="1.31713">
        <ele>220</ele>
        <time>2024-03-10T18:52:39Z</time>
      </trkpt>
      <trkpt lat="44.67377" lon="1.31657">
        <ele>220</ele>
        <time>2024-03-10T18:52:50Z</time>
      </trkpt>
      <trkpt lat="44.6739" lon="1.31636">
        <ele>221</ele>
        <time>2024-03-10T18:52:54Z</time>
      </trkpt>
      <trkpt lat="44.67416" lon="1.31624">
        <ele>222</ele>
        <time>2024-03-10T18:53:01Z</time>
      </trkpt>
      <trkpt lat="44.67435" lon="1.31624">
        <ele>223</ele>
        <time>2024-03-10T18:53:05Z</time>
      </trkpt>
      <trkpt lat="44.67457" lon="1.31612">
        <ele>223</ele>
        <time>2024-03-10T18:53:10Z</time>
      </trkpt>
      <trkpt lat="44.67482" lon="1.31592">
        <ele>223</ele>
        <time>2024-03-10T18:53:17Z</time>
      </trkpt>
      <trkpt lat="44.6751" lon="1.31563">
        <ele>222</ele>
        <time>2024-03-10T18:53:25Z</time>
      </trkpt>
      <trkpt lat="44.67528" lon="1.31557">
        <ele>222</ele>
        <time>2024-03-10T18:53:30Z</time>
      </trkpt>
      <trkpt lat="44.67527" lon="1.3154">
        <ele>221</ele>
        <time>2024-03-10T18:53:32Z</time>
      </trkpt>
      <trkpt lat="44.67535" lon="1.31521">
        <ele>220</ele>
        <time>2024-03-10T18:53:36Z</time>
      </trkpt>
      <trkpt lat="44.67574" lon="1.31481">
        <ele>219</ele>
        <time>2024-03-10T18:53:47Z</time>
      </trkpt>
      <trkpt lat="44.67634" lon="1.31392">
        <ele>220</ele>
        <time>2024-03-10T18:54:08Z</time>
      </trkpt>
      <trkpt lat="44.67691" lon="1.31379">
        <ele>222</ele>
        <time>2024-03-10T18:54:21Z</time>
      </trkpt>
      <trkpt lat="44.67698" lon="1.31404">
        <ele>222</ele>
        <time>2024-03-10T18:54:26Z</time>
      </trkpt>
      <trkpt lat="44.67706" lon="1.31471">
        <ele>224</ele>
        <time>2024-03-10T18:54:37Z</time>
      </trkpt>
      <trkpt lat="44.67717" lon="1.31496">
        <ele>225</ele>
        <time>2024-03-10T18:54:42Z</time>
      </trkpt>
      <trkpt lat="44.67794" lon="1.31584">
        <ele>228</ele>
        <time>2024-03-10T18:55:05Z</time>
      </trkpt>
      <trkpt lat="44.67835" lon="1.31626">
        <ele>227</ele>
        <time>2024-03-10T18:55:17Z</time>
      </trkpt>
      <trkpt lat="44.67901" lon="1.31621">
        <ele>225</ele>
        <time>2024-03-10T18:55:32Z</time>
      </trkpt>
      <trkpt lat="44.67938" lon="1.31594">
        <ele>221</ele>
        <time>2024-03-10T18:55:42Z</time>
      </trkpt>
      <trkpt lat="44.67956" lon="1.31588">
        <ele>219</ele>
        <time>2024-03-10T18:55:46Z</time>
      </trkpt>
      <trkpt lat="44.68007" lon="1.31637">
        <ele>214</ele>
        <time>2024-03-10T18:56:01Z</time>
      </trkpt>
      <trkpt lat="44.68129" lon="1.31844">
        <ele>226</ele>
        <time>2024-03-10T18:56:45Z</time>
      </trkpt>
      <trkpt lat="44.68152" lon="1.31874">
        <ele>228</ele>
        <time>2024-03-10T18:56:53Z</time>
      </trkpt>
      <trkpt lat="44.68166" lon="1.31897">
        <ele>229</ele>
        <time>2024-03-10T18:56:58Z</time>
      </trkpt>
      <trkpt lat="44.68192" lon="1.32006">
        <ele>234</ele>
        <time>2024-03-10T18:57:17Z</time>
      </trkpt>
      <trkpt lat="44.68201" lon="1.32021">
        <ele>235</ele>
        <time>2024-03-10T18:57:20Z</time>
      </trkpt>
      <trkpt lat="44.68232" lon="1.32053">
        <ele>237</ele>
        <time>2024-03-10T18:57:29Z</time>
      </trkpt>
      <trkpt lat="44.68251" lon="1.32059">
        <ele>238</ele>
        <time>2024-03-10T18:57:34Z</time>
      </trkpt>
      <trkpt lat="44.68331" lon="1.32051">
        <ele>246</ele>
        <time>2024-03-10T18:57:52Z</time>
      </trkpt>
      <trkpt lat="44.68437" lon="1.32104">
        <ele>257</ele>
        <time>2024-03-10T18:58:19Z</time>
      </trkpt>
      <trkpt lat="44.68462" lon="1.32119">
        <ele>260</ele>
        <time>2024-03-10T18:58:25Z</time>
      </trkpt>
      <trkpt lat="44.68539" lon="1.32193">
        <ele>269</ele>
        <time>2024-03-10T18:58:47Z</time>
      </trkpt>
      <trkpt lat="44.68552" lon="1.32223">
        <ele>272</ele>
        <time>2024-03-10T18:58:53Z</time>
      </trkpt>
      <trkpt lat="44.68563" lon="1.32288">
        <ele>276</ele>
        <time>2024-03-10T18:59:04Z</time>
      </trkpt>
      <trkpt lat="44.68573" lon="1.32323">
        <ele>278</ele>
        <time>2024-03-10T18:59:10Z</time>
      </trkpt>
      <trkpt lat="44.68595" lon="1.32365">
        <ele>282</ele>
        <time>2024-03-10T18:59:19Z</time>
      </trkpt>
      <trkpt lat="44.68677" lon="1.3246">
        <ele>288</ele>
        <time>2024-03-10T18:59:43Z</time>
      </trkpt>
      <trkpt lat="44.68692" lon="1.32387">
        <ele>285</ele>
        <time>2024-03-10T18:59:56Z</time>
      </trkpt>
      <trkpt lat="44.68712" lon="1.32327">
        <ele>284</ele>
        <time>2024-03-10T19:00:07Z</time>
      </trkpt>
      <trkpt lat="44.68722" lon="1.32278">
        <ele>284</ele>
        <time>2024-03-10T19:00:16Z</time>
      </trkpt>
      <trkpt lat="44.68726" lon="1.32202">
        <ele>284</ele>
        <time>2024-03-10T19:00:28Z</time>
      </trkpt>
      <trkpt lat="44.68734" lon="1.32163">
        <ele>284</ele>
        <time>2024-03-10T19:00:35Z</time>
      </trkpt>
      <trkpt lat="44.68754" lon="1.31945">
        <ele>281</ele>
        <time>2024-03-10T19:01:11Z</time>
      </trkpt>
      <trkpt lat="44.68789" lon="1.31829">
        <ele>277</ele>
        <time>2024-03-10T19:01:32Z</time>
      </trkpt>
      <trkpt lat="44.68816" lon="1.31716">
        <ele>273</ele>
        <time>2024-03-10T19:01:52Z</time>
      </trkpt>
      <trkpt lat="44.68839" lon="1.31683">
        <ele>272</ele>
        <time>2024-03-10T19:02:00Z</time>
      </trkpt>
      <trkpt lat="44.68857" lon="1.31669">
        <ele>271</ele>
        <time>2024-03-10T19:02:05Z</time>
      </trkpt>
      <trkpt lat="44.68895" lon="1.31647">
        <ele>270</ele>
        <time>2024-03-10T19:02:14Z</time>
      </trkpt>
      <trkpt lat="44.68924" lon="1.31625">
        <ele>269</ele>
        <time>2024-03-10T19:02:22Z</time>
      </trkpt>
      <trkpt lat="44.68945" lon="1.31604">
        <ele>269</ele>
        <time>2024-03-10T19:02:28Z</time>
      </trkpt>
      <trkpt lat="44.68981" lon="1.31589">
        <ele>268</ele>
        <time>2024-03-10T19:02:37Z</time>
      </trkpt>
      <trkpt lat="44.69032" lon="1.31646">
        <ele>266</ele>
        <time>2024-03-10T19:02:52Z</time>
      </trkpt>
      <trkpt lat="44.6914" lon="1.31711">
        <ele>260</ele>
        <time>2024-03-10T19:03:19Z</time>
      </trkpt>
      <trkpt lat="44.69178" lon="1.31726">
        <ele>258</ele>
        <time>2024-03-10T19:03:29Z</time>
      </trkpt>
      <trkpt lat="44.69239" lon="1.31768">
        <ele>257</ele>
        <time>2024-03-10T19:03:44Z</time>
      </trkpt>
      <trkpt lat="44.69327" lon="1.31789">
        <ele>258</ele>
        <time>2024-03-10T19:04:05Z</time>
      </trkpt>
      <trkpt lat="44.694" lon="1.31803">
        <ele>255</ele>
        <time>2024-03-10T19:04:22Z</time>
      </trkpt>
      <trkpt lat="44.69431" lon="1.31821">
        <ele>254</ele>
        <time>2024-03-10T19:04:30Z</time>
      </trkpt>
      <trkpt lat="44.69454" lon="1.31826">
        <ele>253</ele>
        <time>2024-03-10T19:04:36Z</time>
      </trkpt>
      <trkpt lat="44.69475" lon="1.31824">
        <ele>251</ele>
        <time>2024-03-10T19:04:41Z</time>
      </trkpt>
      <trkpt lat="44.6954" lon="1.31785">
        <ele>250</ele>
        <time>2024-03-10T19:04:57Z</time>
      </trkpt>
      <trkpt lat="44.69567" lon="1.31759">
        <ele>252</ele>
        <time>2024-03-10T19:05:05Z</time>
      </trkpt>
      <trkpt lat="44.69597" lon="1.31747">
        <ele>255</ele>
        <time>2024-03-10T19:05:12Z</time>
      </trkpt>
      <trkpt lat="44.6963" lon="1.31719">
        <ele>258</ele>
        <time>2024-03-10T19:05:21Z</time>
      </trkpt>
      <trkpt lat="44.69659" lon="1.31714">
        <ele>262</ele>
        <time>2024-03-10T19:05:28Z</time>
      </trkpt>
      <trkpt lat="44.69691" lon="1.31716">
        <ele>265</ele>
        <time>2024-03-10T19:05:35Z</time>
      </trkpt>
      <trkpt lat="44.69717" lon="1.31709">
        <ele>267</ele>
        <time>2024-03-10T19:05:42Z</time>
      </trkpt>
      <trkpt lat="44.69756" lon="1.31683">
        <ele>270</ele>
        <time>2024-03-10T19:05:52Z</time>
      </trkpt>
      <trkpt lat="44.69795" lon="1.31652">
        <ele>267</ele>
        <time>2024-03-10T19:06:02Z</time>
      </trkpt>
      <trkpt lat="44.69859" lon="1.31579">
        <ele>259</ele>
        <time>2024-03-10T19:06:21Z</time>
      </trkpt>
      <trkpt lat="44.69922" lon="1.31525">
        <ele>249</ele>
        <time>2024-03-10T19:06:39Z</time>
      </trkpt>
      <trkpt lat="44.69939" lon="1.31501">
        <ele>247</ele>
        <time>2024-03-10T19:06:44Z</time>
      </trkpt>
      <trkpt lat="44.69957" lon="1.31494">
        <ele>246</ele>
        <time>2024-03-10T19:06:49Z</time>
      </trkpt>
      <trkpt lat="44.69979" lon="1.31481">
        <ele>244</ele>
        <time>2024-03-10T19:06:54Z</time>
      </trkpt>
      <trkpt lat="44.7006" lon="1.3141">
        <ele>244</ele>
        <time>2024-03-10T19:07:16Z</time>
      </trkpt>
      <trkpt lat="44.70081" lon="1.31404">
        <ele>243</ele>
        <time>2024-03-10T19:07:21Z</time>
      </trkpt>
      <trkpt lat="44.70113" lon="1.31371">
        <ele>246</ele>
        <time>2024-03-10T19:07:31Z</time>
      </trkpt>
      <trkpt lat="44.70152" lon="1.31342">
        <ele>249</ele>
        <time>2024-03-10T19:07:41Z</time>
      </trkpt>
      <trkpt lat="44.70199" lon="1.31326">
        <ele>250</ele>
        <time>2024-03-10T19:07:52Z</time>
      </trkpt>
      <trkpt lat="44.70215" lon="1.31328">
        <ele>249</ele>
        <time>2024-03-10T19:07:56Z</time>
      </trkpt>
      <trkpt lat="44.70377" lon="1.3127">
        <ele>246</ele>
        <time>2024-03-10T19:08:35Z</time>
      </trkpt>
      <trkpt lat="44.70446" lon="1.31252">
        <ele>242</ele>
        <time>2024-03-10T19:08:51Z</time>
      </trkpt>
      <trkpt lat="44.7055" lon="1.31237">
        <ele>233</ele>
        <time>2024-03-10T19:09:16Z</time>
      </trkpt>
      <trkpt lat="44.70583" lon="1.31221">
        <ele>227</ele>
        <time>2024-03-10T19:09:24Z</time>
      </trkpt>
      <trkpt lat="44.70681" lon="1.31197">
        <ele>207</ele>
        <time>2024-03-10T19:09:47Z</time>
      </trkpt>
      <trkpt lat="44.70715" lon="1.31175">
        <ele>197</ele>
        <time>2024-03-10T19:09:56Z</time>
      </trkpt>
      <trkpt lat="44.70777" lon="1.31078">
        <ele>176</ele>
        <time>2024-03-10T19:10:18Z</time>
      </trkpt>
      <trkpt lat="44.70771" lon="1.30999">
        <ele>171</ele>
        <time>2024-03-10T19:10:31Z</time>
      </trkpt>
      <trkpt lat="44.70781" lon="1.30969">
        <ele>168</ele>
        <time>2024-03-10T19:10:36Z</time>
      </trkpt>
      <trkpt lat="44.70794" lon="1.30962">
        <ele>166</ele>
        <time>2024-03-10T19:10:40Z</time>
      </trkpt>
      <trkpt lat="44.70814" lon="1.30987">
        <ele>165</ele>
        <time>2024-03-10T19:10:46Z</time>
      </trkpt>
      <trkpt lat="44.70836" lon="1.31006">
        <ele>163</ele>
        <time>2024-03-10T19:10:52Z</time>
      </trkpt>
      <trkpt lat="44.7084" lon="1.30982">
        <ele>161</ele>
        <time>2024-03-10T19:10:56Z</time>
      </trkpt>
      <trkpt lat="44.70859" lon="1.30935">
        <ele>155</ele>
        <time>2024-03-10T19:11:05Z</time>
      </trkpt>
      <trkpt lat="44.70871" lon="1.30922">
        <ele>152</ele>
        <time>2024-03-10T19:11:08Z</time>
      </trkpt>
      <trkpt lat="44.70895" lon="1.3086">
        <ele>148</ele>
        <time>2024-03-10T19:11:20Z</time>
      </trkpt>
      <trkpt lat="44.70907" lon="1.30783">
        <ele>145</ele>
        <time>2024-03-10T19:11:33Z</time>
      </trkpt>
      <trkpt lat="44.70904" lon="1.30759">
        <ele>144</ele>
        <time>2024-03-10T19:11:37Z</time>
      </trkpt>
      <trkpt lat="44.70881" lon="1.30702">
        <ele>142</ele>
        <time>2024-03-10T19:11:48Z</time>
      </trkpt>
      <trkpt lat="44.70854" lon="1.30736">
        <ele>147</ele>
        <time>2024-03-10T19:11:57Z</time>
      </trkpt>
      <trkpt lat="44.70846" lon="1.3076">
        <ele>149</ele>
        <time>2024-03-10T19:12:01Z</time>
      </trkpt>
      <trkpt lat="44.70836" lon="1.30768">
        <ele>150</ele>
        <time>2024-03-10T19:12:04Z</time>
      </trkpt>
      <trkpt lat="44.70818" lon="1.30767">
        <ele>152</ele>
        <time>2024-03-10T19:12:08Z</time>
      </trkpt>
      <trkpt lat="44.70805" lon="1.30779">
        <ele>154</ele>
        <time>2024-03-10T19:12:12Z</time>
      </trkpt>
      <trkpt lat="44.70785" lon="1.30824">
        <ele>159</ele>
        <time>2024-03-10T19:12:20Z</time>
      </trkpt>
      <trkpt lat="44.70774" lon="1.30822">
        <ele>161</ele>
        <time>2024-03-10T19:12:23Z</time>
      </trkpt>
      <trkpt lat="44.70761" lon="1.30825">
        <ele>162</ele>
        <time>2024-03-10T19:12:26Z</time>
      </trkpt>
      <trkpt lat="44.70751" lon="1.30833">
        <ele>164</ele>
        <time>2024-03-10T19:12:29Z</time>
      </trkpt>
      <trkpt lat="44.70743" lon="1.30856">
        <ele>166</ele>
        <time>2024-03-10T19:12:33Z</time>
      </trkpt>
      <trkpt lat="44.70732" lon="1.30875">
        <ele>169</ele>
        <time>2024-03-10T19:12:37Z</time>
      </trkpt>
      <trkpt lat="44.70712" lon="1.30898">
        <ele>172</ele>
        <time>2024-03-10T19:12:43Z</time>
      </trkpt>
      <trkpt lat="44.70691" lon="1.30916">
        <ele>174</ele>
        <time>2024-03-10T19:12:49Z</time>
      </trkpt>
      <trkpt lat="44.70621" lon="1.30946">
        <ele>184</ele>
        <time>2024-03-10T19:13:06Z</time>
      </trkpt>
      <trkpt lat="44.70453" lon="1.30921">
        <ele>197</ele>
        <time>2024-03-10T19:13:45Z</time>
      </trkpt>
      <trkpt lat="44.70351" lon="1.30911">
        <ele>205</ele>
        <time>2024-03-10T19:14:09Z</time>
      </trkpt>
      <trkpt lat="44.70337" lon="1.30904">
        <ele>207</ele>
        <time>2024-03-10T19:14:13Z</time>
      </trkpt>
      <trkpt lat="44.7031" lon="1.30879">
        <ele>213</ele>
        <time>2024-03-10T19:14:20Z</time>
      </trkpt>
      <trkpt lat="44.70268" lon="1.30856">
        <ele>222</ele>
        <time>2024-03-10T19:14:31Z</time>
      </trkpt>
      <trkpt lat="44.70253" lon="1.30842">
        <ele>225</ele>
        <time>2024-03-10T19:14:35Z</time>
      </trkpt>
      <trkpt lat="44.70229" lon="1.30839">
        <ele>229</ele>
        <time>2024-03-10T19:14:41Z</time>
      </trkpt>
      <trkpt lat="44.70202" lon="1.30817">
        <ele>234</ele>
        <time>2024-03-10T19:14:48Z</time>
      </trkpt>
      <trkpt lat="44.70182" lon="1.30787">
        <ele>237</ele>
        <time>2024-03-10T19:14:55Z</time>
      </trkpt>
      <trkpt lat="44.70168" lon="1.30739">
        <ele>238</ele>
        <time>2024-03-10T19:15:03Z</time>
      </trkpt>
      <trkpt lat="44.70127" lon="1.30678">
        <ele>237</ele>
        <time>2024-03-10T19:15:17Z</time>
      </trkpt>
      <trkpt lat="44.7012" lon="1.30573">
        <ele>228</ele>
        <time>2024-03-10T19:15:35Z</time>
      </trkpt>
      <trkpt lat="44.70089" lon="1.30353">
        <ele>213</ele>
        <time>2024-03-10T19:16:12Z</time>
      </trkpt>
      <trkpt lat="44.69967" lon="1.30269">
        <ele>204</ele>
        <time>2024-03-10T19:16:44Z</time>
      </trkpt>
      <trkpt lat="44.69918" lon="1.30199">
        <ele>195</ele>
        <time>2024-03-10T19:17:00Z</time>
      </trkpt>
      <trkpt lat="44.69891" lon="1.30122">
        <ele>193</ele>
        <time>2024-03-10T19:17:14Z</time>
      </trkpt>
      <trkpt lat="44.69862" lon="1.30065">
        <ele>184</ele>
        <time>2024-03-10T19:17:26Z</time>
      </trkpt>
      <trkpt lat="44.6984" lon="1.30036">
        <ele>178</ele>
        <time>2024-03-10T19:17:33Z</time>
      </trkpt>
      <trkpt lat="44.69832" lon="1.30003">
        <ele>174</ele>
        <time>2024-03-10T19:17:39Z</time>
      </trkpt>
      <trkpt lat="44.69833" lon="1.29943">
        <ele>167</ele>
        <time>2024-03-10T19:17:49Z</time>
      </trkpt>
      <trkpt lat="44.69839" lon="1.29907">
        <ele>164</ele>
        <time>2024-03-10T19:17:55Z</time>
      </trkpt>
      <trkpt lat="44.6985" lon="1.29869">
        <ele>160</ele>
        <time>2024-03-10T19:18:02Z</time>
      </trkpt>
      <trkpt lat="44.69867" lon="1.2984">
        <ele>156</ele>
        <time>2024-03-10T19:18:08Z</time>
      </trkpt>
      <trkpt lat="44.69879" lon="1.29828">
        <ele>155</ele>
        <time>2024-03-10T19:18:11Z</time>
      </trkpt>
      <trkpt lat="44.69987" lon="1.29793">
        <ele>156</ele>
        <time>2024-03-10T19:18:37Z</time>
      </trkpt>
      <trkpt lat="44.70065" lon="1.29783">
        <ele>159</ele>
        <time>2024-03-10T19:18:56Z</time>
      </trkpt>
      <trkpt lat="44.70138" lon="1.29753">
        <ele>158</ele>
        <time>2024-03-10T19:19:13Z</time>
      </trkpt>
      <trkpt lat="44.70194" lon="1.29721">
        <ele>159</ele>
        <time>2024-03-10T19:19:27Z</time>
      </trkpt>
      <trkpt lat="44.70258" lon="1.2966">
        <ele>149</ele>
        <time>2024-03-10T19:19:45Z</time>
      </trkpt>
      <trkpt lat="44.70248" lon="1.29648">
        <ele>147</ele>
        <time>2024-03-10T19:19:49Z</time>
      </trkpt>
      <trkpt lat="44.7017" lon="1.29604">
        <ele>141</ele>
        <time>2024-03-10T19:20:08Z</time>
      </trkpt>
      <trkpt lat="44.70137" lon="1.296">
        <ele>141</ele>
        <time>2024-03-10T19:20:16Z</time>
      </trkpt>
      <trkpt lat="44.70078" lon="1.29603">
        <ele>142</ele>
        <time>2024-03-10T19:20:30Z</time>
      </trkpt>
      <trkpt lat="44.70097" lon="1.29542">
        <ele>147</ele>
        <time>2024-03-10T19:20:41Z</time>
      </trkpt>
      <trkpt lat="44.70112" lon="1.29508">
        <ele>149</ele>
        <time>2024-03-10T19:20:47Z</time>
      </trkpt>
      <trkpt lat="44.70152" lon="1.29447">
        <ele>149</ele>
        <time>2024-03-10T19:21:01Z</time>
      </trkpt>
      <trkpt lat="44.70175" lon="1.29427">
        <ele>149</ele>
        <time>2024-03-10T19:21:07Z</time>
      </trkpt>
      <trkpt lat="44.70206" lon="1.29426">
        <ele>148</ele>
        <time>2024-03-10T19:21:15Z</time>
      </trkpt>
      <trkpt lat="44.7023" lon="1.29419">
        <ele>148</ele>
        <time>2024-03-10T19:21:20Z</time>
      </trkpt>
      <trkpt lat="44.70282" lon="1.29398">
        <ele>149</ele>
        <time>2024-03-10T19:21:33Z</time>
      </trkpt>
      <trkpt lat="44.70325" lon="1.29372">
        <ele>150</ele>
        <time>2024-03-10T19:21:44Z</time>
      </trkpt>
      <trkpt lat="44.70375" lon="1.29332">
        <ele>151</ele>
        <time>2024-03-10T19:21:57Z</time>
      </trkpt>
      <trkpt lat="44.70437" lon="1.29302">
        <ele>153</ele>
        <time>2024-03-10T19:22:13Z</time>
      </trkpt>
      <trkpt lat="44.70485" lon="1.29289">
        <ele>151</ele>
        <time>2024-03-10T19:22:24Z</time>
      </trkpt>
      <trkpt lat="44.70587" lon="1.2922">
        <ele>150</ele>
        <time>2024-03-10T19:22:51Z</time>
      </trkpt>
      <trkpt lat="44.7065" lon="1.29115">
        <ele>148</ele>
        <time>2024-03-10T19:23:13Z</time>
      </trkpt>
      <trkpt lat="44.70661" lon="1.29079">
        <ele>147</ele>
        <time>2024-03-10T19:23:20Z</time>
      </trkpt>
      <trkpt lat="44.70665" lon="1.28984">
        <ele>151</ele>
        <time>2024-03-10T19:23:36Z</time>
      </trkpt>
      <trkpt lat="44.70685" lon="1.28894">
        <ele>152</ele>
        <time>2024-03-10T19:23:51Z</time>
      </trkpt>
      <trkpt lat="44.70716" lon="1.28844">
        <ele>151</ele>
        <time>2024-03-10T19:24:02Z</time>
      </trkpt>
      <trkpt lat="44.70743" lon="1.28821">
        <ele>152</ele>
        <time>2024-03-10T19:24:10Z</time>
      </trkpt>
      <trkpt lat="44.70818" lon="1.28793">
        <ele>152</ele>
        <time>2024-03-10T19:24:28Z</time>
      </trkpt>
      <trkpt lat="44.70963" lon="1.28753">
        <ele>144</ele>
        <time>2024-03-10T19:25:02Z</time>
      </trkpt>
      <trkpt lat="44.71056" lon="1.28692">
        <ele>145</ele>
        <time>2024-03-10T19:25:26Z</time>
      </trkpt>
      <trkpt lat="44.71069" lon="1.28608">
        <ele>155</ele>
        <time>2024-03-10T19:25:41Z</time>
      </trkpt>
      <trkpt lat="44.71099" lon="1.28548">
        <ele>158</ele>
        <time>2024-03-10T19:25:53Z</time>
      </trkpt>
      <trkpt lat="44.7121" lon="1.28435">
        <ele>150</ele>
        <time>2024-03-10T19:26:25Z</time>
      </trkpt>
      <trkpt lat="44.71253" lon="1.28401">
        <ele>144</ele>
        <time>2024-03-10T19:26:36Z</time>
      </trkpt>
      <trkpt lat="44.7122" lon="1.28365">
        <ele>150</ele>
        <time>2024-03-10T19:26:46Z</time>
      </trkpt>
      <trkpt lat="44.71172" lon="1.28343">
        <ele>156</ele>
        <time>2024-03-10T19:26:58Z</time>
      </trkpt>
      <trkpt lat="44.71036" lon="1.28304">
        <ele>174</ele>
        <time>2024-03-10T19:27:30Z</time>
      </trkpt>
      <trkpt lat="44.71001" lon="1.28287">
        <ele>177</ele>
        <time>2024-03-10T19:27:39Z</time>
      </trkpt>
      <trkpt lat="44.70942" lon="1.28283">
        <ele>187</ele>
        <time>2024-03-10T19:27:53Z</time>
      </trkpt>
      <trkpt lat="44.70845" lon="1.28257">
        <ele>200</ele>
        <time>2024-03-10T19:28:16Z</time>
      </trkpt>
      <trkpt lat="44.7081" lon="1.28278">
        <ele>206</ele>
        <time>2024-03-10T19:28:25Z</time>
      </trkpt>
      <trkpt lat="44.70841" lon="1.28388">
        <ele>214</ele>
        <time>2024-03-10T19:28:44Z</time>
      </trkpt>
      <trkpt lat="44.70812" lon="1.28404">
        <ele>215</ele>
        <time>2024-03-10T19:28:52Z</time>
      </trkpt>
      <trkpt lat="44.70668" lon="1.28257">
        <ele>213</ele>
        <time>2024-03-10T19:29:33Z</time>
      </trkpt>
      <trkpt lat="44.70662" lon="1.2824">
        <ele>215</ele>
        <time>2024-03-10T19:29:36Z</time>
      </trkpt>
      <trkpt lat="44.70661" lon="1.2822">
        <ele>216</ele>
        <time>2024-03-10T19:29:40Z</time>
      </trkpt>
      <trkpt lat="44.70666" lon="1.28201">
        <ele>218</ele>
        <time>2024-03-10T19:29:43Z</time>
      </trkpt>
      <trkpt lat="44.70665" lon="1.28165">
        <ele>220</ele>
        <time>2024-03-10T19:29:49Z</time>
      </trkpt>
      <trkpt lat="44.70642" lon="1.28121">
        <ele>222</ele>
        <time>2024-03-10T19:29:58Z</time>
      </trkpt>
      <trkpt lat="44.7063" lon="1.28108">
        <ele>223</ele>
        <time>2024-03-10T19:30:02Z</time>
      </trkpt>
      <trkpt lat="44.70603" lon="1.28098">
        <ele>226</ele>
        <time>2024-03-10T19:30:08Z</time>
      </trkpt>
      <trkpt lat="44.70564" lon="1.28091">
        <ele>229</ele>
        <time>2024-03-10T19:30:17Z</time>
      </trkpt>
      <trkpt lat="44.70455" lon="1.28019">
        <ele>236</ele>
        <time>2024-03-10T19:30:45Z</time>
      </trkpt>
      <trkpt lat="44.70454" lon="1.28047">
        <ele>235</ele>
        <time>2024-03-10T19:30:50Z</time>
      </trkpt>
      <trkpt lat="44.70446" lon="1.28097">
        <ele>233</ele>
        <time>2024-03-10T19:30:58Z</time>
      </trkpt>
      <trkpt lat="44.70432" lon="1.28128">
        <ele>231</ele>
        <time>2024-03-10T19:31:05Z</time>
      </trkpt>
      <trkpt lat="44.70432" lon="1.28149">
        <ele>230</ele>
        <time>2024-03-10T19:31:08Z</time>
      </trkpt>
      <trkpt lat="44.70466" lon="1.28258">
        <ele>226</ele>
        <time>2024-03-10T19:31:28Z</time>
      </trkpt>
      <trkpt lat="44.704" lon="1.28369">
        <ele>220</ele>
        <time>2024-03-10T19:31:52Z</time>
      </trkpt>
      <trkpt lat="44.70397" lon="1.28388">
        <ele>218</ele>
        <time>2024-03-10T19:31:55Z</time>
      </trkpt>
      <trkpt lat="44.70404" lon="1.28478">
        <ele>214</ele>
        <time>2024-03-10T19:32:10Z</time>
      </trkpt>
      <trkpt lat="44.70412" lon="1.28499">
        <ele>214</ele>
        <time>2024-03-10T19:32:14Z</time>
      </trkpt>
      <trkpt lat="44.70423" lon="1.28519">
        <ele>214</ele>
        <time>2024-03-10T19:32:18Z</time>
      </trkpt>
      <trkpt lat="44.70426" lon="1.28543">
        <ele>213</ele>
        <time>2024-03-10T19:32:22Z</time>
      </trkpt>
      <trkpt lat="44.70394" lon="1.28558">
        <ele>212</ele>
        <time>2024-03-10T19:32:30Z</time>
      </trkpt>
      <trkpt lat="44.70294" lon="1.2854">
        <ele>206</ele>
        <time>2024-03-10T19:32:54Z</time>
      </trkpt>
      <trkpt lat="44.70213" lon="1.28566">
        <ele>204</ele>
        <time>2024-03-10T19:33:13Z</time>
      </trkpt>
      <trkpt lat="44.70203" lon="1.28555">
        <ele>205</ele>
        <time>2024-03-10T19:33:16Z</time>
      </trkpt>
      <trkpt lat="44.70173" lon="1.28538">
        <ele>207</ele>
        <time>2024-03-10T19:33:24Z</time>
      </trkpt>
      <trkpt lat="44.70146" lon="1.28529">
        <ele>210</ele>
        <time>2024-03-10T19:33:30Z</time>
      </trkpt>
      <trkpt lat="44.70125" lon="1.28529">
        <ele>213</ele>
        <time>2024-03-10T19:33:35Z</time>
      </trkpt>
      <trkpt lat="44.70114" lon="1.28535">
        <ele>215</ele>
        <time>2024-03-10T19:33:38Z</time>
      </trkpt>
      <trkpt lat="44.70095" lon="1.28558">
        <ele>218</ele>
        <time>2024-03-10T19:33:44Z</time>
      </trkpt>
      <trkpt lat="44.70082" lon="1.28564">
        <ele>220</ele>
        <time>2024-03-10T19:33:47Z</time>
      </trkpt>
      <trkpt lat="44.70033" lon="1.28563">
        <ele>225</ele>
        <time>2024-03-10T19:33:58Z</time>
      </trkpt>
      <trkpt lat="44.70008" lon="1.28558">
        <ele>228</ele>
        <time>2024-03-10T19:34:04Z</time>
      </trkpt>
      <trkpt lat="44.69976" lon="1.28548">
        <ele>229</ele>
        <time>2024-03-10T19:34:12Z</time>
      </trkpt>
      <trkpt lat="44.69964" lon="1.28558">
        <ele>229</ele>
        <time>2024-03-10T19:34:15Z</time>
      </trkpt>
      <trkpt lat="44.69956" lon="1.28572">
        <ele>229</ele>
        <time>2024-03-10T19:34:18Z</time>
      </trkpt>
      <trkpt lat="44.69931" lon="1.28601">
        <ele>230</ele>
        <time>2024-03-10T19:34:26Z</time>
      </trkpt>
      <trkpt lat="44.69923" lon="1.28615">
        <ele>231</ele>
        <time>2024-03-10T19:34:29Z</time>
      </trkpt>
      <trkpt lat="44.69923" lon="1.28636">
        <ele>232</ele>
        <time>2024-03-10T19:34:32Z</time>
      </trkpt>
      <trkpt lat="44.69931" lon="1.28647">
        <ele>232</ele>
        <time>2024-03-10T19:34:35Z</time>
      </trkpt>
      <trkpt lat="44.69934" lon="1.28662">
        <ele>232</ele>
        <time>2024-03-10T19:34:37Z</time>
      </trkpt>
      <trkpt lat="44.69931" lon="1.28676">
        <ele>232</ele>
        <time>2024-03-10T19:34:40Z</time>
      </trkpt>
      <trkpt lat="44.69926" lon="1.28684">
        <ele>233</ele>
        <time>2024-03-10T19:34:41Z</time>
      </trkpt>
      <trkpt lat="44.69919" lon="1.28689">
        <ele>233</ele>
        <time>2024-03-10T19:34:43Z</time>
      </trkpt>
      <trkpt lat="44.69915" lon="1.28702">
        <ele>233</ele>
        <time>2024-03-10T19:34:46Z</time>
      </trkpt>
      <trkpt lat="44.69903" lon="1.28716">
        <ele>232</ele>
        <time>2024-03-10T19:34:49Z</time>
      </trkpt>
      <trkpt lat="44.69898" lon="1.28729">
        <ele>231</ele>
        <time>2024-03-10T19:34:52Z</time>
      </trkpt>
      <trkpt lat="44.6988" lon="1.28793">
        <ele>231</ele>
        <time>2024-03-10T19:35:03Z</time>
      </trkpt>
      <trkpt lat="44.69869" lon="1.28884">
        <ele>233</ele>
        <time>2024-03-10T19:35:19Z</time>
      </trkpt>
      <trkpt lat="44.69861" lon="1.2889">
        <ele>233</ele>
        <time>2024-03-10T19:35:21Z</time>
      </trkpt>
      <trkpt lat="44.69849" lon="1.28888">
        <ele>234</ele>
        <time>2024-03-10T19:35:23Z</time>
      </trkpt>
      <trkpt lat="44.69831" lon="1.28881">
        <ele>233</ele>
        <time>2024-03-10T19:35:28Z</time>
      </trkpt>
      <trkpt lat="44.69816" lon="1.28915">
        <ele>233</ele>
        <time>2024-03-10T19:35:34Z</time>
      </trkpt>
      <trkpt lat="44.69798" lon="1.28981">
        <ele>235</ele>
        <time>2024-03-10T19:35:46Z</time>
      </trkpt>
      <trkpt lat="44.69795" lon="1.29">
        <ele>236</ele>
        <time>2024-03-10T19:35:49Z</time>
      </trkpt>
      <trkpt lat="44.69783" lon="1.29007">
        <ele>236</ele>
        <time>2024-03-10T19:35:52Z</time>
      </trkpt>
      <trkpt lat="44.69771" lon="1.29024">
        <ele>236</ele>
        <time>2024-03-10T19:35:56Z</time>
      </trkpt>
      <trkpt lat="44.69763" lon="1.29051">
        <ele>237</ele>
        <time>2024-03-10T19:36:01Z</time>
      </trkpt>
      <trkpt lat="44.69738" lon="1.29089">
        <ele>236</ele>
        <time>2024-03-10T19:36:10Z</time>
      </trkpt>
      <trkpt lat="44.69731" lon="1.29085">
        <ele>234</ele>
        <time>2024-03-10T19:36:12Z</time>
      </trkpt>
      <trkpt lat="44.69719" lon="1.29064">
        <ele>231</ele>
        <time>2024-03-10T19:36:16Z</time>
      </trkpt>
      <trkpt lat="44.69716" lon="1.29037">
        <ele>229</ele>
        <time>2024-03-10T19:36:21Z</time>
      </trkpt>
      <trkpt lat="44.69697" lon="1.28983">
        <ele>222</ele>
        <time>2024-03-10T19:36:31Z</time>
      </trkpt>
      <trkpt lat="44.69687" lon="1.28942">
        <ele>217</ele>
        <time>2024-03-10T19:36:38Z</time>
      </trkpt>
      <trkpt lat="44.69655" lon="1.28898">
        <ele>208</ele>
        <time>2024-03-10T19:36:48Z</time>
      </trkpt>
      <trkpt lat="44.69607" lon="1.28873">
        <ele>194</ele>
        <time>2024-03-10T19:37:00Z</time>
      </trkpt>
      <trkpt lat="44.69595" lon="1.28859">
        <ele>190</ele>
        <time>2024-03-10T19:37:04Z</time>
      </trkpt>
      <trkpt lat="44.69591" lon="1.28841">
        <ele>190</ele>
        <time>2024-03-10T19:37:07Z</time>
      </trkpt>
      <trkpt lat="44.69589" lon="1.28815">
        <ele>191</ele>
        <time>2024-03-10T19:37:11Z</time>
      </trkpt>
      <trkpt lat="44.69599" lon="1.28784">
        <ele>195</ele>
        <time>2024-03-10T19:37:17Z</time>
      </trkpt>
      <trkpt lat="44.69612" lon="1.28771">
        <ele>198</ele>
        <time>2024-03-10T19:37:21Z</time>
      </trkpt>
      <trkpt lat="44.69613" lon="1.28755">
        <ele>198</ele>
        <time>2024-03-10T19:37:23Z</time>
      </trkpt>
      <trkpt lat="44.69625" lon="1.28723">
        <ele>200</ele>
        <time>2024-03-10T19:37:29Z</time>
      </trkpt>
      <trkpt lat="44.69652" lon="1.28703">
        <ele>204</ele>
        <time>2024-03-10T19:37:37Z</time>
      </trkpt>
      <trkpt lat="44.69677" lon="1.28705">
        <ele>207</ele>
        <time>2024-03-10T19:37:42Z</time>
      </trkpt>
      <trkpt lat="44.69703" lon="1.28682">
        <ele>209</ele>
        <time>2024-03-10T19:37:50Z</time>
      </trkpt>
      <trkpt lat="44.69723" lon="1.28653">
        <ele>210</ele>
        <time>2024-03-10T19:37:56Z</time>
      </trkpt>
      <trkpt lat="44.69732" lon="1.28618">
        <ele>209</ele>
        <time>2024-03-10T19:38:02Z</time>
      </trkpt>
      <trkpt lat="44.6964" lon="1.28567">
        <ele>192</ele>
        <time>2024-03-10T19:38:26Z</time>
      </trkpt>
      <trkpt lat="44.69624" lon="1.28565">
        <ele>191</ele>
        <time>2024-03-10T19:38:29Z</time>
      </trkpt>
      <trkpt lat="44.69579" lon="1.2853">
        <ele>183</ele>
        <time>2024-03-10T19:38:41Z</time>
      </trkpt>
      <trkpt lat="44.69558" lon="1.28526">
        <ele>180</ele>
        <time>2024-03-10T19:38:46Z</time>
      </trkpt>
      <trkpt lat="44.69507" lon="1.28522">
        <ele>174</ele>
        <time>2024-03-10T19:38:58Z</time>
      </trkpt>
      <trkpt lat="44.69498" lon="1.28519">
        <ele>173</ele>
        <time>2024-03-10T19:39:00Z</time>
      </trkpt>
      <trkpt lat="44.69472" lon="1.2855">
        <ele>170</ele>
        <time>2024-03-10T19:39:08Z</time>
      </trkpt>
      <trkpt lat="44.69403" lon="1.28608">
        <ele>157</ele>
        <time>2024-03-10T19:39:27Z</time>
      </trkpt>
      <trkpt lat="44.69383" lon="1.2861">
        <ele>154</ele>
        <time>2024-03-10T19:39:32Z</time>
      </trkpt>
      <trkpt lat="44.69347" lon="1.28559">
        <ele>151</ele>
        <time>2024-03-10T19:39:44Z</time>
      </trkpt>
      <trkpt lat="44.69346" lon="1.2855">
        <ele>151</ele>
        <time>2024-03-10T19:39:45Z</time>
      </trkpt>
      <trkpt lat="44.69336" lon="1.28535">
        <ele>151</ele>
        <time>2024-03-10T19:39:49Z</time>
      </trkpt>
      <trkpt lat="44.69344" lon="1.28518">
        <ele>153</ele>
        <time>2024-03-10T19:39:52Z</time>
      </trkpt>
      <trkpt lat="44.69327" lon="1.28484">
        <ele>155</ele>
        <time>2024-03-10T19:39:59Z</time>
      </trkpt>
      <trkpt lat="44.69305" lon="1.28415">
        <ele>159</ele>
        <time>2024-03-10T19:40:11Z</time>
      </trkpt>
      <trkpt lat="44.69299" lon="1.28387">
        <ele>160</ele>
        <time>2024-03-10T19:40:16Z</time>
      </trkpt>
      <trkpt lat="44.69282" lon="1.2833">
        <ele>162</ele>
        <time>2024-03-10T19:40:27Z</time>
      </trkpt>
      <trkpt lat="44.69282" lon="1.28275">
        <ele>168</ele>
        <time>2024-03-10T19:40:36Z</time>
      </trkpt>
      <trkpt lat="44.69276" lon="1.28255">
        <ele>170</ele>
        <time>2024-03-10T19:40:39Z</time>
      </trkpt>
      <trkpt lat="44.69251" lon="1.28224">
        <ele>173</ele>
        <time>2024-03-10T19:40:47Z</time>
      </trkpt>
      <trkpt lat="44.69211" lon="1.28073">
        <ele>182</ele>
        <time>2024-03-10T19:41:14Z</time>
      </trkpt>
      <trkpt lat="44.69199" lon="1.28019">
        <ele>186</ele>
        <time>2024-03-10T19:41:23Z</time>
      </trkpt>
      <trkpt lat="44.69193" lon="1.27976">
        <ele>189</ele>
        <time>2024-03-10T19:41:31Z</time>
      </trkpt>
      <trkpt lat="44.69143" lon="1.27815">
        <ele>185</ele>
        <time>2024-03-10T19:42:00Z</time>
      </trkpt>
      <trkpt lat="44.69139" lon="1.27766">
        <ele>182</ele>
        <time>2024-03-10T19:42:08Z</time>
      </trkpt>
      <trkpt lat="44.69145" lon="1.27743">
        <ele>182</ele>
        <time>2024-03-10T19:42:12Z</time>
      </trkpt>
      <trkpt lat="44.69144" lon="1.27725">
        <ele>180</ele>
        <time>2024-03-10T19:42:15Z</time>
      </trkpt>
      <trkpt lat="44.69158" lon="1.27721">
        <ele>183</ele>
        <time>2024-03-10T19:42:18Z</time>
      </trkpt>
      <trkpt lat="44.69215" lon="1.27713">
        <ele>192</ele>
        <time>2024-03-10T19:42:32Z</time>
      </trkpt>
      <trkpt lat="44.69252" lon="1.27716">
        <ele>198</ele>
        <time>2024-03-10T19:42:40Z</time>
      </trkpt>
      <trkpt lat="44.693" lon="1.27707">
        <ele>203</ele>
        <time>2024-03-10T19:42:52Z</time>
      </trkpt>
      <trkpt lat="44.69317" lon="1.27683">
        <ele>205</ele>
        <time>2024-03-10T19:42:57Z</time>
      </trkpt>
      <trkpt lat="44.69343" lon="1.27635">
        <ele>211</ele>
        <time>2024-03-10T19:43:07Z</time>
      </trkpt>
      <trkpt lat="44.69363" lon="1.27578">
        <ele>218</ele>
        <time>2024-03-10T19:43:18Z</time>
      </trkpt>
      <trkpt lat="44.69403" lon="1.27503">
        <ele>226</ele>
        <time>2024-03-10T19:43:33Z</time>
      </trkpt>
      <trkpt lat="44.69422" lon="1.27491">
        <ele>228</ele>
        <time>2024-03-10T19:43:38Z</time>
      </trkpt>
      <trkpt lat="44.69475" lon="1.27429">
        <ele>229</ele>
        <time>2024-03-10T19:43:54Z</time>
      </trkpt>
      <trkpt lat="44.69444" lon="1.2736">
        <ele>226</ele>
        <time>2024-03-10T19:44:08Z</time>
      </trkpt>
      <trkpt lat="44.69424" lon="1.2734">
        <ele>224</ele>
        <time>2024-03-10T19:44:14Z</time>
      </trkpt>
      <trkpt lat="44.69376" lon="1.27303">
        <ele>217</ele>
        <time>2024-03-10T19:44:26Z</time>
      </trkpt>
      <trkpt lat="44.69351" lon="1.27299">
        <ele>216</ele>
        <time>2024-03-10T19:44:32Z</time>
      </trkpt>
      <trkpt lat="44.69325" lon="1.27328">
        <ele>212</ele>
        <time>2024-03-10T19:44:40Z</time>
      </trkpt>
      <trkpt lat="44.69301" lon="1.27343">
        <ele>206</ele>
        <time>2024-03-10T19:44:46Z</time>
      </trkpt>
      <trkpt lat="44.69271" lon="1.27356">
        <ele>199</ele>
        <time>2024-03-10T19:44:53Z</time>
      </trkpt>
      <trkpt lat="44.69253" lon="1.27352">
        <ele>194</ele>
        <time>2024-03-10T19:44:58Z</time>
      </trkpt>
      <trkpt lat="44.69234" lon="1.27339">
        <ele>190</ele>
        <time>2024-03-10T19:45:03Z</time>
      </trkpt>
      <trkpt lat="44.69198" lon="1.27299">
        <ele>183</ele>
        <time>2024-03-10T19:45:13Z</time>
      </trkpt>
      <trkpt lat="44.69166" lon="1.27284">
        <ele>177</ele>
        <time>2024-03-10T19:45:21Z</time>
      </trkpt>
      <trkpt lat="44.69154" lon="1.27287">
        <ele>176</ele>
        <time>2024-03-10T19:45:24Z</time>
      </trkpt>
      <trkpt lat="44.69137" lon="1.27312">
        <ele>174</ele>
        <time>2024-03-10T19:45:30Z</time>
      </trkpt>
      <trkpt lat="44.69122" lon="1.27317">
        <ele>173</ele>
        <time>2024-03-10T19:45:33Z</time>
      </trkpt>
      <trkpt lat="44.69061" lon="1.27313">
        <ele>171</ele>
        <time>2024-03-10T19:45:48Z</time>
      </trkpt>
      <trkpt lat="44.69042" lon="1.27317">
        <ele>171</ele>
        <time>2024-03-10T19:45:52Z</time>
      </trkpt>
      <trkpt lat="44.68995" lon="1.27346">
        <ele>170</ele>
        <time>2024-03-10T19:46:04Z</time>
      </trkpt>
      <trkpt lat="44.68976" lon="1.27352">
        <ele>170</ele>
        <time>2024-03-10T19:46:09Z</time>
      </trkpt>
      <trkpt lat="44.68958" lon="1.27348">
        <ele>170</ele>
        <time>2024-03-10T19:46:13Z</time>
      </trkpt>
      <trkpt lat="44.68932" lon="1.27323">
        <ele>171</ele>
        <time>2024-03-10T19:46:20Z</time>
      </trkpt>
      <trkpt lat="44.68961" lon="1.27247">
        <ele>177</ele>
        <time>2024-03-10T19:46:35Z</time>
      </trkpt>
      <trkpt lat="44.68997" lon="1.27132">
        <ele>182</ele>
        <time>2024-03-10T19:46:56Z</time>
      </trkpt>
      <trkpt lat="44.69006" lon="1.27092">
        <ele>184</ele>
        <time>2024-03-10T19:47:02Z</time>
      </trkpt>
      <trkpt lat="44.69006" lon="1.27063">
        <ele>186</ele>
        <time>2024-03-10T19:47:07Z</time>
      </trkpt>
      <trkpt lat="44.68967" lon="1.26933">
        <ele>189</ele>
        <time>2024-03-10T19:47:31Z</time>
      </trkpt>
      <trkpt lat="44.68926" lon="1.26833">
        <ele>196</ele>
        <time>2024-03-10T19:47:50Z</time>
      </trkpt>
      <trkpt lat="44.68788" lon="1.2691">
        <ele>189</ele>
        <time>2024-03-10T19:48:25Z</time>
      </trkpt>
      <trkpt lat="44.68772" lon="1.26915">
        <ele>190</ele>
        <time>2024-03-10T19:48:28Z</time>
      </trkpt>
      <trkpt lat="44.68683" lon="1.26931">
        <ele>186</ele>
        <time>2024-03-10T19:48:49Z</time>
      </trkpt>
      <trkpt lat="44.68552" lon="1.26977">
        <ele>170</ele>
        <time>2024-03-10T19:49:21Z</time>
      </trkpt>
      <trkpt lat="44.68514" lon="1.26988">
        <ele>168</ele>
        <time>2024-03-10T19:49:30Z</time>
      </trkpt>
      <trkpt lat="44.68489" lon="1.26985">
        <ele>166</ele>
        <time>2024-03-10T19:49:36Z</time>
      </trkpt>
      <trkpt lat="44.68465" lon="1.26988">
        <ele>163</ele>
        <time>2024-03-10T19:49:41Z</time>
      </trkpt>
      <trkpt lat="44.68417" lon="1.26956">
        <ele>161</ele>
        <time>2024-03-10T19:49:54Z</time>
      </trkpt>
      <trkpt lat="44.68406" lon="1.26975">
        <ele>158</ele>
        <time>2024-03-10T19:49:58Z</time>
      </trkpt>
      <trkpt lat="44.68231" lon="1.26804">
        <ele>156</ele>
        <time>2024-03-10T19:50:48Z</time>
      </trkpt>
      <trkpt lat="44.68269" lon="1.26688">
        <ele>157</ele>
        <time>2024-03-10T19:51:09Z</time>
      </trkpt>
      <trkpt lat="44.68261" lon="1.26674">
        <ele>157</ele>
        <time>2024-03-10T19:51:12Z</time>
      </trkpt>
      <trkpt lat="44.68253" lon="1.26666">
        <ele>157</ele>
        <time>2024-03-10T19:51:14Z</time>
      </trkpt>
      <trkpt lat="44.68231" lon="1.26619">
        <ele>157</ele>
        <time>2024-03-10T19:51:23Z</time>
      </trkpt>
      <trkpt lat="44.68201" lon="1.26564">
        <ele>159</ele>
        <time>2024-03-10T19:51:35Z</time>
      </trkpt>
      <trkpt lat="44.68139" lon="1.26548">
        <ele>162</ele>
        <time>2024-03-10T19:51:50Z</time>
      </trkpt>
      <trkpt lat="44.68139" lon="1.26513">
        <ele>162</ele>
        <time>2024-03-10T19:51:56Z</time>
      </trkpt>
      <trkpt lat="44.68126" lon="1.26437">
        <ele>163</ele>
        <time>2024-03-10T19:52:09Z</time>
      </trkpt>
      <trkpt lat="44.68143" lon="1.26425">
        <ele>162</ele>
        <time>2024-03-10T19:52:13Z</time>
      </trkpt>
      <trkpt lat="44.68149" lon="1.26414">
        <ele>161</ele>
        <time>2024-03-10T19:52:15Z</time>
      </trkpt>
      <trkpt lat="44.68148" lon="1.26369">
        <ele>162</ele>
        <time>2024-03-10T19:52:23Z</time>
      </trkpt>
      <trkpt lat="44.68141" lon="1.26336">
        <ele>162</ele>
        <time>2024-03-10T19:52:28Z</time>
      </trkpt>
      <trkpt lat="44.68129" lon="1.26297">
        <ele>163</ele>
        <time>2024-03-10T19:52:36Z</time>
      </trkpt>
      <trkpt lat="44.68105" lon="1.26077">
        <ele>163</ele>
        <time>2024-03-10T19:53:12Z</time>
      </trkpt>
      <trkpt lat="44.68094" lon="1.26057">
        <ele>163</ele>
        <time>2024-03-10T19:53:17Z</time>
      </trkpt>
      <trkpt lat="44.68071" lon="1.26049">
        <ele>164</ele>
        <time>2024-03-10T19:53:22Z</time>
      </trkpt>
      <trkpt lat="44.68011" lon="1.26052">
        <ele>166</ele>
        <time>2024-03-10T19:53:36Z</time>
      </trkpt>
      <trkpt lat="44.68001" lon="1.26038">
        <ele>167</ele>
        <time>2024-03-10T19:53:40Z</time>
      </trkpt>
      <trkpt lat="44.67995" lon="1.26006">
        <ele>167</ele>
        <time>2024-03-10T19:53:45Z</time>
      </trkpt>
      <trkpt lat="44.67976" lon="1.25945">
        <ele>169</ele>
        <time>2024-03-10T19:53:56Z</time>
      </trkpt>
      <trkpt lat="44.67948" lon="1.25912">
        <ele>173</ele>
        <time>2024-03-10T19:54:05Z</time>
      </trkpt>
      <trkpt lat="44.67915" lon="1.25893">
        <ele>176</ele>
        <time>2024-03-10T19:54:13Z</time>
      </trkpt>
      <trkpt lat="44.67848" lon="1.25889">
        <ele>177</ele>
        <time>2024-03-10T19:54:29Z</time>
      </trkpt>
      <trkpt lat="44.67812" lon="1.25873">
        <ele>178</ele>
        <time>2024-03-10T19:54:37Z</time>
      </trkpt>
      <trkpt lat="44.67805" lon="1.25881">
        <ele>178</ele>
        <time>2024-03-10T19:54:40Z</time>
      </trkpt>
      <trkpt lat="44.67775" lon="1.25889">
        <ele>179</ele>
        <time>2024-03-10T19:54:47Z</time>
      </trkpt>
      <trkpt lat="44.67745" lon="1.25887">
        <ele>181</ele>
        <time>2024-03-10T19:54:54Z</time>
      </trkpt>
      <trkpt lat="44.67733" lon="1.25939">
        <ele>181</ele>
        <time>2024-03-10T19:55:03Z</time>
      </trkpt>
      <trkpt lat="44.67624" lon="1.25874">
        <ele>189</ele>
        <time>2024-03-10T19:55:30Z</time>
      </trkpt>
      <trkpt lat="44.67594" lon="1.25851">
        <ele>190</ele>
        <time>2024-03-10T19:55:38Z</time>
      </trkpt>
      <trkpt lat="44.6751" lon="1.25811">
        <ele>192</ele>
        <time>2024-03-10T19:55:59Z</time>
      </trkpt>
      <trkpt lat="44.67478" lon="1.25812">
        <ele>194</ele>
        <time>2024-03-10T19:56:07Z</time>
      </trkpt>
      <trkpt lat="44.67412" lon="1.2575">
        <ele>198</ele>
        <time>2024-03-10T19:56:25Z</time>
      </trkpt>
      <trkpt lat="44.6735" lon="1.25711">
        <ele>204</ele>
        <time>2024-03-10T19:56:41Z</time>
      </trkpt>
      <trkpt lat="44.67238" lon="1.256">
        <ele>209</ele>
        <time>2024-03-10T19:57:13Z</time>
      </trkpt>
      <trkpt lat="44.67127" lon="1.25598">
        <ele>216</ele>
        <time>2024-03-10T19:57:39Z</time>
      </trkpt>
      <trkpt lat="44.67042" lon="1.25541">
        <ele>226</ele>
        <time>2024-03-10T19:58:01Z</time>
      </trkpt>
      <trkpt lat="44.66915" lon="1.2548">
        <ele>233</ele>
        <time>2024-03-10T19:58:32Z</time>
      </trkpt>
      <trkpt lat="44.66761" lon="1.25435">
        <ele>246</ele>
        <time>2024-03-10T19:59:09Z</time>
      </trkpt>
      <trkpt lat="44.6665" lon="1.25426">
        <ele>262</ele>
        <time>2024-03-10T19:59:35Z</time>
      </trkpt>
      <trkpt lat="44.66572" lon="1.25403">
        <ele>276</ele>
        <time>2024-03-10T19:59:54Z</time>
      </trkpt>
      <trkpt lat="44.66541" lon="1.25437">
        <ele>281</ele>
        <time>2024-03-10T20:00:03Z</time>
      </trkpt>
      <trkpt lat="44.66479" lon="1.25376">
        <ele>288</ele>
        <time>2024-03-10T20:00:20Z</time>
      </trkpt>
      <trkpt lat="44.66451" lon="1.25225">
        <ele>296</ele>
        <time>2024-03-10T20:00:46Z</time>
      </trkpt>
      <trkpt lat="44.66414" lon="1.25171">
        <ele>303</ele>
        <time>2024-03-10T20:00:59Z</time>
      </trkpt>
      <trkpt lat="44.66426" lon="1.25096">
        <ele>303</ele>
        <time>2024-03-10T20:01:12Z</time>
      </trkpt>
      <trkpt lat="44.66413" lon="1.25052">
        <ele>303</ele>
        <time>2024-03-10T20:01:19Z</time>
      </trkpt>
      <trkpt lat="44.6641" lon="1.2498">
        <ele>299</ele>
        <time>2024-03-10T20:01:31Z</time>
      </trkpt>
      <trkpt lat="44.66355" lon="1.24988">
        <ele>299</ele>
        <time>2024-03-10T20:01:44Z</time>
      </trkpt>
      <trkpt lat="44.66289" lon="1.24948">
        <ele>299</ele>
        <time>2024-03-10T20:02:01Z</time>
      </trkpt>
      <trkpt lat="44.66137" lon="1.24888">
        <ele>301</ele>
        <time>2024-03-10T20:02:38Z</time>
      </trkpt>
      <trkpt lat="44.65995" lon="1.24883">
        <ele>297</ele>
        <time>2024-03-10T20:03:11Z</time>
      </trkpt>
      <trkpt lat="44.65969" lon="1.24878">
        <ele>299</ele>
        <time>2024-03-10T20:03:17Z</time>
      </trkpt>
      <trkpt lat="44.6587" lon="1.24832">
        <ele>303</ele>
        <time>2024-03-10T20:03:42Z</time>
      </trkpt>
      <trkpt lat="44.65846" lon="1.24863">
        <ele>306</ele>
        <time>2024-03-10T20:03:49Z</time>
      </trkpt>
      <trkpt lat="44.65762" lon="1.24907">
        <ele>303</ele>
        <time>2024-03-10T20:04:10Z</time>
      </trkpt>
      <trkpt lat="44.65701" lon="1.25289">
        <ele>281</ele>
        <time>2024-03-10T20:05:15Z</time>
      </trkpt>
      <trkpt lat="44.65674" lon="1.25721">
        <ele>245</ele>
        <time>2024-03-10T20:06:27Z</time>
      </trkpt>
      <trkpt lat="44.65477" lon="1.26129">
        <ele>206</ele>
        <time>2024-03-10T20:07:49Z</time>
      </trkpt>
      <trkpt lat="44.65547" lon="1.25916">
        <ele>211</ele>
        <time>2024-03-10T20:08:28Z</time>
      </trkpt>
      <trkpt lat="44.65577" lon="1.25642">
        <ele>220</ele>
        <time>2024-03-10T20:09:14Z</time>
      </trkpt>
      <trkpt lat="44.65609" lon="1.25565">
        <ele>228</ele>
        <time>2024-03-10T20:09:29Z</time>
      </trkpt>
      <trkpt lat="44.65525" lon="1.25487">
        <ele>231</ele>
        <time>2024-03-10T20:09:53Z</time>
      </trkpt>
      <trkpt lat="44.65407" lon="1.25423">
        <ele>236</ele>
        <time>2024-03-10T20:10:22Z</time>
      </trkpt>
      <trkpt lat="44.65277" lon="1.25226">
        <ele>249</ele>
        <time>2024-03-10T20:11:07Z</time>
      </trkpt>
      <trkpt lat="44.65235" lon="1.25106">
        <ele>250</ele>
        <time>2024-03-10T20:11:29Z</time>
      </trkpt>
      <trkpt lat="44.65134" lon="1.24934">
        <ele>256</ele>
        <time>2024-03-10T20:12:06Z</time>
      </trkpt>
      <trkpt lat="44.65086" lon="1.24895">
        <ele>259</ele>
        <time>2024-03-10T20:12:19Z</time>
      </trkpt>
      <trkpt lat="44.65021" lon="1.24814">
        <ele>262</ele>
        <time>2024-03-10T20:12:39Z</time>
      </trkpt>
      <trkpt lat="44.64982" lon="1.24829">
        <ele>264</ele>
        <time>2024-03-10T20:12:49Z</time>
      </trkpt>
      <trkpt lat="44.65011" lon="1.24911">
        <ele>266</ele>
        <time>2024-03-10T20:13:04Z</time>
      </trkpt>
      <trkpt lat="44.65005" lon="1.24969">
        <ele>272</ele>
        <time>2024-03-10T20:13:14Z</time>
      </trkpt>
      <trkpt lat="44.64937" lon="1.24956">
        <ele>282</ele>
        <time>2024-03-10T20:13:30Z</time>
      </trkpt>
      <trkpt lat="44.64881" lon="1.24895">
        <ele>286</ele>
        <time>2024-03-10T20:13:46Z</time>
      </trkpt>
      <trkpt lat="44.64838" lon="1.24794">
        <ele>289</ele>
        <time>2024-03-10T20:14:06Z</time>
      </trkpt>
      <trkpt lat="44.64723" lon="1.24831">
        <ele>302</ele>
        <time>2024-03-10T20:14:33Z</time>
      </trkpt>
      <trkpt lat="44.64689" lon="1.24821">
        <ele>303</ele>
        <time>2024-03-10T20:14:41Z</time>
      </trkpt>
      <trkpt lat="44.64673" lon="1.24874">
        <ele>304</ele>
        <time>2024-03-10T20:14:51Z</time>
      </trkpt>
      <trkpt lat="44.64489" lon="1.24689">
        <ele>305</ele>
        <time>2024-03-10T20:15:44Z</time>
      </trkpt>
      <trkpt lat="44.64423" lon="1.2457">
        <ele>313</ele>
        <time>2024-03-10T20:16:09Z</time>
      </trkpt>
      <trkpt lat="44.64409" lon="1.24528">
        <ele>317</ele>
        <time>2024-03-10T20:16:17Z</time>
      </trkpt>
      <trkpt lat="44.64415" lon="1.24493">
        <ele>318</ele>
        <time>2024-03-10T20:16:23Z</time>
      </trkpt>
      <trkpt lat="44.64441" lon="1.24422">
        <ele>318</ele>
        <time>2024-03-10T20:16:36Z</time>
      </trkpt>
      <trkpt lat="44.64442" lon="1.24406">
        <ele>318</ele>
        <time>2024-03-10T20:16:38Z</time>
      </trkpt>
      <trkpt lat="44.64416" lon="1.24389">
        <ele>318</ele>
        <time>2024-03-10T20:16:45Z</time>
      </trkpt>
      <trkpt lat="44.64441" lon="1.24269">
        <ele>313</ele>
        <time>2024-03-10T20:17:06Z</time>
      </trkpt>
      <trkpt lat="44.64431" lon="1.24127">
        <ele>310</ele>
        <time>2024-03-10T20:17:30Z</time>
      </trkpt>
      <trkpt lat="44.64405" lon="1.23869">
        <ele>299</ele>
        <time>2024-03-10T20:18:13Z</time>
      </trkpt>
      <trkpt lat="44.644" lon="1.23737">
        <ele>286</ele>
        <time>2024-03-10T20:18:35Z</time>
      </trkpt>
      <trkpt lat="44.64422" lon="1.23695">
        <ele>286</ele>
        <time>2024-03-10T20:18:44Z</time>
      </trkpt>
      <trkpt lat="44.64512" lon="1.23654">
        <ele>281</ele>
        <time>2024-03-10T20:19:06Z</time>
      </trkpt>
      <trkpt lat="44.64543" lon="1.23579">
        <ele>275</ele>
        <time>2024-03-10T20:19:20Z</time>
      </trkpt>
      <trkpt lat="44.64554" lon="1.23509">
        <ele>269</ele>
        <time>2024-03-10T20:19:32Z</time>
      </trkpt>
      <trkpt lat="44.64537" lon="1.23371">
        <ele>258</ele>
        <time>2024-03-10T20:19:55Z</time>
      </trkpt>
      <trkpt lat="44.64513" lon="1.23311">
        <ele>247</ele>
        <time>2024-03-10T20:20:07Z</time>
      </trkpt>
      <trkpt lat="44.64486" lon="1.2317">
        <ele>228</ele>
        <time>2024-03-10T20:20:31Z</time>
      </trkpt>
      <trkpt lat="44.64455" lon="1.23095">
        <ele>217</ele>
        <time>2024-03-10T20:20:45Z</time>
      </trkpt>
      <trkpt lat="44.64448" lon="1.23027">
        <ele>214</ele>
        <time>2024-03-10T20:20:57Z</time>
      </trkpt>
      <trkpt lat="44.64432" lon="1.22983">
        <ele>212</ele>
        <time>2024-03-10T20:21:05Z</time>
      </trkpt>
      <trkpt lat="44.64438" lon="1.2295">
        <ele>215</ele>
        <time>2024-03-10T20:21:11Z</time>
      </trkpt>
      <trkpt lat="44.64455" lon="1.22955">
        <ele>216</ele>
        <time>2024-03-10T20:21:15Z</time>
      </trkpt>
      <trkpt lat="44.6449" lon="1.22911">
        <ele>217</ele>
        <time>2024-03-10T20:21:26Z</time>
      </trkpt>
      <trkpt lat="44.64502" lon="1.22874">
        <ele>214</ele>
        <time>2024-03-10T20:21:32Z</time>
      </trkpt>
      <trkpt lat="44.64505" lon="1.22842">
        <ele>211</ele>
        <time>2024-03-10T20:21:38Z</time>
      </trkpt>
      <trkpt lat="44.64445" lon="1.22766">
        <ele>199</ele>
        <time>2024-03-10T20:21:57Z</time>
      </trkpt>
      <trkpt lat="44.64451" lon="1.2271">
        <ele>193</ele>
        <time>2024-03-10T20:22:06Z</time>
      </trkpt>
      <trkpt lat="44.64485" lon="1.22617">
        <ele>188</ele>
        <time>2024-03-10T20:22:23Z</time>
      </trkpt>
      <trkpt lat="44.64457" lon="1.22555">
        <ele>187</ele>
        <time>2024-03-10T20:22:36Z</time>
      </trkpt>
      <trkpt lat="44.64429" lon="1.22533">
        <ele>186</ele>
        <time>2024-03-10T20:22:43Z</time>
      </trkpt>
      <trkpt lat="44.64317" lon="1.22477">
        <ele>179</ele>
        <time>2024-03-10T20:23:11Z</time>
      </trkpt>
      <trkpt lat="44.64383" lon="1.22252">
        <ele>179</ele>
        <time>2024-03-10T20:23:51Z</time>
      </trkpt>
      <trkpt lat="44.64299" lon="1.22179">
        <ele>181</ele>
        <time>2024-03-10T20:24:14Z</time>
      </trkpt>
      <trkpt lat="44.64298" lon="1.22122">
        <ele>181</ele>
        <time>2024-03-10T20:24:24Z</time>
      </trkpt>
      <trkpt lat="44.64316" lon="1.22088">
        <ele>184</ele>
        <time>2024-03-10T20:24:31Z</time>
      </trkpt>
      <trkpt lat="44.64366" lon="1.2211">
        <ele>181</ele>
        <time>2024-03-10T20:24:43Z</time>
      </trkpt>
      <trkpt lat="44.64327" lon="1.22049">
        <ele>181</ele>
        <time>2024-03-10T20:24:57Z</time>
      </trkpt>
      <trkpt lat="44.64393" lon="1.22009">
        <ele>173</ele>
        <time>2024-03-10T20:25:14Z</time>
      </trkpt>
      <trkpt lat="44.64372" lon="1.21895">
        <ele>173</ele>
        <time>2024-03-10T20:25:33Z</time>
      </trkpt>
      <trkpt lat="44.64359" lon="1.21881">
        <ele>173</ele>
        <time>2024-03-10T20:25:37Z</time>
      </trkpt>
      <trkpt lat="44.64314" lon="1.2185">
        <ele>173</ele>
        <time>2024-03-10T20:25:49Z</time>
      </trkpt>
      <trkpt lat="44.6425" lon="1.21786">
        <ele>175</ele>
        <time>2024-03-10T20:26:07Z</time>
      </trkpt>
      <trkpt lat="44.64154" lon="1.21666">
        <ele>182</ele>
        <time>2024-03-10T20:26:37Z</time>
      </trkpt>
      <trkpt lat="44.64129" lon="1.21629">
        <ele>184</ele>
        <time>2024-03-10T20:26:45Z</time>
      </trkpt>
      <trkpt lat="44.64106" lon="1.2158">
        <ele>185</ele>
        <time>2024-03-10T20:26:55Z</time>
      </trkpt>
      <trkpt lat="44.6398" lon="1.21406">
        <ele>193</ele>
        <time>2024-03-10T20:27:36Z</time>
      </trkpt>
      <trkpt lat="44.63943" lon="1.21338">
        <ele>197</ele>
        <time>2024-03-10T20:27:51Z</time>
      </trkpt>
      <trkpt lat="44.63934" lon="1.21312">
        <ele>198</ele>
        <time>2024-03-10T20:27:56Z</time>
      </trkpt>
      <trkpt lat="44.63923" lon="1.21266">
        <ele>200</ele>
        <time>2024-03-10T20:28:04Z</time>
      </trkpt>
      <trkpt lat="44.63866" lon="1.21087">
        <ele>215</ele>
        <time>2024-03-10T20:28:36Z</time>
      </trkpt>
      <trkpt lat="44.63844" lon="1.20993">
        <ele>224</ele>
        <time>2024-03-10T20:28:53Z</time>
      </trkpt>
      <trkpt lat="44.63802" lon="1.20883">
        <ele>233</ele>
        <time>2024-03-10T20:29:13Z</time>
      </trkpt>
      <trkpt lat="44.63783" lon="1.2085">
        <ele>238</ele>
        <time>2024-03-10T20:29:20Z</time>
      </trkpt>
      <trkpt lat="44.63771" lon="1.20806">
        <ele>242</ele>
        <time>2024-03-10T20:29:28Z</time>
      </trkpt>
      <trkpt lat="44.63712" lon="1.20699">
        <ele>243</ele>
        <time>2024-03-10T20:29:51Z</time>
      </trkpt>
      <trkpt lat="44.63719" lon="1.20658">
        <ele>241</ele>
        <time>2024-03-10T20:29:58Z</time>
      </trkpt>
      <trkpt lat="44.63736" lon="1.20602">
        <ele>238</ele>
        <time>2024-03-10T20:30:08Z</time>
      </trkpt>
      <trkpt lat="44.6374" lon="1.20575">
        <ele>236</ele>
        <time>2024-03-10T20:30:12Z</time>
      </trkpt>
      <trkpt lat="44.63741" lon="1.20525">
        <ele>235</ele>
        <time>2024-03-10T20:30:21Z</time>
      </trkpt>
      <trkpt lat="44.63735" lon="1.20423">
        <ele>235</ele>
        <time>2024-03-10T20:30:38Z</time>
      </trkpt>
      <trkpt lat="44.6374" lon="1.20406">
        <ele>235</ele>
        <time>2024-03-10T20:30:41Z</time>
      </trkpt>
      <trkpt lat="44.63725" lon="1.20372">
        <ele>236</ele>
        <time>2024-03-10T20:30:47Z</time>
      </trkpt>
      <trkpt lat="44.63701" lon="1.20354">
        <ele>238</ele>
        <time>2024-03-10T20:30:54Z</time>
      </trkpt>
      <trkpt lat="44.63677" lon="1.20369">
        <ele>239</ele>
        <time>2024-03-10T20:31:00Z</time>
      </trkpt>
      <trkpt lat="44.6363" lon="1.2041">
        <ele>240</ele>
        <time>2024-03-10T20:31:13Z</time>
      </trkpt>
      <trkpt lat="44.63593" lon="1.20458">
        <ele>237</ele>
        <time>2024-03-10T20:31:25Z</time>
      </trkpt>
      <trkpt lat="44.63392" lon="1.20613">
        <ele>226</ele>
        <time>2024-03-10T20:32:18Z</time>
      </trkpt>
      <trkpt lat="44.63332" lon="1.20651">
        <ele>222</ele>
        <time>2024-03-10T20:32:34Z</time>
      </trkpt>
      <trkpt lat="44.63321" lon="1.20727">
        <ele>217</ele>
        <time>2024-03-10T20:32:46Z</time>
      </trkpt>
      <trkpt lat="44.63244" lon="1.20884">
        <ele>209</ele>
        <time>2024-03-10T20:33:18Z</time>
      </trkpt>
      <trkpt lat="44.63232" lon="1.20928">
        <ele>207</ele>
        <time>2024-03-10T20:33:26Z</time>
      </trkpt>
      <trkpt lat="44.632" lon="1.21005">
        <ele>201</ele>
        <time>2024-03-10T20:33:41Z</time>
      </trkpt>
      <trkpt lat="44.63177" lon="1.21091">
        <ele>194</ele>
        <time>2024-03-10T20:33:56Z</time>
      </trkpt>
      <trkpt lat="44.63134" lon="1.21166">
        <ele>192</ele>
        <time>2024-03-10T20:34:12Z</time>
      </trkpt>
      <trkpt lat="44.63043" lon="1.21217">
        <ele>189</ele>
        <time>2024-03-10T20:34:35Z</time>
      </trkpt>
      <trkpt lat="44.62973" lon="1.21366">
        <ele>186</ele>
        <time>2024-03-10T20:35:05Z</time>
      </trkpt>
      <trkpt lat="44.62965" lon="1.21395">
        <ele>187</ele>
        <time>2024-03-10T20:35:10Z</time>
      </trkpt>
      <trkpt lat="44.62963" lon="1.21425">
        <ele>187</ele>
        <time>2024-03-10T20:35:15Z</time>
      </trkpt>
      <trkpt lat="44.62965" lon="1.21475">
        <ele>186</ele>
        <time>2024-03-10T20:35:23Z</time>
      </trkpt>
      <trkpt lat="44.62955" lon="1.21539">
        <ele>185</ele>
        <time>2024-03-10T20:35:34Z</time>
      </trkpt>
      <trkpt lat="44.6294" lon="1.21488">
        <ele>188</ele>
        <time>2024-03-10T20:35:43Z</time>
      </trkpt>
      <trkpt lat="44.62892" lon="1.21379">
        <ele>190</ele>
        <time>2024-03-10T20:36:04Z</time>
      </trkpt>
      <trkpt lat="44.62845" lon="1.21302">
        <ele>191</ele>
        <time>2024-03-10T20:36:21Z</time>
      </trkpt>
      <trkpt lat="44.62809" lon="1.21252">
        <ele>192</ele>
        <time>2024-03-10T20:36:33Z</time>
      </trkpt>
      <trkpt lat="44.628" lon="1.21227">
        <ele>192</ele>
        <time>2024-03-10T20:36:38Z</time>
      </trkpt>
      <trkpt lat="44.62698" lon="1.21079">
        <ele>201</ele>
        <time>2024-03-10T20:37:12Z</time>
      </trkpt>
      <trkpt lat="44.6261" lon="1.20973">
        <ele>208</ele>
        <time>2024-03-10T20:37:39Z</time>
      </trkpt>
      <trkpt lat="44.62571" lon="1.20918">
        <ele>208</ele>
        <time>2024-03-10T20:37:52Z</time>
      </trkpt>
      <trkpt lat="44.62556" lon="1.20805">
        <ele>211</ele>
        <time>2024-03-10T20:38:11Z</time>
      </trkpt>
      <trkpt lat="44.62549" lon="1.20781">
        <ele>211</ele>
        <time>2024-03-10T20:38:15Z</time>
      </trkpt>
      <trkpt lat="44.62526" lon="1.20754">
        <ele>210</ele>
        <time>2024-03-10T20:38:22Z</time>
      </trkpt>
      <trkpt lat="44.62506" lon="1.20736">
        <ele>209</ele>
        <time>2024-03-10T20:38:28Z</time>
      </trkpt>
      <trkpt lat="44.62449" lon="1.20694">
        <ele>211</ele>
        <time>2024-03-10T20:38:43Z</time>
      </trkpt>
      <trkpt lat="44.62435" lon="1.20672">
        <ele>211</ele>
        <time>2024-03-10T20:38:48Z</time>
      </trkpt>
      <trkpt lat="44.62427" lon="1.20614">
        <ele>218</ele>
        <time>2024-03-10T20:38:58Z</time>
      </trkpt>
      <trkpt lat="44.62353" lon="1.20621">
        <ele>215</ele>
        <time>2024-03-10T20:39:15Z</time>
      </trkpt>
      <trkpt lat="44.62326" lon="1.20669">
        <ele>215</ele>
        <time>2024-03-10T20:39:25Z</time>
      </trkpt>
      <trkpt lat="44.62312" lon="1.20672">
        <ele>216</ele>
        <time>2024-03-10T20:39:29Z</time>
      </trkpt>
      <trkpt lat="44.62282" lon="1.20648">
        <ele>214</ele>
        <time>2024-03-10T20:39:37Z</time>
      </trkpt>
      <trkpt lat="44.6233" lon="1.20475">
        <ele>226</ele>
        <time>2024-03-10T20:40:07Z</time>
      </trkpt>
      <trkpt lat="44.62341" lon="1.20383">
        <ele>237</ele>
        <time>2024-03-10T20:40:23Z</time>
      </trkpt>
      <trkpt lat="44.62391" lon="1.20298">
        <ele>246</ele>
        <time>2024-03-10T20:40:41Z</time>
      </trkpt>
      <trkpt lat="44.62378" lon="1.20246">
        <ele>248</ele>
        <time>2024-03-10T20:40:50Z</time>
      </trkpt>
      <trkpt lat="44.62364" lon="1.20073">
        <ele>249</ele>
        <time>2024-03-10T20:41:19Z</time>
      </trkpt>
      <trkpt lat="44.62371" lon="1.20012">
        <ele>249</ele>
        <time>2024-03-10T20:41:30Z</time>
      </trkpt>
      <trkpt lat="44.62355" lon="1.19933">
        <ele>250</ele>
        <time>2024-03-10T20:41:43Z</time>
      </trkpt>
      <trkpt lat="44.62356" lon="1.1991">
        <ele>250</ele>
        <time>2024-03-10T20:41:47Z</time>
      </trkpt>
      <trkpt lat="44.62343" lon="1.19835">
        <ele>250</ele>
        <time>2024-03-10T20:42:00Z</time>
      </trkpt>
      <trkpt lat="44.62308" lon="1.19729">
        <ele>259</ele>
        <time>2024-03-10T20:42:19Z</time>
      </trkpt>
      <trkpt lat="44.62382" lon="1.19452">
        <ele>276</ele>
        <time>2024-03-10T20:43:09Z</time>
      </trkpt>
      <trkpt lat="44.62395" lon="1.1939">
        <ele>276</ele>
        <time>2024-03-10T20:43:19Z</time>
      </trkpt>
      <trkpt lat="44.62424" lon="1.19309">
        <ele>277</ele>
        <time>2024-03-10T20:43:34Z</time>
      </trkpt>
      <trkpt lat="44.62373" lon="1.1927">
        <ele>278</ele>
        <time>2024-03-10T20:43:48Z</time>
      </trkpt>
      <trkpt lat="44.62332" lon="1.19142">
        <ele>281</ele>
        <time>2024-03-10T20:44:11Z</time>
      </trkpt>
      <trkpt lat="44.62323" lon="1.19101">
        <ele>282</ele>
        <time>2024-03-10T20:44:18Z</time>
      </trkpt>
      <trkpt lat="44.62323" lon="1.19054">
        <ele>282</ele>
        <time>2024-03-10T20:44:26Z</time>
      </trkpt>
      <trkpt lat="44.62289" lon="1.19059">
        <ele>282</ele>
        <time>2024-03-10T20:44:34Z</time>
      </trkpt>
      <trkpt lat="44.62244" lon="1.19053">
        <ele>283</ele>
        <time>2024-03-10T20:44:45Z</time>
      </trkpt>
      <trkpt lat="44.62111" lon="1.1905">
        <ele>287</ele>
        <time>2024-03-10T20:45:16Z</time>
      </trkpt>
      <trkpt lat="44.61984" lon="1.19078">
        <ele>288</ele>
        <time>2024-03-10T20:45:46Z</time>
      </trkpt>
      <trkpt lat="44.61832" lon="1.19125">
        <ele>277</ele>
        <time>2024-03-10T20:46:22Z</time>
      </trkpt>
      <trkpt lat="44.61793" lon="1.19133">
        <ele>277</ele>
        <time>2024-03-10T20:46:31Z</time>
      </trkpt>
      <trkpt lat="44.61768" lon="1.19136">
        <ele>276</ele>
        <time>2024-03-10T20:46:37Z</time>
      </trkpt>
      <trkpt lat="44.6171" lon="1.19127">
        <ele>279</ele>
        <time>2024-03-10T20:46:51Z</time>
      </trkpt>
      <trkpt lat="44.61634" lon="1.19078">
        <ele>283</ele>
        <time>2024-03-10T20:47:10Z</time>
      </trkpt>
      <trkpt lat="44.61583" lon="1.19063">
        <ele>283</ele>
        <time>2024-03-10T20:47:23Z</time>
      </trkpt>
      <trkpt lat="44.61391" lon="1.19016">
        <ele>282</ele>
        <time>2024-03-10T20:48:08Z</time>
      </trkpt>
      <trkpt lat="44.61393" lon="1.18944">
        <ele>280</ele>
        <time>2024-03-10T20:48:20Z</time>
      </trkpt>
      <trkpt lat="44.6137" lon="1.18911">
        <ele>278</ele>
        <time>2024-03-10T20:48:28Z</time>
      </trkpt>
      <trkpt lat="44.61323" lon="1.18906">
        <ele>276</ele>
        <time>2024-03-10T20:48:39Z</time>
      </trkpt>
      <trkpt lat="44.61281" lon="1.18875">
        <ele>274</ele>
        <time>2024-03-10T20:48:50Z</time>
      </trkpt>
      <trkpt lat="44.61223" lon="1.1882">
        <ele>270</ele>
        <time>2024-03-10T20:49:06Z</time>
      </trkpt>
      <trkpt lat="44.6115" lon="1.18809">
        <ele>263</ele>
        <time>2024-03-10T20:49:23Z</time>
      </trkpt>
      <trkpt lat="44.61083" lon="1.18806">
        <ele>257</ele>
        <time>2024-03-10T20:49:39Z</time>
      </trkpt>
      <trkpt lat="44.61008" lon="1.1879">
        <ele>255</ele>
        <time>2024-03-10T20:49:57Z</time>
      </trkpt>
      <trkpt lat="44.60869" lon="1.18736">
        <ele>251</ele>
        <time>2024-03-10T20:50:30Z</time>
      </trkpt>
      <trkpt lat="44.60842" lon="1.18731">
        <ele>251</ele>
        <time>2024-03-10T20:50:37Z</time>
      </trkpt>
      <trkpt lat="44.60811" lon="1.1874">
        <ele>251</ele>
        <time>2024-03-10T20:50:44Z</time>
      </trkpt>
      <trkpt lat="44.60891" lon="1.18588">
        <ele>246</ele>
        <time>2024-03-10T20:51:16Z</time>
      </trkpt>
      <trkpt lat="44.60924" lon="1.18496">
        <ele>252</ele>
        <time>2024-03-10T20:51:33Z</time>
      </trkpt>
      <trkpt lat="44.60907" lon="1.18461">
        <ele>256</ele>
        <time>2024-03-10T20:51:40Z</time>
      </trkpt>
      <trkpt lat="44.60902" lon="1.18403">
        <ele>263</ele>
        <time>2024-03-10T20:51:49Z</time>
      </trkpt>
      <trkpt lat="44.60864" lon="1.18365">
        <ele>266</ele>
        <time>2024-03-10T20:52:00Z</time>
      </trkpt>
      <trkpt lat="44.60853" lon="1.18313">
        <ele>272</ele>
        <time>2024-03-10T20:52:09Z</time>
      </trkpt>
      <trkpt lat="44.60846" lon="1.18254">
        <ele>276</ele>
        <time>2024-03-10T20:52:19Z</time>
      </trkpt>
      <trkpt lat="44.60822" lon="1.18212">
        <ele>274</ele>
        <time>2024-03-10T20:52:28Z</time>
      </trkpt>
      <trkpt lat="44.60802" lon="1.18114">
        <ele>274</ele>
        <time>2024-03-10T20:52:45Z</time>
      </trkpt>
      <trkpt lat="44.60809" lon="1.18051">
        <ele>276</ele>
        <time>2024-03-10T20:52:56Z</time>
      </trkpt>
      <trkpt lat="44.60849" lon="1.17929">
        <ele>284</ele>
        <time>2024-03-10T20:53:18Z</time>
      </trkpt>
      <trkpt lat="44.60859" lon="1.17811">
        <ele>285</ele>
        <time>2024-03-10T20:53:38Z</time>
      </trkpt>
      <trkpt lat="44.60838" lon="1.17703">
        <ele>286</ele>
        <time>2024-03-10T20:53:56Z</time>
      </trkpt>
      <trkpt lat="44.60808" lon="1.17592">
        <ele>288</ele>
        <time>2024-03-10T20:54:16Z</time>
      </trkpt>
      <trkpt lat="44.60822" lon="1.17573">
        <ele>290</ele>
        <time>2024-03-10T20:54:21Z</time>
      </trkpt>
      <trkpt lat="44.60856" lon="1.17568">
        <ele>289</ele>
        <time>2024-03-10T20:54:29Z</time>
      </trkpt>
      <trkpt lat="44.60882" lon="1.17531">
        <ele>288</ele>
        <time>2024-03-10T20:54:37Z</time>
      </trkpt>
      <trkpt lat="44.60931" lon="1.17518">
        <ele>284</ele>
        <time>2024-03-10T20:54:49Z</time>
      </trkpt>
      <trkpt lat="44.60959" lon="1.17529">
        <ele>283</ele>
        <time>2024-03-10T20:54:56Z</time>
      </trkpt>
      <trkpt lat="44.60973" lon="1.17529">
        <ele>282</ele>
        <time>2024-03-10T20:54:59Z</time>
      </trkpt>
      <trkpt lat="44.61001" lon="1.17515">
        <ele>280</ele>
        <time>2024-03-10T20:55:06Z</time>
      </trkpt>
      <trkpt lat="44.61018" lon="1.17513">
        <ele>282</ele>
        <time>2024-03-10T20:55:10Z</time>
      </trkpt>
      <trkpt lat="44.61039" lon="1.175">
        <ele>284</ele>
        <time>2024-03-10T20:55:15Z</time>
      </trkpt>
      <trkpt lat="44.61043" lon="1.17468">
        <ele>284</ele>
        <time>2024-03-10T20:55:21Z</time>
      </trkpt>
      <trkpt lat="44.6102" lon="1.16857">
        <ele>255</ele>
        <time>2024-03-10T20:57:03Z</time>
      </trkpt>
      <trkpt lat="44.61012" lon="1.16783">
        <ele>252</ele>
        <time>2024-03-10T20:57:15Z</time>
      </trkpt>
      <trkpt lat="44.61018" lon="1.16727">
        <ele>250</ele>
        <time>2024-03-10T20:57:24Z</time>
      </trkpt>
      <trkpt lat="44.6105" lon="1.16648">
        <ele>249</ele>
        <time>2024-03-10T20:57:39Z</time>
      </trkpt>
      <trkpt lat="44.61031" lon="1.16549">
        <ele>242</ele>
        <time>2024-03-10T20:57:57Z</time>
      </trkpt>
      <trkpt lat="44.61041" lon="1.16517">
        <ele>239</ele>
        <time>2024-03-10T20:58:02Z</time>
      </trkpt>
      <trkpt lat="44.61083" lon="1.1648">
        <ele>237</ele>
        <time>2024-03-10T20:58:14Z</time>
      </trkpt>
      <trkpt lat="44.61187" lon="1.16424">
        <ele>236</ele>
        <time>2024-03-10T20:58:40Z</time>
      </trkpt>
      <trkpt lat="44.61206" lon="1.16401">
        <ele>238</ele>
        <time>2024-03-10T20:58:46Z</time>
      </trkpt>
      <trkpt lat="44.61206" lon="1.16366">
        <ele>237</ele>
        <time>2024-03-10T20:58:52Z</time>
      </trkpt>
      <trkpt lat="44.61189" lon="1.16339">
        <ele>233</ele>
        <time>2024-03-10T20:58:58Z</time>
      </trkpt>
      <trkpt lat="44.61184" lon="1.1632">
        <ele>231</ele>
        <time>2024-03-10T20:59:01Z</time>
      </trkpt>
      <trkpt lat="44.61189" lon="1.16292">
        <ele>231</ele>
        <time>2024-03-10T20:59:06Z</time>
      </trkpt>
      <trkpt lat="44.61252" lon="1.16157">
        <ele>223</ele>
        <time>2024-03-10T20:59:33Z</time>
      </trkpt>
      <trkpt lat="44.61312" lon="1.16075">
        <ele>218</ele>
        <time>2024-03-10T20:59:52Z</time>
      </trkpt>
      <trkpt lat="44.6129" lon="1.16067">
        <ele>217</ele>
        <time>2024-03-10T20:59:57Z</time>
      </trkpt>
      <trkpt lat="44.61266" lon="1.16069">
        <ele>215</ele>
        <time>2024-03-10T21:00:03Z</time>
      </trkpt>
      <trkpt lat="44.61228" lon="1.16083">
        <ele>216</ele>
        <time>2024-03-10T21:00:12Z</time>
      </trkpt>
      <trkpt lat="44.61196" lon="1.16073">
        <ele>217</ele>
        <time>2024-03-10T21:00:20Z</time>
      </trkpt>
      <trkpt lat="44.61155" lon="1.16072">
        <ele>221</ele>
        <time>2024-03-10T21:00:29Z</time>
      </trkpt>
      <trkpt lat="44.60995" lon="1.16042">
        <ele>241</ele>
        <time>2024-03-10T21:01:07Z</time>
      </trkpt>
      <trkpt lat="44.60887" lon="1.15973">
        <ele>236</ele>
        <time>2024-03-10T21:01:35Z</time>
      </trkpt>
      <trkpt lat="44.60845" lon="1.15962">
        <ele>233</ele>
        <time>2024-03-10T21:01:45Z</time>
      </trkpt>
      <trkpt lat="44.60821" lon="1.15937">
        <ele>233</ele>
        <time>2024-03-10T21:01:52Z</time>
      </trkpt>
      <trkpt lat="44.60743" lon="1.15903">
        <ele>245</ele>
        <time>2024-03-10T21:02:11Z</time>
      </trkpt>
      <trkpt lat="44.60733" lon="1.15885">
        <ele>245</ele>
        <time>2024-03-10T21:02:15Z</time>
      </trkpt>
      <trkpt lat="44.60724" lon="1.15885">
        <ele>245</ele>
        <time>2024-03-10T21:02:17Z</time>
      </trkpt>
      <trkpt lat="44.60717" lon="1.15916">
        <ele>247</ele>
        <time>2024-03-10T21:02:22Z</time>
      </trkpt>
      <trkpt lat="44.60707" lon="1.15933">
        <ele>247</ele>
        <time>2024-03-10T21:02:26Z</time>
      </trkpt>
      <trkpt lat="44.60689" lon="1.15937">
        <ele>248</ele>
        <time>2024-03-10T21:02:30Z</time>
      </trkpt>
      <trkpt lat="44.60675" lon="1.15929">
        <ele>249</ele>
        <time>2024-03-10T21:02:34Z</time>
      </trkpt>
      <trkpt lat="44.60658" lon="1.15959">
        <ele>249</ele>
        <time>2024-03-10T21:02:40Z</time>
      </trkpt>
      <trkpt lat="44.60643" lon="1.16046">
        <ele>249</ele>
        <time>2024-03-10T21:02:55Z</time>
      </trkpt>
      <trkpt lat="44.60633" lon="1.16077">
        <ele>249</ele>
        <time>2024-03-10T21:03:01Z</time>
      </trkpt>
      <trkpt lat="44.60607" lon="1.16127">
        <ele>250</ele>
        <time>2024-03-10T21:03:11Z</time>
      </trkpt>
      <trkpt lat="44.60596" lon="1.16169">
        <ele>251</ele>
        <time>2024-03-10T21:03:18Z</time>
      </trkpt>
      <trkpt lat="44.60569" lon="1.16329">
        <ele>252</ele>
        <time>2024-03-10T21:03:46Z</time>
      </trkpt>
      <trkpt lat="44.60546" lon="1.16333">
        <ele>253</ele>
        <time>2024-03-10T21:03:51Z</time>
      </trkpt>
      <trkpt lat="44.60523" lon="1.16327">
        <ele>254</ele>
        <time>2024-03-10T21:03:57Z</time>
      </trkpt>
      <trkpt lat="44.60469" lon="1.16304">
        <ele>255</ele>
        <time>2024-03-10T21:04:10Z</time>
      </trkpt>
      <trkpt lat="44.60339" lon="1.16277">
        <ele>254</ele>
        <time>2024-03-10T21:04:40Z</time>
      </trkpt>
      <trkpt lat="44.60286" lon="1.16247">
        <ele>255</ele>
        <time>2024-03-10T21:04:54Z</time>
      </trkpt>
      <trkpt lat="44.60205" lon="1.1622">
        <ele>254</ele>
        <time>2024-03-10T21:05:13Z</time>
      </trkpt>
      <trkpt lat="44.60162" lon="1.16234">
        <ele>256</ele>
        <time>2024-03-10T21:05:23Z</time>
      </trkpt>
      <trkpt lat="44.60089" lon="1.16284">
        <ele>259</ele>
        <time>2024-03-10T21:05:42Z</time>
      </trkpt>
      <trkpt lat="44.60063" lon="1.16275">
        <ele>261</ele>
        <time>2024-03-10T21:05:49Z</time>
      </trkpt>
      <trkpt lat="44.59995" lon="1.16308">
        <ele>269</ele>
        <time>2024-03-10T21:06:06Z</time>
      </trkpt>
      <trkpt lat="44.59866" lon="1.16339">
        <ele>271</ele>
        <time>2024-03-10T21:06:36Z</time>
      </trkpt>
      <trkpt lat="44.59683" lon="1.1643">
        <ele>264</ele>
        <time>2024-03-10T21:07:21Z</time>
      </trkpt>
      <trkpt lat="44.59616" lon="1.16272">
        <ele>266</ele>
        <time>2024-03-10T21:07:52Z</time>
      </trkpt>
      <trkpt lat="44.59516" lon="1.16272">
        <ele>267</ele>
        <time>2024-03-10T21:08:15Z</time>
      </trkpt>
      <trkpt lat="44.59465" lon="1.1626">
        <ele>266</ele>
        <time>2024-03-10T21:08:27Z</time>
      </trkpt>
      <trkpt lat="44.59441" lon="1.16264">
        <ele>266</ele>
        <time>2024-03-10T21:08:33Z</time>
      </trkpt>
      <trkpt lat="44.59387" lon="1.16283">
        <ele>264</ele>
        <time>2024-03-10T21:08:46Z</time>
      </trkpt>
      <trkpt lat="44.59361" lon="1.16308">
        <ele>264</ele>
        <time>2024-03-10T21:08:53Z</time>
      </trkpt>
      <trkpt lat="44.59329" lon="1.16319">
        <ele>263</ele>
        <time>2024-03-10T21:09:01Z</time>
      </trkpt>
      <trkpt lat="44.59294" lon="1.16341">
        <ele>261</ele>
        <time>2024-03-10T21:09:10Z</time>
      </trkpt>
      <trkpt lat="44.59235" lon="1.16365">
        <ele>255</ele>
        <time>2024-03-10T21:09:24Z</time>
      </trkpt>
      <trkpt lat="44.59182" lon="1.16351">
        <ele>252</ele>
        <time>2024-03-10T21:09:37Z</time>
      </trkpt>
      <trkpt lat="44.59178" lon="1.16336">
        <ele>251</ele>
        <time>2024-03-10T21:09:40Z</time>
      </trkpt>
      <trkpt lat="44.59215" lon="1.16233">
        <ele>245</ele>
        <time>2024-03-10T21:09:59Z</time>
      </trkpt>
      <trkpt lat="44.59219" lon="1.16168">
        <ele>243</ele>
        <time>2024-03-10T21:10:10Z</time>
      </trkpt>
      <trkpt lat="44.59214" lon="1.16145">
        <ele>243</ele>
        <time>2024-03-10T21:10:14Z</time>
      </trkpt>
      <trkpt lat="44.59201" lon="1.16129">
        <ele>242</ele>
        <time>2024-03-10T21:10:18Z</time>
      </trkpt>
      <trkpt lat="44.5916" lon="1.16116">
        <ele>242</ele>
        <time>2024-03-10T21:10:28Z</time>
      </trkpt>
      <trkpt lat="44.59112" lon="1.16145">
        <ele>238</ele>
        <time>2024-03-10T21:10:40Z</time>
      </trkpt>
      <trkpt lat="44.58892" lon="1.16233">
        <ele>228</ele>
        <time>2024-03-10T21:11:33Z</time>
      </trkpt>
      <trkpt lat="44.58805" lon="1.16335">
        <ele>222</ele>
        <time>2024-03-10T21:12:00Z</time>
      </trkpt>
      <trkpt lat="44.58755" lon="1.16376">
        <ele>220</ele>
        <time>2024-03-10T21:12:13Z</time>
      </trkpt>
      <trkpt lat="44.58706" lon="1.164">
        <ele>215</ele>
        <time>2024-03-10T21:12:25Z</time>
      </trkpt>
      <trkpt lat="44.58668" lon="1.1637">
        <ele>209</ele>
        <time>2024-03-10T21:12:35Z</time>
      </trkpt>
      <trkpt lat="44.5863" lon="1.16344">
        <ele>209</ele>
        <time>2024-03-10T21:12:45Z</time>
      </trkpt>
      <trkpt lat="44.58592" lon="1.16306">
        <ele>207</ele>
        <time>2024-03-10T21:12:56Z</time>
      </trkpt>
      <trkpt lat="44.58533" lon="1.16302">
        <ele>203</ele>
        <time>2024-03-10T21:13:10Z</time>
      </trkpt>
      <trkpt lat="44.58468" lon="1.16328">
        <ele>200</ele>
        <time>2024-03-10T21:13:26Z</time>
      </trkpt>
      <trkpt lat="44.58469" lon="1.16403">
        <ele>205</ele>
        <time>2024-03-10T21:13:38Z</time>
      </trkpt>
      <trkpt lat="44.58497" lon="1.16489">
        <ele>202</ele>
        <time>2024-03-10T21:13:54Z</time>
      </trkpt>
      <trkpt lat="44.58557" lon="1.16529">
        <ele>201</ele>
        <time>2024-03-10T21:14:10Z</time>
      </trkpt>
      <trkpt lat="44.58531" lon="1.16554">
        <ele>197</ele>
        <time>2024-03-10T21:14:17Z</time>
      </trkpt>
      <trkpt lat="44.58513" lon="1.16611">
        <ele>191</ele>
        <time>2024-03-10T21:14:27Z</time>
      </trkpt>
      <trkpt lat="44.58472" lon="1.16693">
        <ele>191</ele>
        <time>2024-03-10T21:14:44Z</time>
      </trkpt>
      <trkpt lat="44.58329" lon="1.16457">
        <ele>187</ele>
        <time>2024-03-10T21:15:35Z</time>
      </trkpt>
      <trkpt lat="44.58307" lon="1.16436">
        <ele>187</ele>
        <time>2024-03-10T21:15:42Z</time>
      </trkpt>
      <trkpt lat="44.58277" lon="1.16437">
        <ele>186</ele>
        <time>2024-03-10T21:15:49Z</time>
      </trkpt>
      <trkpt lat="44.58239" lon="1.1645">
        <ele>187</ele>
        <time>2024-03-10T21:15:58Z</time>
      </trkpt>
      <trkpt lat="44.58202" lon="1.16442">
        <ele>187</ele>
        <time>2024-03-10T21:16:07Z</time>
      </trkpt>
      <trkpt lat="44.5821" lon="1.16392">
        <ele>184</ele>
        <time>2024-03-10T21:16:15Z</time>
      </trkpt>
      <trkpt lat="44.58209" lon="1.16376">
        <ele>184</ele>
        <time>2024-03-10T21:16:18Z</time>
      </trkpt>
      <trkpt lat="44.58202" lon="1.16374">
        <ele>184</ele>
        <time>2024-03-10T21:16:19Z</time>
      </trkpt>
      <trkpt lat="44.58186" lon="1.16381">
        <ele>184</ele>
        <time>2024-03-10T21:16:23Z</time>
      </trkpt>
      <trkpt lat="44.58158" lon="1.1638">
        <ele>184</ele>
        <time>2024-03-10T21:16:30Z</time>
      </trkpt>
      <trkpt lat="44.58136" lon="1.16372">
        <ele>183</ele>
        <time>2024-03-10T21:16:35Z</time>
      </trkpt>
      <trkpt lat="44.58117" lon="1.16346">
        <ele>181</ele>
        <time>2024-03-10T21:16:41Z</time>
      </trkpt>
      <trkpt lat="44.5811" lon="1.16342">
        <ele>181</ele>
        <time>2024-03-10T21:16:43Z</time>
      </trkpt>
      <trkpt lat="44.58089" lon="1.16353">
        <ele>181</ele>
        <time>2024-03-10T21:16:48Z</time>
      </trkpt>
      <trkpt lat="44.58004" lon="1.16274">
        <ele>183</ele>
        <time>2024-03-10T21:17:12Z</time>
      </trkpt>
      <trkpt lat="44.57993" lon="1.16258">
        <ele>184</ele>
        <time>2024-03-10T21:17:16Z</time>
      </trkpt>
      <trkpt lat="44.5797" lon="1.16208">
        <ele>184</ele>
        <time>2024-03-10T21:17:26Z</time>
      </trkpt>
      <trkpt lat="44.57949" lon="1.16183">
        <ele>184</ele>
        <time>2024-03-10T21:17:32Z</time>
      </trkpt>
      <trkpt lat="44.57857" lon="1.16121">
        <ele>187</ele>
        <time>2024-03-10T21:17:56Z</time>
      </trkpt>
      <trkpt lat="44.57829" lon="1.16098">
        <ele>186</ele>
        <time>2024-03-10T21:18:04Z</time>
      </trkpt>
      <trkpt lat="44.57811" lon="1.16075">
        <ele>185</ele>
        <time>2024-03-10T21:18:09Z</time>
      </trkpt>
      <trkpt lat="44.5778" lon="1.16056">
        <ele>186</ele>
        <time>2024-03-10T21:18:17Z</time>
      </trkpt>
      <trkpt lat="44.57731" lon="1.1605">
        <ele>187</ele>
        <time>2024-03-10T21:18:29Z</time>
      </trkpt>
      <trkpt lat="44.57689" lon="1.16057">
        <ele>188</ele>
        <time>2024-03-10T21:18:39Z</time>
      </trkpt>
      <trkpt lat="44.5753" lon="1.16098">
        <ele>180</ele>
        <time>2024-03-10T21:19:16Z</time>
      </trkpt>
      <trkpt lat="44.57496" lon="1.16077">
        <ele>180</ele>
        <time>2024-03-10T21:19:25Z</time>
      </trkpt>
      <trkpt lat="44.5744" lon="1.1601">
        <ele>186</ele>
        <time>2024-03-10T21:19:42Z</time>
      </trkpt>
      <trkpt lat="44.57373" lon="1.15922">
        <ele>183</ele>
        <time>2024-03-10T21:20:04Z</time>
      </trkpt>
      <trkpt lat="44.5735" lon="1.15911">
        <ele>182</ele>
        <time>2024-03-10T21:20:09Z</time>
      </trkpt>
      <trkpt lat="44.57275" lon="1.15906">
        <ele>178</ele>
        <time>2024-03-10T21:20:27Z</time>
      </trkpt>
      <trkpt lat="44.57184" lon="1.15873">
        <ele>176</ele>
        <time>2024-03-10T21:20:49Z</time>
      </trkpt>
      <trkpt lat="44.57135" lon="1.15869">
        <ele>177</ele>
        <time>2024-03-10T21:21:00Z</time>
      </trkpt>
      <trkpt lat="44.57064" lon="1.15898">
        <ele>182</ele>
        <time>2024-03-10T21:21:17Z</time>
      </trkpt>
      <trkpt lat="44.56999" lon="1.15934">
        <ele>185</ele>
        <time>2024-03-10T21:21:34Z</time>
      </trkpt>
      <trkpt lat="44.56929" lon="1.1595">
        <ele>188</ele>
        <time>2024-03-10T21:21:50Z</time>
      </trkpt>
      <trkpt lat="44.56921" lon="1.15949">
        <ele>188</ele>
        <time>2024-03-10T21:21:52Z</time>
      </trkpt>
      <trkpt lat="44.56914" lon="1.15943">
        <ele>188</ele>
        <time>2024-03-10T21:21:54Z</time>
      </trkpt>
      <trkpt lat="44.56885" lon="1.159">
        <ele>190</ele>
        <time>2024-03-10T21:22:04Z</time>
      </trkpt>
      <trkpt lat="44.56723" lon="1.15687">
        <ele>208</ele>
        <time>2024-03-10T21:22:56Z</time>
      </trkpt>
      <trkpt lat="44.56706" lon="1.15679">
        <ele>209</ele>
        <time>2024-03-10T21:23:00Z</time>
      </trkpt>
      <trkpt lat="44.56638" lon="1.1572">
        <ele>217</ele>
        <time>2024-03-10T21:23:17Z</time>
      </trkpt>
      <trkpt lat="44.56624" lon="1.15723">
        <ele>218</ele>
        <time>2024-03-10T21:23:21Z</time>
      </trkpt>
      <trkpt lat="44.56583" lon="1.15719">
        <ele>219</ele>
        <time>2024-03-10T21:23:30Z</time>
      </trkpt>
      <trkpt lat="44.5657" lon="1.15723">
        <ele>220</ele>
        <time>2024-03-10T21:23:33Z</time>
      </trkpt>
      <trkpt lat="44.5655" lon="1.15732">
        <ele>220</ele>
        <time>2024-03-10T21:23:38Z</time>
      </trkpt>
      <trkpt lat="44.5651" lon="1.15765">
        <ele>222</ele>
        <time>2024-03-10T21:23:49Z</time>
      </trkpt>
      <trkpt lat="44.56497" lon="1.1577">
        <ele>222</ele>
        <time>2024-03-10T21:23:52Z</time>
      </trkpt>
      <trkpt lat="44.56363" lon="1.15719">
        <ele>230</ele>
        <time>2024-03-10T21:24:25Z</time>
      </trkpt>
      <trkpt lat="44.56347" lon="1.1572">
        <ele>231</ele>
        <time>2024-03-10T21:24:28Z</time>
      </trkpt>
      <trkpt lat="44.5632" lon="1.15733">
        <ele>233</ele>
        <time>2024-03-10T21:24:35Z</time>
      </trkpt>
      <trkpt lat="44.56301" lon="1.15737">
        <ele>235</ele>
        <time>2024-03-10T21:24:40Z</time>
      </trkpt>
      <trkpt lat="44.56295" lon="1.15718">
        <ele>236</ele>
        <time>2024-03-10T21:24:43Z</time>
      </trkpt>
      <trkpt lat="44.56284" lon="1.1571">
        <ele>237</ele>
        <time>2024-03-10T21:24:46Z</time>
      </trkpt>
      <trkpt lat="44.5627" lon="1.15704">
        <ele>238</ele>
        <time>2024-03-10T21:24:49Z</time>
      </trkpt>
      <trkpt lat="44.562" lon="1.15739">
        <ele>245</ele>
        <time>2024-03-10T21:25:07Z</time>
      </trkpt>
      <trkpt lat="44.56135" lon="1.1578">
        <ele>250</ele>
        <time>2024-03-10T21:25:23Z</time>
      </trkpt>
      <trkpt lat="44.56078" lon="1.15785">
        <ele>255</ele>
        <time>2024-03-10T21:25:37Z</time>
      </trkpt>
      <trkpt lat="44.5599" lon="1.15802">
        <ele>261</ele>
        <time>2024-03-10T21:25:57Z</time>
      </trkpt>
      <trkpt lat="44.559" lon="1.15803">
        <ele>265</ele>
        <time>2024-03-10T21:26:18Z</time>
      </trkpt>
      <trkpt lat="44.55825" lon="1.15785">
        <ele>270</ele>
        <time>2024-03-10T21:26:36Z</time>
      </trkpt>
      <trkpt lat="44.55797" lon="1.15786">
        <ele>270</ele>
        <time>2024-03-10T21:26:43Z</time>
      </trkpt>
      <trkpt lat="44.55776" lon="1.15766">
        <ele>271</ele>
        <time>2024-03-10T21:26:49Z</time>
      </trkpt>
      <trkpt lat="44.55761" lon="1.15743">
        <ele>271</ele>
        <time>2024-03-10T21:26:54Z</time>
      </trkpt>
      <trkpt lat="44.55634" lon="1.15704">
        <ele>276</ele>
        <time>2024-03-10T21:27:24Z</time>
      </trkpt>
      <trkpt lat="44.55592" lon="1.15705">
        <ele>275</ele>
        <time>2024-03-10T21:27:34Z</time>
      </trkpt>
      <trkpt lat="44.55464" lon="1.15677">
        <ele>273</ele>
        <time>2024-03-10T21:28:04Z</time>
      </trkpt>
      <trkpt lat="44.55405" lon="1.15651">
        <ele>274</ele>
        <time>2024-03-10T21:28:19Z</time>
      </trkpt>
      <trkpt lat="44.55311" lon="1.15615">
        <ele>274</ele>
        <time>2024-03-10T21:28:41Z</time>
      </trkpt>
      <trkpt lat="44.55264" lon="1.15573">
        <ele>276</ele>
        <time>2024-03-10T21:28:54Z</time>
      </trkpt>
      <trkpt lat="44.55204" lon="1.1548">
        <ele>282</ele>
        <time>2024-03-10T21:29:15Z</time>
      </trkpt>
      <trkpt lat="44.55158" lon="1.15455">
        <ele>288</ele>
        <time>2024-03-10T21:29:27Z</time>
      </trkpt>
      <trkpt lat="44.55114" lon="1.15446">
        <ele>290</ele>
        <time>2024-03-10T21:29:37Z</time>
      </trkpt>
      <trkpt lat="44.55087" lon="1.15484">
        <ele>291</ele>
        <time>2024-03-10T21:29:46Z</time>
      </trkpt>
      <trkpt lat="44.55063" lon="1.15513">
        <ele>289</ele>
        <time>2024-03-10T21:29:54Z</time>
      </trkpt>
      <trkpt lat="44.55047" lon="1.15536">
        <ele>287</ele>
        <time>2024-03-10T21:29:59Z</time>
      </trkpt>
      <trkpt lat="44.55005" lon="1.15607">
        <ele>284</ele>
        <time>2024-03-10T21:30:14Z</time>
      </trkpt>
      <trkpt lat="44.54965" lon="1.1566">
        <ele>284</ele>
        <time>2024-03-10T21:30:27Z</time>
      </trkpt>
      <trkpt lat="44.54947" lon="1.1567">
        <ele>284</ele>
        <time>2024-03-10T21:30:32Z</time>
      </trkpt>
      <trkpt lat="44.54882" lon="1.15691">
        <ele>282</ele>
        <time>2024-03-10T21:30:47Z</time>
      </trkpt>
      <trkpt lat="44.54772" lon="1.15749">
        <ele>279</ele>
        <time>2024-03-10T21:31:15Z</time>
      </trkpt>
      <trkpt lat="44.54764" lon="1.15751">
        <ele>278</ele>
        <time>2024-03-10T21:31:17Z</time>
      </trkpt>
      <trkpt lat="44.54685" lon="1.15745">
        <ele>274</ele>
        <time>2024-03-10T21:31:35Z</time>
      </trkpt>
      <trkpt lat="44.54594" lon="1.15724">
        <ele>268</ele>
        <time>2024-03-10T21:31:57Z</time>
      </trkpt>
      <trkpt lat="44.54547" lon="1.15719">
        <ele>265</ele>
        <time>2024-03-10T21:32:08Z</time>
      </trkpt>
      <trkpt lat="44.54528" lon="1.15722">
        <ele>265</ele>
        <time>2024-03-10T21:32:12Z</time>
      </trkpt>
      <trkpt lat="44.545" lon="1.15731">
        <ele>264</ele>
        <time>2024-03-10T21:32:19Z</time>
      </trkpt>
      <trkpt lat="44.54477" lon="1.15732">
        <ele>260</ele>
        <time>2024-03-10T21:32:24Z</time>
      </trkpt>
      <trkpt lat="44.54446" lon="1.15719">
        <ele>256</ele>
        <time>2024-03-10T21:32:32Z</time>
      </trkpt>
      <trkpt lat="44.54427" lon="1.15716">
        <ele>253</ele>
        <time>2024-03-10T21:32:36Z</time>
      </trkpt>
      <trkpt lat="44.54338" lon="1.15719">
        <ele>240</ele>
        <time>2024-03-10T21:32:57Z</time>
      </trkpt>
      <trkpt lat="44.54295" lon="1.15724">
        <ele>237</ele>
        <time>2024-03-10T21:33:07Z</time>
      </trkpt>
      <trkpt lat="44.54252" lon="1.15716">
        <ele>234</ele>
        <time>2024-03-10T21:33:17Z</time>
      </trkpt>
      <trkpt lat="44.54226" lon="1.15709">
        <ele>233</ele>
        <time>2024-03-10T21:33:23Z</time>
      </trkpt>
      <trkpt lat="44.5419" lon="1.15672">
        <ele>232</ele>
        <time>2024-03-10T21:33:34Z</time>
      </trkpt>
      <trkpt lat="44.54149" lon="1.15638">
        <ele>230</ele>
        <time>2024-03-10T21:33:45Z</time>
      </trkpt>
      <trkpt lat="44.54124" lon="1.15632">
        <ele>230</ele>
        <time>2024-03-10T21:33:51Z</time>
      </trkpt>
      <trkpt lat="44.54107" lon="1.15622">
        <ele>230</ele>
        <time>2024-03-10T21:33:55Z</time>
      </trkpt>
      <trkpt lat="44.54076" lon="1.15613">
        <ele>230</ele>
        <time>2024-03-10T21:34:02Z</time>
      </trkpt>
      <trkpt lat="44.54058" lon="1.15613">
        <ele>229</ele>
        <time>2024-03-10T21:34:07Z</time>
      </trkpt>
      <trkpt lat="44.54049" lon="1.15603">
        <ele>228</ele>
        <time>2024-03-10T21:34:09Z</time>
      </trkpt>
      <trkpt lat="44.54059" lon="1.15582">
        <ele>227</ele>
        <time>2024-03-10T21:34:14Z</time>
      </trkpt>
      <trkpt lat="44.5406" lon="1.15565">
        <ele>228</ele>
        <time>2024-03-10T21:34:16Z</time>
      </trkpt>
      <trkpt lat="44.54023" lon="1.15577">
        <ele>226</ele>
        <time>2024-03-10T21:34:25Z</time>
      </trkpt>
      <trkpt lat="44.53992" lon="1.15591">
        <ele>225</ele>
        <time>2024-03-10T21:34:33Z</time>
      </trkpt>
      <trkpt lat="44.53957" lon="1.15614">
        <ele>223</ele>
        <time>2024-03-10T21:34:42Z</time>
      </trkpt>
      <trkpt lat="44.53945" lon="1.15617">
        <ele>223</ele>
        <time>2024-03-10T21:34:45Z</time>
      </trkpt>
      <trkpt lat="44.53928" lon="1.15617">
        <ele>221</ele>
        <time>2024-03-10T21:34:49Z</time>
      </trkpt>
      <trkpt lat="44.53887" lon="1.15609">
        <ele>219</ele>
        <time>2024-03-10T21:34:58Z</time>
      </trkpt>
      <trkpt lat="44.53806" lon="1.15553">
        <ele>215</ele>
        <time>2024-03-10T21:35:19Z</time>
      </trkpt>
      <trkpt lat="44.53746" lon="1.15496">
        <ele>210</ele>
        <time>2024-03-10T21:35:36Z</time>
      </trkpt>
      <trkpt lat="44.53731" lon="1.15487">
        <ele>209</ele>
        <time>2024-03-10T21:35:40Z</time>
      </trkpt>
      <trkpt lat="44.5371" lon="1.15481">
        <ele>207</ele>
        <time>2024-03-10T21:35:45Z</time>
      </trkpt>
      <trkpt lat="44.53687" lon="1.15484">
        <ele>204</ele>
        <time>2024-03-10T21:35:51Z</time>
      </trkpt>
      <trkpt lat="44.53648" lon="1.15479">
        <ele>201</ele>
        <time>2024-03-10T21:36:00Z</time>
      </trkpt>
      <trkpt lat="44.53645" lon="1.1542">
        <ele>203</ele>
        <time>2024-03-10T21:36:10Z</time>
      </trkpt>
      <trkpt lat="44.53649" lon="1.15384">
        <ele>204</ele>
        <time>2024-03-10T21:36:16Z</time>
      </trkpt>
      <trkpt lat="44.53662" lon="1.15352">
        <ele>203</ele>
        <time>2024-03-10T21:36:22Z</time>
      </trkpt>
      <trkpt lat="44.53696" lon="1.15299">
        <ele>209</ele>
        <time>2024-03-10T21:36:34Z</time>
      </trkpt>
      <trkpt lat="44.53699" lon="1.15274">
        <ele>211</ele>
        <time>2024-03-10T21:36:38Z</time>
      </trkpt>
      <trkpt lat="44.53693" lon="1.15252">
        <ele>210</ele>
        <time>2024-03-10T21:36:42Z</time>
      </trkpt>
      <trkpt lat="44.53721" lon="1.15148">
        <ele>214</ele>
        <time>2024-03-10T21:37:00Z</time>
      </trkpt>
      <trkpt lat="44.53736" lon="1.15113">
        <ele>214</ele>
        <time>2024-03-10T21:37:07Z</time>
      </trkpt>
      <trkpt lat="44.53775" lon="1.15077">
        <ele>218</ele>
        <time>2024-03-10T21:37:18Z</time>
      </trkpt>
      <trkpt lat="44.53762" lon="1.15066">
        <ele>216</ele>
        <time>2024-03-10T21:37:22Z</time>
      </trkpt>
      <trkpt lat="44.53723" lon="1.15072">
        <ele>212</ele>
        <time>2024-03-10T21:37:31Z</time>
      </trkpt>
      <trkpt lat="44.53686" lon="1.15097">
        <ele>209</ele>
        <time>2024-03-10T21:37:40Z</time>
      </trkpt>
      <trkpt lat="44.53682" lon="1.15089">
        <ele>209</ele>
        <time>2024-03-10T21:37:42Z</time>
      </trkpt>
      <trkpt lat="44.53749" lon="1.14978">
        <ele>216</ele>
        <time>2024-03-10T21:38:06Z</time>
      </trkpt>
      <trkpt lat="44.53779" lon="1.14918">
        <ele>218</ele>
        <time>2024-03-10T21:38:18Z</time>
      </trkpt>
      <trkpt lat="44.53792" lon="1.14872">
        <ele>221</ele>
        <time>2024-03-10T21:38:27Z</time>
      </trkpt>
      <trkpt lat="44.53806" lon="1.14846">
        <ele>224</ele>
        <time>2024-03-10T21:38:32Z</time>
      </trkpt>
      <trkpt lat="44.53848" lon="1.14799">
        <ele>230</ele>
        <time>2024-03-10T21:38:45Z</time>
      </trkpt>
      <trkpt lat="44.53847" lon="1.14758">
        <ele>231</ele>
        <time>2024-03-10T21:38:51Z</time>
      </trkpt>
      <trkpt lat="44.53866" lon="1.14723">
        <ele>235</ele>
        <time>2024-03-10T21:38:59Z</time>
      </trkpt>
      <trkpt lat="44.53888" lon="1.14703">
        <ele>239</ele>
        <time>2024-03-10T21:39:05Z</time>
      </trkpt>
      <trkpt lat="44.53894" lon="1.14686">
        <ele>240</ele>
        <time>2024-03-10T21:39:08Z</time>
      </trkpt>
      <trkpt lat="44.5389" lon="1.14653">
        <ele>244</ele>
        <time>2024-03-10T21:39:14Z</time>
      </trkpt>
      <trkpt lat="44.53885" lon="1.14634">
        <ele>246</ele>
        <time>2024-03-10T21:39:17Z</time>
      </trkpt>
      <trkpt lat="44.53865" lon="1.14605">
        <ele>248</ele>
        <time>2024-03-10T21:39:24Z</time>
      </trkpt>
      <trkpt lat="44.53847" lon="1.14587">
        <ele>249</ele>
        <time>2024-03-10T21:39:29Z</time>
      </trkpt>
      <trkpt lat="44.53811" lon="1.14521">
        <ele>253</ele>
        <time>2024-03-10T21:39:43Z</time>
      </trkpt>
      <trkpt lat="44.53789" lon="1.1449">
        <ele>255</ele>
        <time>2024-03-10T21:39:50Z</time>
      </trkpt>
      <trkpt lat="44.5375" lon="1.14442">
        <ele>256</ele>
        <time>2024-03-10T21:40:02Z</time>
      </trkpt>
      <trkpt lat="44.53746" lon="1.14426">
        <ele>257</ele>
        <time>2024-03-10T21:40:05Z</time>
      </trkpt>
      <trkpt lat="44.53746" lon="1.14403">
        <ele>257</ele>
        <time>2024-03-10T21:40:09Z</time>
      </trkpt>
      <trkpt lat="44.53775" lon="1.14355">
        <ele>260</ele>
        <time>2024-03-10T21:40:19Z</time>
      </trkpt>
      <trkpt lat="44.5384" lon="1.14296">
        <ele>265</ele>
        <time>2024-03-10T21:40:37Z</time>
      </trkpt>
      <trkpt lat="44.53864" lon="1.14265">
        <ele>263</ele>
        <time>2024-03-10T21:40:45Z</time>
      </trkpt>
      <trkpt lat="44.53871" lon="1.14242">
        <ele>262</ele>
        <time>2024-03-10T21:40:49Z</time>
      </trkpt>
      <trkpt lat="44.53903" lon="1.14213">
        <ele>261</ele>
        <time>2024-03-10T21:40:58Z</time>
      </trkpt>
      <trkpt lat="44.539" lon="1.14201">
        <ele>261</ele>
        <time>2024-03-10T21:41:00Z</time>
      </trkpt>
      <trkpt lat="44.53881" lon="1.14195">
        <ele>259</ele>
        <time>2024-03-10T21:41:05Z</time>
      </trkpt>
      <trkpt lat="44.53864" lon="1.14177">
        <ele>258</ele>
        <time>2024-03-10T21:41:10Z</time>
      </trkpt>
      <trkpt lat="44.53809" lon="1.14156">
        <ele>253</ele>
        <time>2024-03-10T21:41:23Z</time>
      </trkpt>
      <trkpt lat="44.53728" lon="1.14183">
        <ele>249</ele>
        <time>2024-03-10T21:41:42Z</time>
      </trkpt>
      <trkpt lat="44.53701" lon="1.142">
        <ele>249</ele>
        <time>2024-03-10T21:41:49Z</time>
      </trkpt>
      <trkpt lat="44.53635" lon="1.1422">
        <ele>245</ele>
        <time>2024-03-10T21:42:05Z</time>
      </trkpt>
      <trkpt lat="44.53609" lon="1.1425">
        <ele>239</ele>
        <time>2024-03-10T21:42:13Z</time>
      </trkpt>
      <trkpt lat="44.53559" lon="1.14276">
        <ele>236</ele>
        <time>2024-03-10T21:42:25Z</time>
      </trkpt>
      <trkpt lat="44.53504" lon="1.14333">
        <ele>229</ele>
        <time>2024-03-10T21:42:41Z</time>
      </trkpt>
      <trkpt lat="44.53477" lon="1.14345">
        <ele>231</ele>
        <time>2024-03-10T21:42:48Z</time>
      </trkpt>
      <trkpt lat="44.53463" lon="1.14355">
        <ele>231</ele>
        <time>2024-03-10T21:42:52Z</time>
      </trkpt>
      <trkpt lat="44.53433" lon="1.14409">
        <ele>230</ele>
        <time>2024-03-10T21:43:03Z</time>
      </trkpt>
      <trkpt lat="44.53334" lon="1.14483">
        <ele>227</ele>
        <time>2024-03-10T21:43:29Z</time>
      </trkpt>
      <trkpt lat="44.53293" lon="1.14499">
        <ele>226</ele>
        <time>2024-03-10T21:43:39Z</time>
      </trkpt>
      <trkpt lat="44.53239" lon="1.14546">
        <ele>220</ele>
        <time>2024-03-10T21:43:54Z</time>
      </trkpt>
      <trkpt lat="44.53196" lon="1.14643">
        <ele>213</ele>
        <time>2024-03-10T21:44:13Z</time>
      </trkpt>
      <trkpt lat="44.53136" lon="1.14741">
        <ele>212</ele>
        <time>2024-03-10T21:44:34Z</time>
      </trkpt>
      <trkpt lat="44.5308" lon="1.14802">
        <ele>212</ele>
        <time>2024-03-10T21:44:51Z</time>
      </trkpt>
      <trkpt lat="44.52985" lon="1.14847">
        <ele>219</ele>
        <time>2024-03-10T21:45:14Z</time>
      </trkpt>
      <trkpt lat="44.52907" lon="1.14862">
        <ele>218</ele>
        <time>2024-03-10T21:45:33Z</time>
      </trkpt>
      <trkpt lat="44.52893" lon="1.1488">
        <ele>218</ele>
        <time>2024-03-10T21:45:37Z</time>
      </trkpt>
      <trkpt lat="44.52816" lon="1.14909">
        <ele>219</ele>
        <time>2024-03-10T21:45:56Z</time>
      </trkpt>
      <trkpt lat="44.52741" lon="1.14902">
        <ele>218</ele>
        <time>2024-03-10T21:46:13Z</time>
      </trkpt>
      <trkpt lat="44.52703" lon="1.14882">
        <ele>218</ele>
        <time>2024-03-10T21:46:23Z</time>
      </trkpt>
      <trkpt lat="44.52682" lon="1.149">
        <ele>218</ele>
        <time>2024-03-10T21:46:29Z</time>
      </trkpt>
      <trkpt lat="44.52676" lon="1.14925">
        <ele>218</ele>
        <time>2024-03-10T21:46:33Z</time>
      </trkpt>
      <trkpt lat="44.52664" lon="1.14949">
        <ele>217</ele>
        <time>2024-03-10T21:46:38Z</time>
      </trkpt>
      <trkpt lat="44.5266" lon="1.14979">
        <ele>217</ele>
        <time>2024-03-10T21:46:43Z</time>
      </trkpt>
      <trkpt lat="44.52632" lon="1.15021">
        <ele>215</ele>
        <time>2024-03-10T21:46:53Z</time>
      </trkpt>
      <trkpt lat="44.52618" lon="1.15058">
        <ele>213</ele>
        <time>2024-03-10T21:47:00Z</time>
      </trkpt>
      <trkpt lat="44.52585" lon="1.15116">
        <ele>209</ele>
        <time>2024-03-10T21:47:12Z</time>
      </trkpt>
      <trkpt lat="44.5256" lon="1.15143">
        <ele>205</ele>
        <time>2024-03-10T21:47:19Z</time>
      </trkpt>
      <trkpt lat="44.52458" lon="1.15216">
        <ele>189</ele>
        <time>2024-03-10T21:47:46Z</time>
      </trkpt>
      <trkpt lat="44.52431" lon="1.15217">
        <ele>186</ele>
        <time>2024-03-10T21:47:52Z</time>
      </trkpt>
      <trkpt lat="44.52413" lon="1.152">
        <ele>185</ele>
        <time>2024-03-10T21:47:57Z</time>
      </trkpt>
      <trkpt lat="44.52358" lon="1.15094">
        <ele>185</ele>
        <time>2024-03-10T21:48:19Z</time>
      </trkpt>
      <trkpt lat="44.52329" lon="1.15065">
        <ele>183</ele>
        <time>2024-03-10T21:48:28Z</time>
      </trkpt>
      <trkpt lat="44.52309" lon="1.14994">
        <ele>181</ele>
        <time>2024-03-10T21:48:40Z</time>
      </trkpt>
      <trkpt lat="44.52309" lon="1.14962">
        <ele>183</ele>
        <time>2024-03-10T21:48:46Z</time>
      </trkpt>
      <trkpt lat="44.52291" lon="1.1493">
        <ele>183</ele>
        <time>2024-03-10T21:48:52Z</time>
      </trkpt>
      <trkpt lat="44.5226" lon="1.14919">
        <ele>182</ele>
        <time>2024-03-10T21:49:00Z</time>
      </trkpt>
      <trkpt lat="44.52182" lon="1.1494">
        <ele>187</ele>
        <time>2024-03-10T21:49:18Z</time>
      </trkpt>
      <trkpt lat="44.52174" lon="1.14954">
        <ele>187</ele>
        <time>2024-03-10T21:49:21Z</time>
      </trkpt>
      <trkpt lat="44.52211" lon="1.15022">
        <ele>175</ele>
        <time>2024-03-10T21:49:36Z</time>
      </trkpt>
      <trkpt lat="44.52211" lon="1.15046">
        <ele>173</ele>
        <time>2024-03-10T21:49:40Z</time>
      </trkpt>
      <trkpt lat="44.52195" lon="1.1508">
        <ele>170</ele>
        <time>2024-03-10T21:49:46Z</time>
      </trkpt>
      <trkpt lat="44.52188" lon="1.15087">
        <ele>169</ele>
        <time>2024-03-10T21:49:48Z</time>
      </trkpt>
      <trkpt lat="44.52182" lon="1.15119">
        <ele>166</ele>
        <time>2024-03-10T21:49:54Z</time>
      </trkpt>
      <trkpt lat="44.52172" lon="1.1514">
        <ele>163</ele>
        <time>2024-03-10T21:49:58Z</time>
      </trkpt>
      <trkpt lat="44.52151" lon="1.15222">
        <ele>154</ele>
        <time>2024-03-10T21:50:13Z</time>
      </trkpt>
      <trkpt lat="44.52149" lon="1.15287">
        <ele>147</ele>
        <time>2024-03-10T21:50:23Z</time>
      </trkpt>
      <trkpt lat="44.52135" lon="1.15344">
        <ele>141</ele>
        <time>2024-03-10T21:50:33Z</time>
      </trkpt>
      <trkpt lat="44.52115" lon="1.15389">
        <ele>135</ele>
        <time>2024-03-10T21:50:42Z</time>
      </trkpt>
      <trkpt lat="44.52084" lon="1.15391">
        <ele>133</ele>
        <time>2024-03-10T21:50:50Z</time>
      </trkpt>
      <trkpt lat="44.52" lon="1.15415">
        <ele>130</ele>
        <time>2024-03-10T21:51:10Z</time>
      </trkpt>
      <trkpt lat="44.51917" lon="1.15409">
        <ele>131</ele>
        <time>2024-03-10T21:51:29Z</time>
      </trkpt>
      <trkpt lat="44.51891" lon="1.15376">
        <ele>133</ele>
        <time>2024-03-10T21:51:37Z</time>
      </trkpt>
      <trkpt lat="44.5185" lon="1.15277">
        <ele>136</ele>
        <time>2024-03-10T21:51:56Z</time>
      </trkpt>
      <trkpt lat="44.51842" lon="1.15271">
        <ele>135</ele>
        <time>2024-03-10T21:51:58Z</time>
      </trkpt>
      <trkpt lat="44.51831" lon="1.15275">
        <ele>132</ele>
        <time>2024-03-10T21:52:01Z</time>
      </trkpt>
      <trkpt lat="44.51815" lon="1.15293">
        <ele>130</ele>
        <time>2024-03-10T21:52:06Z</time>
      </trkpt>
      <trkpt lat="44.51792" lon="1.1534">
        <ele>128</ele>
        <time>2024-03-10T21:52:15Z</time>
      </trkpt>
      <trkpt lat="44.51777" lon="1.15479">
        <ele>133</ele>
        <time>2024-03-10T21:52:39Z</time>
      </trkpt>
      <trkpt lat="44.51618" lon="1.15327">
        <ele>124</ele>
        <time>2024-03-10T21:53:24Z</time>
      </trkpt>
      <trkpt lat="44.51512" lon="1.15233">
        <ele>122</ele>
        <time>2024-03-10T21:53:53Z</time>
      </trkpt>
      <trkpt lat="44.51486" lon="1.15197">
        <ele>122</ele>
        <time>2024-03-10T21:54:01Z</time>
      </trkpt>
      <trkpt lat="44.51417" lon="1.15164">
        <ele>122</ele>
        <time>2024-03-10T21:54:19Z</time>
      </trkpt>
      <trkpt lat="44.51389" lon="1.15143">
        <ele>122</ele>
        <time>2024-03-10T21:54:26Z</time>
      </trkpt>
      <trkpt lat="44.51382" lon="1.15153">
        <ele>122</ele>
        <time>2024-03-10T21:54:28Z</time>
      </trkpt>
      <trkpt lat="44.51336" lon="1.15187">
        <ele>123</ele>
        <time>2024-03-10T21:54:40Z</time>
      </trkpt>
      <trkpt lat="44.51312" lon="1.15217">
        <ele>127</ele>
        <time>2024-03-10T21:54:48Z</time>
      </trkpt>
      <trkpt lat="44.51293" lon="1.15256">
        <ele>131</ele>
        <time>2024-03-10T21:54:56Z</time>
      </trkpt>
      <trkpt lat="44.51251" lon="1.15318">
        <ele>139</ele>
        <time>2024-03-10T21:55:10Z</time>
      </trkpt>
      <trkpt lat="44.5124" lon="1.1531">
        <ele>140</ele>
        <time>2024-03-10T21:55:13Z</time>
      </trkpt>
      <trkpt lat="44.51226" lon="1.15289">
        <ele>140</ele>
        <time>2024-03-10T21:55:18Z</time>
      </trkpt>
      <trkpt lat="44.51214" lon="1.15256">
        <ele>140</ele>
        <time>2024-03-10T21:55:24Z</time>
      </trkpt>
      <trkpt lat="44.51193" lon="1.15212">
        <ele>140</ele>
        <time>2024-03-10T21:55:33Z</time>
      </trkpt>
      <trkpt lat="44.51172" lon="1.15178">
        <ele>141</ele>
        <time>2024-03-10T21:55:40Z</time>
      </trkpt>
      <trkpt lat="44.51172" lon="1.15156">
        <ele>140</ele>
        <time>2024-03-10T21:55:44Z</time>
      </trkpt>
      <trkpt lat="44.51165" lon="1.15103">
        <ele>137</ele>
        <time>2024-03-10T21:55:53Z</time>
      </trkpt>
      <trkpt lat="44.51164" lon="1.15052">
        <ele>134</ele>
        <time>2024-03-10T21:56:01Z</time>
      </trkpt>
      <trkpt lat="44.51172" lon="1.14943">
        <ele>125</ele>
        <time>2024-03-10T21:56:20Z</time>
      </trkpt>
      <trkpt lat="44.51172" lon="1.14898">
        <ele>121</ele>
        <time>2024-03-10T21:56:27Z</time>
      </trkpt>
      <trkpt lat="44.51161" lon="1.14843">
        <ele>120</ele>
        <time>2024-03-10T21:56:37Z</time>
      </trkpt>
      <trkpt lat="44.51148" lon="1.1481">
        <ele>121</ele>
        <time>2024-03-10T21:56:43Z</time>
      </trkpt>
      <trkpt lat="44.51128" lon="1.14772">
        <ele>122</ele>
        <time>2024-03-10T21:56:51Z</time>
      </trkpt>
      <trkpt lat="44.51074" lon="1.14598">
        <ele>117</ele>
        <time>2024-03-10T21:57:22Z</time>
      </trkpt>
      <trkpt lat="44.5106" lon="1.14535">
        <ele>117</ele>
        <time>2024-03-10T21:57:33Z</time>
      </trkpt>
      <trkpt lat="44.51046" lon="1.14493">
        <ele>117</ele>
        <time>2024-03-10T21:57:41Z</time>
      </trkpt>
      <trkpt lat="44.51036" lon="1.14477">
        <ele>117</ele>
        <time>2024-03-10T21:57:45Z</time>
      </trkpt>
      <trkpt lat="44.50991" lon="1.1442">
        <ele>112</ele>
        <time>2024-03-10T21:57:59Z</time>
      </trkpt>
      <trkpt lat="44.50977" lon="1.14407">
        <ele>111</ele>
        <time>2024-03-10T21:58:03Z</time>
      </trkpt>
      <trkpt lat="44.50961" lon="1.14398">
        <ele>111</ele>
        <time>2024-03-10T21:58:07Z</time>
      </trkpt>
      <trkpt lat="44.50956" lon="1.14388">
        <ele>111</ele>
        <time>2024-03-10T21:58:09Z</time>
      </trkpt>
      <trkpt lat="44.50959" lon="1.14341">
        <ele>110</ele>
        <time>2024-03-10T21:58:17Z</time>
      </trkpt>
      <trkpt lat="44.50957" lon="1.14272">
        <ele>124</ele>
        <time>2024-03-10T21:58:28Z</time>
      </trkpt>
      <trkpt lat="44.50912" lon="1.14265">
        <ele>125</ele>
        <time>2024-03-10T21:58:39Z</time>
      </trkpt>
      <trkpt lat="44.50906" lon="1.1426">
        <ele>126</ele>
        <time>2024-03-10T21:58:40Z</time>
      </trkpt>
      <trkpt lat="44.50877" lon="1.14259">
        <ele>129</ele>
        <time>2024-03-10T21:58:47Z</time>
      </trkpt>
      <trkpt lat="44.50828" lon="1.14273">
        <ele>128</ele>
        <time>2024-03-10T21:58:59Z</time>
      </trkpt>
      <trkpt lat="44.50795" lon="1.14274">
        <ele>129</ele>
        <time>2024-03-10T21:59:06Z</time>
      </trkpt>
      <trkpt lat="44.50752" lon="1.14271">
        <ele>132</ele>
        <time>2024-03-10T21:59:16Z</time>
      </trkpt>
      <trkpt lat="44.50734" lon="1.14265">
        <ele>135</ele>
        <time>2024-03-10T21:59:21Z</time>
      </trkpt>
      <trkpt lat="44.50692" lon="1.14242">
        <ele>141</ele>
        <time>2024-03-10T21:59:31Z</time>
      </trkpt>
      <trkpt lat="44.50688" lon="1.14233">
        <ele>141</ele>
        <time>2024-03-10T21:59:33Z</time>
      </trkpt>
      <trkpt lat="44.50689" lon="1.14225">
        <ele>142</ele>
        <time>2024-03-10T21:59:34Z</time>
      </trkpt>
      <trkpt lat="44.50674" lon="1.14215">
        <ele>142</ele>
        <time>2024-03-10T21:59:38Z</time>
      </trkpt>
      <trkpt lat="44.50661" lon="1.14196">
        <ele>143</ele>
        <time>2024-03-10T21:59:43Z</time>
      </trkpt>
      <trkpt lat="44.50653" lon="1.14135">
        <ele>142</ele>
        <time>2024-03-10T21:59:53Z</time>
      </trkpt>
      <trkpt lat="44.50652" lon="1.14093">
        <ele>140</ele>
        <time>2024-03-10T22:00:00Z</time>
      </trkpt>
      <trkpt lat="44.50672" lon="1.13977">
        <ele>133</ele>
        <time>2024-03-10T22:00:20Z</time>
      </trkpt>
      <trkpt lat="44.50674" lon="1.13921">
        <ele>131</ele>
        <time>2024-03-10T22:00:29Z</time>
      </trkpt>
      <trkpt lat="44.50683" lon="1.13831">
        <ele>129</ele>
        <time>2024-03-10T22:00:44Z</time>
      </trkpt>
      <trkpt lat="44.506" lon="1.13836">
        <ele>127</ele>
        <time>2024-03-10T22:01:04Z</time>
      </trkpt>
      <trkpt lat="44.50576" lon="1.1383">
        <ele>126</ele>
        <time>2024-03-10T22:01:09Z</time>
      </trkpt>
      <trkpt lat="44.50478" lon="1.13784">
        <ele>120</ele>
        <time>2024-03-10T22:01:34Z</time>
      </trkpt>
      <trkpt lat="44.50477" lon="1.13756">
        <ele>119</ele>
        <time>2024-03-10T22:01:38Z</time>
      </trkpt>
      <trkpt lat="44.50449" lon="1.13749">
        <ele>117</ele>
        <time>2024-03-10T22:01:45Z</time>
      </trkpt>
      <trkpt lat="44.50425" lon="1.13752">
        <ele>116</ele>
        <time>2024-03-10T22:01:51Z</time>
      </trkpt>
      <trkpt lat="44.50423" lon="1.13764">
        <ele>116</ele>
        <time>2024-03-10T22:01:53Z</time>
      </trkpt>
      <trkpt lat="44.50374" lon="1.13769">
        <ele>109</ele>
        <time>2024-03-10T22:02:04Z</time>
      </trkpt>
      <trkpt lat="44.50336" lon="1.13769">
        <ele>103</ele>
        <time>2024-03-10T22:02:13Z</time>
      </trkpt>
      <trkpt lat="44.50326" lon="1.13734">
        <ele>100</ele>
        <time>2024-03-10T22:02:19Z</time>
      </trkpt>
      <trkpt lat="44.50328" lon="1.13711">
        <ele>98</ele>
        <time>2024-03-10T22:02:23Z</time>
      </trkpt>
      <trkpt lat="44.50348" lon="1.13677">
        <ele>99</ele>
        <time>2024-03-10T22:02:30Z</time>
      </trkpt>
      <trkpt lat="44.50389" lon="1.13629">
        <ele>106</ele>
        <time>2024-03-10T22:02:43Z</time>
      </trkpt>
      <trkpt lat="44.50405" lon="1.13602">
        <ele>108</ele>
        <time>2024-03-10T22:02:49Z</time>
      </trkpt>
      <trkpt lat="44.50405" lon="1.13597">
        <ele>108</ele>
        <time>2024-03-10T22:02:50Z</time>
      </trkpt>
      <trkpt lat="44.504" lon="1.13597">
        <ele>106</ele>
        <time>2024-03-10T22:02:51Z</time>
      </trkpt>
      <trkpt lat="44.50366" lon="1.13645">
        <ele>101</ele>
        <time>2024-03-10T22:03:02Z</time>
      </trkpt>
      <trkpt lat="44.50324" lon="1.13683">
        <ele>95</ele>
        <time>2024-03-10T22:03:14Z</time>
      </trkpt>
      <trkpt lat="44.50314" lon="1.13709">
        <ele>96</ele>
        <time>2024-03-10T22:03:19Z</time>
      </trkpt>
      <trkpt lat="44.50312" lon="1.13727">
        <ele>97</ele>
        <time>2024-03-10T22:03:22Z</time>
      </trkpt>
      <trkpt lat="44.50319" lon="1.13757">
        <ele>100</ele>
        <time>2024-03-10T22:03:27Z</time>
      </trkpt>
      <trkpt lat="44.50292" lon="1.13762">
        <ele>95</ele>
        <time>2024-03-10T22:03:33Z</time>
      </trkpt>
      <trkpt lat="44.50303" lon="1.13674">
        <ele>91</ele>
        <time>2024-03-10T22:03:48Z</time>
      </trkpt>
      <trkpt lat="44.50303" lon="1.13644">
        <ele>89</ele>
        <time>2024-03-10T22:03:53Z</time>
      </trkpt>
      <trkpt lat="44.50295" lon="1.13643">
        <ele>88</ele>
        <time>2024-03-10T22:03:55Z</time>
      </trkpt>
      <trkpt lat="44.50272" lon="1.1366">
        <ele>85</ele>
        <time>2024-03-10T22:04:01Z</time>
      </trkpt>
      <trkpt lat="44.50254" lon="1.13686">
        <ele>84</ele>
        <time>2024-03-10T22:04:07Z</time>
      </trkpt>
      <trkpt lat="44.50254" lon="1.13724">
        <ele>86</ele>
        <time>2024-03-10T22:04:13Z</time>
      </trkpt>
      <trkpt lat="44.50259" lon="1.1378">
        <ele>90</ele>
        <time>2024-03-10T22:04:23Z</time>
      </trkpt>
      <trkpt lat="44.50267" lon="1.13814">
        <ele>92</ele>
        <time>2024-03-10T22:04:29Z</time>
      </trkpt>
      <trkpt lat="44.50228" lon="1.1381">
        <ele>92</ele>
        <time>2024-03-10T22:04:38Z</time>
      </trkpt>
      <trkpt lat="44.50175" lon="1.13545">
        <ele>82</ele>
        <time>2024-03-10T22:05:24Z</time>
      </trkpt>
      <trkpt lat="44.50149" lon="1.13478">
        <ele>83</ele>
        <time>2024-03-10T22:05:36Z</time>
      </trkpt>
      <trkpt lat="44.50143" lon="1.13438">
        <ele>84</ele>
        <time>2024-03-10T22:05:43Z</time>
      </trkpt>
      <trkpt lat="44.50148" lon="1.13424">
        <ele>84</ele>
        <time>2024-03-10T22:05:46Z</time>
      </trkpt>
      <trkpt lat="44.50159" lon="1.13415">
        <ele>84</ele>
        <time>2024-03-10T22:05:49Z</time>
      </trkpt>
      <trkpt lat="44.5019" lon="1.13401">
        <ele>84</ele>
        <time>2024-03-10T22:05:56Z</time>
      </trkpt>
      <trkpt lat="44.50223" lon="1.13526">
        <ele>81</ele>
        <time>2024-03-10T22:06:19Z</time>
      </trkpt>
      <trkpt lat="44.50287" lon="1.13491">
        <ele>81</ele>
        <time>2024-03-10T22:06:35Z</time>
      </trkpt>
      <trkpt lat="44.50281" lon="1.1344">
        <ele>82</ele>
        <time>2024-03-10T22:06:43Z</time>
      </trkpt>
    </trkseg>
  </trk>
</gpx>